[[{"header":{"parameterUnit":"m.s-1","parameterCategory":1,"la1":30.6,"la2":28.766,"lo1":-90.7593,"lo2":-88.6598,"dy":0.0162,"dx":0.0183,"nx":116,"ny":114,"refTime":"2024-02-28T18:00:00:Z","depth":0,"parameterNumber":2,"parameterNumberName":"U-component_of_WINDS"},"data":[0.0,0.0,0.0,0.0,0.0,0.0,0.0,0.0,0.0,0.0,0.0,0.0,0.0,0.0,0.0,0.0,0.0,0.0,0.0,0.0,0.0,0.0,0.0,0.0,0.0,0.0,0.0,0.0,0.0,0.0,0.0,0.0,0.0,0.0,0.0,0.0,0.0,0.0,0.0,0.0,0.0,0.0,0.0,0.0,0.0,0.0,0.0,0.0,0.0,0.0,0.0,0.0,0.0,0.0,0.0,0.0,0.0,0.0,0.0,0.0,0.0,0.0,0.0,0.0,0.0,0.0,0.0,0.0,0.0,0.0,0.0,0.0,0.0,0.0,0.0,0.0,0.0,0.0,0.0,0.0,0.0,0.0,0.0,0.0,0.0,0.0,0.0,0.0,0.0,0.0,0.0,0.0,0.0,0.0,0.0,0.0,0.0,0.0,0.0,0.0,0.0,0.0,0.0,0.0,0.0,0.0,0.0,0.0,0.0,0.0,0.0,0.0,0.0,0.0,0.0,0.0,0.0,0.0,0.0,0.0,0.0,0.0,0.0,0.0,0.0,0.0,0.0,0.0,0.0,0.0,0.0,0.0,0.0,0.0,0.0,0.0,0.0,0.0,0.0,0.0,0.0,0.0,0.0,0.0,0.0,0.0,0.0,0.0,0.0,0.0,0.0,0.0,0.0,0.0,0.0,0.0,0.0,0.0,0.0,0.0,0.0,0.0,0.0,0.0,0.0,0.0,0.0,0.0,0.0,0.0,0.0,0.0,0.0,0.0,0.0,0.0,0.0,0.0,0.0,0.0,0.0,0.0,0.0,0.0,0.0,0.0,0.0,0.0,0.0,0.0,0.0,0.0,0.0,0.0,0.0,0.0,0.0,0.0,0.0,0.0,0.0,0.0,0.0,0.0,0.0,0.0,0.0,0.0,0.0,0.0,0.0,0.0,0.0,0.0,0.0,0.0,0.0,0.0,0.0,0.0,0.0,0.0,0.0,0.0,0.0,0.0,0.0,0.0,0.0,0.0,0.0,0.0,0.0,0.0,0.0,0.0,0.0,0.0,0.0,0.0,0.0,0.0,0.0,0.0,0.0,0.0,0.0,0.0,0.0,0.0,0.0,0.0,0.0,0.0,0.0,0.0,0.0,0.0,0.0,0.0,0.0,0.0,0.0,0.0,0.0,0.0,0.0,0.0,0.0,0.0,0.0,0.0,0.0,0.0,0.0,0.0,0.0,0.0,0.0,0.0,0.0,0.0,0.0,0.0,0.0,0.0,0.0,0.0,0.0,0.0,0.0,0.0,0.0,0.0,0.0,0.0,0.0,0.0,0.0,0.0,0.0,0.0,0.0,0.0,0.0,0.0,0.0,0.0,0.0,0.0,0.0,0.0,0.0,0.0,0.0,0.0,0.0,0.0,0.0,0.0,0.0,0.0,0.0,0.0,0.0,0.0,0.0,0.0,0.0,0.0,0.0,0.0,0.0,0.0,0.0,0.0,0.0,0.0,0.0,0.0,0.0,0.0,0.0,0.0,0.0,0.0,0.0,0.0,0.0,0.0,0.0,0.0,0.0,0.0,0.0,0.0,0.0,0.0,0.0,0.0,0.0,0.0,0.0,0.0,0.0,0.0,0.0,0.0,0.0,0.0,0.0,0.0,0.0,0.0,0.0,0.0,0.0,0.0,0.0,0.0,0.0,0.0,0.0,0.0,0.0,0.0,0.0,0.0,0.0,0.0,0.0,0.0,0.0,0.0,0.0,0.0,0.0,0.0,0.0,0.0,0.0,0.0,0.0,0.0,0.0,0.0,0.0,0.0,0.0,0.0,0.0,0.0,0.0,0.0,0.0,0.0,0.0,0.0,0.0,0.0,0.0,0.0,0.0,0.0,0.0,0.0,0.0,0.0,0.0,0.0,0.0,0.0,0.0,0.0,0.0,0.0,0.0,0.0,0.0,0.0,0.0,0.0,0.0,0.0,0.0,0.0,0.0,0.0,0.0,0.0,0.0,0.0,0.0,0.0,0.0,0.0,0.0,0.0,0.0,0.0,0.0,0.0,0.0,0.0,0.0,0.0,0.0,0.0,0.0,0.0,0.0,0.0,0.0,0.0,0.0,0.0,0.0,0.0,0.0,0.0,0.0,0.0,0.0,0.0,0.0,0.0,0.0,0.0,0.0,0.0,0.0,0.0,0.0,0.0,0.0,0.0,0.0,0.0,0.0,0.0,0.0,0.0,0.0,0.0,0.0,0.0,0.0,0.0,0.0,0.0,0.0,0.0,0.0,0.0,0.0,0.0,0.0,0.0,0.0,0.0,0.0,0.0,0.0,0.0,0.0,0.0,0.0,0.0,0.0,0.0,0.0,0.0,0.0,0.0,0.0,0.0,0.0,0.0,0.0,0.0,0.0,0.0,0.0,0.0,0.0,0.0,0.0,0.0,0.0,0.0,0.0,0.0,0.0,0.0,0.0,0.0,0.0,0.0,0.0,0.0,0.0,0.0,0.0,0.0,0.0,0.0,0.0,0.0,0.0,0.0,0.0,0.0,0.0,0.0,0.0,0.0,0.0,0.0,0.0,0.0,0.0,0.0,0.0,0.0,0.0,0.0,0.0,0.0,0.0,0.0,0.0,0.0,0.0,0.0,0.0,0.0,0.0,0.0,0.0,0.0,0.0,0.0,0.0,0.0,0.0,0.0,0.0,0.0,0.0,0.0,0.0,0.0,0.0,0.0,0.0,0.0,0.0,0.0,0.0,0.0,0.0,0.0,0.0,0.0,0.0,0.0,0.0,0.0,0.0,0.0,0.0,0.0,0.0,0.0,0.0,0.0,0.0,0.0,0.0,0.0,0.0,0.0,0.0,0.0,0.0,0.0,0.0,0.0,0.0,0.0,0.0,0.0,0.0,0.0,0.0,0.0,0.0,0.0,0.0,0.0,0.0,0.0,0.0,0.0,0.0,0.0,0.0,0.0,0.0,0.0,0.0,0.0,0.0,0.0,0.0,0.0,0.0,0.0,0.0,0.0,0.0,0.0,0.0,0.0,0.0,0.0,0.0,0.0,0.0,0.0,0.0,0.0,0.0,0.0,0.0,0.0,0.0,0.0,0.0,0.0,0.0,0.0,0.0,0.0,0.0,0.0,0.0,0.0,0.0,0.0,0.0,0.0,0.0,0.0,0.0,0.0,0.0,0.0,0.0,0.0,0.0,0.0,0.0,0.0,0.0,0.0,0.0,0.0,0.0,0.0,0.0,0.0,0.0,0.0,0.0,0.0,0.0,0.0,0.0,0.0,0.0,0.0,0.0,0.0,0.0,0.0,0.0,0.0,0.0,0.0,0.0,0.0,0.0,0.0,0.0,0.0,0.0,0.0,0.0,0.0,0.0,0.0,0.0,0.0,0.0,0.0,0.0,0.0,0.0,0.0,0.0,0.0,0.0,0.0,0.0,0.0,0.0,0.0,0.0,0.0,0.0,0.0,0.0,0.0,0.0,0.0,0.0,0.0,0.0,0.0,0.0,0.0,0.0,0.0,0.0,0.0,0.0,0.0,0.0,0.0,0.0,0.0,0.0,0.0,0.0,0.0,0.0,0.0,0.0,0.0,0.0,0.0,0.0,0.0,0.0,0.0,0.0,0.0,0.0,0.0,0.0,0.0,0.0,0.0,0.0,0.0,0.0,0.0,0.0,0.0,0.0,0.0,0.0,0.0,0.0,0.0,0.0,0.0,0.0,0.0,0.0,0.0,0.0,0.0,0.0,0.0,0.0,0.0,0.0,0.0,0.0,0.0,0.0,0.0,0.0,0.0,0.0,0.0,0.0,0.0,0.0,0.0,0.0,0.0,0.0,0.0,0.0,0.0,0.0,0.0,0.0,0.0,0.0,0.0,0.0,0.0,0.0,0.0,0.0,0.0,0.0,0.0,0.0,0.0,0.0,0.0,0.0,0.0,0.0,0.0,0.0,0.0,0.0,0.0,0.0,0.0,0.0,0.0,0.0,0.0,0.0,0.0,0.0,0.0,0.0,0.0,0.0,0.0,0.0,0.0,0.0,0.0,0.0,0.0,0.0,0.0,0.0,0.0,0.0,0.0,0.0,0.0,0.0,0.0,0.0,0.0,0.0,0.0,0.0,0.0,0.0,0.0,0.0,0.0,0.0,0.0,0.0,0.0,0.0,0.0,0.0,0.0,0.0,0.0,0.0,0.0,0.0,0.0,0.0,0.0,0.0,0.0,0.0,0.0,0.0,0.0,0.0,0.0,0.0,0.0,0.0,0.0,0.0,0.0,0.0,0.0,0.0,0.0,0.0,0.0,0.0,0.0,0.0,0.0,0.0,0.0,0.0,0.0,0.0,0.0,0.0,0.0,0.0,0.0,0.0,0.0,0.0,0.0,0.0,0.0,0.0,0.0,0.0,0.0,0.0,0.0,0.0,0.0,0.0,0.0,0.0,0.0,0.0,0.0,0.0,0.0,0.0,0.0,0.0,0.0,0.0,0.0,0.0,0.0,0.0,0.0,0.0,0.0,0.0,0.0,0.0,0.0,0.0,0.0,0.0,0.0,0.0,0.0,0.0,0.0,0.0,0.0,0.0,0.0,0.0,0.0,0.0,0.0,0.0,0.0,0.0,0.0,0.0,0.0,0.0,0.0,0.0,0.0,0.0,0.0,0.0,0.0,0.0,0.0,0.0,0.0,0.0,0.0,0.0,0.0,0.0,0.0,0.0,0.0,0.0,0.0,0.0,0.0,0.0,0.0,0.0,0.0,0.0,0.0,0.0,0.0,0.0,0.0,0.0,0.0,0.0,0.0,0.0,0.0,0.0,0.0,0.0,0.0,0.0,0.0,0.0,0.0,0.0,0.0,0.0,0.0,0.0,0.0,0.0,0.0,0.0,0.0,0.0,0.0,0.0,0.0,0.0,0.0,0.0,0.0,0.0,0.0,0.0,0.0,0.0,0.0,0.0,0.0,0.0,0.0,0.0,0.0,0.0,0.0,0.0,0.0,0.0,0.0,0.0,0.0,0.0,0.0,0.0,0.0,0.0,0.0,0.0,0.0,0.0,0.0,0.0,0.0,0.0,0.0,0.0,0.0,0.0,0.0,0.0,0.0,0.0,0.0,0.0,0.0,0.0,0.0,0.0,0.0,0.0,0.0,0.0,0.0,0.0,0.0,0.0,0.0,0.0,0.0,0.0,0.0,0.0,0.0,0.0,0.0,0.0,0.0,0.0,0.0,0.0,0.0,0.0,0.0,0.0,0.0,0.0,0.0,0.0,0.0,0.0,0.0,0.0,0.0,0.0,0.0,0.0,0.0,0.0,0.0,0.0,0.0,0.0,0.0,0.0,0.0,0.0,0.0,0.0,0.0,0.0,0.0,0.0,0.0,0.0,0.0,0.0,0.0,0.0,0.0,0.0,0.0,0.0,0.0,0.0,0.0,0.0,0.0,0.0,0.0,0.0,0.0,0.0,0.0,0.0,0.0,0.0,0.0,0.0,0.0,0.0,0.0,0.0,0.0,0.0,0.0,0.0,0.0,0.0,0.0,0.0,0.0,0.0,0.0,0.0,0.0,0.0,0.0,0.0,0.0,0.0,0.0,0.0,0.0,0.0,0.0,0.0,0.0,0.0,0.0,0.0,0.0,0.0,0.0,0.0,0.0,0.0,0.0,0.0,0.0,0.0,0.0,0.0,0.0,0.0,0.0,0.0,0.0,0.0,0.0,0.0,0.0,0.0,0.0,0.0,0.0,0.0,0.0,0.0,0.0,0.0,0.0,0.0,0.0,0.0,0.0,0.0,0.0,0.0,0.0,0.0,0.0,0.0,0.0,0.0,0.0,0.0,0.0,0.0,0.0,0.0,0.0,0.0,0.0,0.0,0.0,0.0,0.0,0.0,0.0,0.0,0.0,0.0,0.0,0.0,0.0,0.0,0.0,0.0,0.0,0.0,0.0,0.0,0.0,0.0,0.0,0.0,0.0,0.0,0.0,0.0,0.0,0.0,0.0,0.0,0.0,0.0,0.0,0.0,0.0,0.0,0.0,0.0,0.0,0.0,0.0,0.0,0.0,0.0,0.0,0.0,0.0,0.0,0.0,0.0,0.0,0.0,0.0,0.0,0.0,0.0,0.0,-2.8339,-2.7446,0.0,0.0,0.0,0.0,0.0,0.0,0.0,0.0,0.0,0.0,0.0,0.0,0.0,0.0,0.0,0.0,0.0,0.0,0.0,0.0,0.0,0.0,0.0,0.0,0.0,0.0,-1.9768,-1.9834,-2.028,-2.0577,0.0,0.0,0.0,0.0,-2.0329,-2.0257,-2.0245,-2.0275,-2.0785,-2.1497,-2.2332,-2.2857,-2.2455,-2.1332,0.0,0.0,0.0,0.0,0.0,0.0,0.0,0.0,0.0,0.0,0.0,0.0,0.0,0.0,0.0,0.0,0.0,0.0,0.0,0.0,0.0,0.0,0.0,0.0,0.0,0.0,0.0,0.0,0.0,0.0,0.0,0.0,0.0,0.0,0.0,0.0,0.0,0.0,0.0,0.0,0.0,0.0,0.0,0.0,0.0,0.0,0.0,0.0,0.0,0.0,0.0,0.0,0.0,0.0,0.0,0.0,0.0,0.0,0.0,0.0,0.0,0.0,0.0,0.0,0.0,0.0,0.0,0.0,0.0,0.0,-2.9043,-2.8356,0.0,0.0,0.0,0.0,0.0,0.0,0.0,0.0,0.0,0.0,0.0,0.0,0.0,0.0,0.0,0.0,0.0,0.0,0.0,0.0,0.0,0.0,0.0,-1.7903,-1.8667,-1.9878,-1.9832,-1.9799,-1.9964,-2.0285,-2.0385,-2.0151,-2.0599,-2.0885,-2.0973,-2.0775,-2.0764,-2.1004,-2.1939,-2.3031,-2.4348,-2.482,-2.4044,-2.2197,-2.2089,0.0,0.0,0.0,0.0,0.0,0.0,0.0,0.0,0.0,0.0,0.0,0.0,0.0,0.0,0.0,0.0,0.0,0.0,0.0,0.0,0.0,0.0,0.0,0.0,0.0,0.0,0.0,0.0,0.0,0.0,0.0,0.0,0.0,0.0,0.0,0.0,0.0,0.0,0.0,0.0,0.0,0.0,0.0,0.0,0.0,0.0,0.0,0.0,0.0,0.0,0.0,0.0,0.0,0.0,0.0,0.0,0.0,0.0,0.0,0.0,0.0,0.0,0.0,-2.9818,-3.0056,-3.0521,-3.0435,-3.0762,-3.1374,-2.965,-2.9226,-2.9631,-2.7917,0.0,0.0,0.0,0.0,0.0,0.0,0.0,0.0,0.0,0.0,0.0,0.0,0.0,0.0,0.0,0.0,0.0,0.0,0.0,0.0,0.0,-1.7853,-1.8733,-2.0139,-2.0222,-2.0222,-2.0256,-2.032,-2.032,-2.029,-1.9959,-2.0003,-2.0409,-2.0481,-2.0685,-2.1005,-2.2657,-2.3962,-2.4886,-2.5154,-2.5018,-2.4533,-2.4058,-2.3399,-2.2581,0.0,0.0,0.0,0.0,0.0,0.0,0.0,0.0,0.0,0.0,0.0,0.0,0.0,0.0,0.0,0.0,0.0,0.0,0.0,0.0,0.0,0.0,0.0,0.0,0.0,0.0,0.0,0.0,0.0,0.0,0.0,0.0,0.0,0.0,0.0,0.0,0.0,0.0,0.0,0.0,0.0,-2.6115,-2.6747,0.0,0.0,0.0,0.0,0.0,0.0,0.0,0.0,0.0,0.0,0.0,0.0,0.0,-2.8369,-2.8006,-2.9643,-3.0517,-3.0581,-3.1412,-3.2051,-3.2488,-3.2083,-3.2212,-3.2617,-3.1945,0.0,-3.0066,-2.9091,0.0,0.0,0.0,0.0,0.0,0.0,0.0,0.0,0.0,0.0,0.0,0.0,0.0,0.0,0.0,0.0,0.0,0.0,0.0,0.0,0.0,-1.83,-1.9336,-2.0466,-2.0927,-2.0962,-2.0601,-2.07,-2.0612,-2.0144,-1.9742,-1.9812,-2.0331,-2.0516,-2.1409,-2.296,-2.4566,-2.5637,-2.6312,-2.6658,-2.6636,-2.6291,-2.6044,-2.5022,-2.3475,-2.3074,0.0,0.0,0.0,0.0,0.0,0.0,0.0,0.0,0.0,0.0,0.0,0.0,0.0,0.0,0.0,0.0,0.0,0.0,0.0,0.0,0.0,0.0,0.0,0.0,0.0,0.0,0.0,0.0,0.0,0.0,0.0,0.0,0.0,0.0,0.0,0.0,0.0,0.0,0.0,-2.5245,-2.5637,-2.5488,-2.5358,-2.4914,0.0,0.0,0.0,0.0,0.0,0.0,0.0,0.0,0.0,-2.7361,-2.8112,-2.871,-2.9024,-2.9974,-3.0648,-3.1166,-3.1626,-3.2016,-3.2282,-3.2434,-3.25,-3.2498,-3.2301,-3.178,-3.0927,-3.0102,-2.9024,-2.7773,0.0,0.0,0.0,0.0,-2.5176,-2.5039,0.0,0.0,0.0,0.0,0.0,0.0,0.0,0.0,0.0,0.0,0.0,0.0,-1.7643,-1.8809,-1.991,-2.0971,-2.1506,-2.1527,-2.094,-2.0989,-2.069,-1.9996,-1.9622,-1.9696,-2.0242,-2.085,-2.2306,-2.4639,-2.5868,-2.6722,-2.7091,-2.751,-2.7489,-2.7081,-2.722,-2.6343,-2.4657,-2.4271,-2.3531,-2.2468,0.0,0.0,0.0,0.0,0.0,0.0,0.0,0.0,0.0,0.0,0.0,0.0,0.0,0.0,0.0,0.0,0.0,0.0,0.0,0.0,0.0,0.0,0.0,0.0,0.0,0.0,0.0,0.0,0.0,0.0,0.0,0.0,0.0,0.0,0.0,0.0,0.0,-2.5103,-2.5259,-2.4741,-2.5214,-2.5142,0.0,0.0,0.0,0.0,0.0,0.0,-2.7475,-2.7266,-2.7457,-2.8228,-2.8778,-2.9422,-3.0214,-3.0449,-3.0953,-3.1558,-3.1625,-3.1694,-3.1787,-3.2201,-3.2201,-3.195,-3.195,-3.1701,-3.1354,-3.0627,-2.9715,-2.865,-2.7366,-2.6333,-2.5581,-2.57,-2.5706,-2.5815,0.0,0.0,0.0,0.0,0.0,0.0,0.0,0.0,0.0,0.0,0.0,-1.6835,-1.8305,-1.9259,-2.0323,-2.1628,-2.1789,-2.1618,-2.1205,-2.0793,-2.036,-1.9913,-1.9445,-1.9425,-1.9913,-2.1576,-2.3267,-2.5058,-2.5839,-2.6317,-2.6562,-2.6812,-2.6812,-2.6562,-2.7088,-2.7136,-2.6778,-2.5552,-2.485,-2.4343,-2.2165,0.0,0.0,0.0,0.0,0.0,0.0,0.0,0.0,0.0,0.0,0.0,0.0,0.0,0.0,0.0,0.0,0.0,0.0,0.0,0.0,0.0,0.0,0.0,0.0,0.0,0.0,0.0,0.0,0.0,0.0,0.0,0.0,0.0,0.0,0.0,0.0,0.0,0.0,-2.6115,-2.6668,0.0,0.0,0.0,0.0,-2.5715,-2.6134,-2.6959,-2.8297,-2.8099,-2.8625,-3.0183,-3.0432,-3.0691,-3.1023,-3.1466,-3.1707,-3.1757,-3.1815,-3.1767,-3.1787,-3.1498,-3.1383,-3.1325,-3.1005,-3.0869,-3.0839,-3.0528,-2.9605,-2.8326,-2.7569,-2.6765,-2.5955,-2.5817,-2.5812,-2.5829,0.0,0.0,0.0,0.0,0.0,0.0,0.0,0.0,-1.4376,-1.4579,-1.6357,-1.7896,-1.872,-2.0297,-2.159,-2.2386,-2.2846,-2.2824,-2.2277,-2.1441,-2.0896,-2.0725,-1.9361,-1.9448,-2.1145,-2.2616,-2.4073,-2.5544,-2.6138,-2.6441,-2.6496,-2.6592,-2.6592,-2.6496,-2.6688,-2.6944,-2.7132,-2.6393,-2.5807,-2.5281,-2.3821,-2.2565,0.0,0.0,0.0,0.0,0.0,0.0,0.0,0.0,0.0,0.0,0.0,0.0,0.0,0.0,0.0,0.0,0.0,0.0,0.0,0.0,0.0,0.0,0.0,0.0,0.0,0.0,0.0,0.0,0.0,0.0,0.0,0.0,0.0,0.0,0.0,0.0,0.0,-2.6169,-2.6695,0.0,-2.5576,-2.6025,-2.632,-2.6289,-2.7055,-2.7832,-2.8437,-2.8631,-2.8881,-2.9225,-2.9276,-2.9544,-2.9929,-3.0093,-3.0296,-3.0567,-3.0801,-3.0801,-3.0567,-3.084,-3.0791,-3.0392,-3.0499,-3.0441,-3.0177,-2.9862,-2.939,-2.8813,-2.8112,-2.7378,-2.6603,-2.6377,-2.6318,-2.6284,0.0,0.0,0.0,0.0,0.0,0.0,0.0,0.0,-1.4767,-1.5327,-1.7036,-1.8597,-1.9634,-2.1115,-2.2257,-2.2837,-2.3242,-2.3213,-2.2564,-2.1549,-2.0829,-2.049,-1.9414,-1.9918,-2.2229,-2.3299,-2.447,-2.5627,-2.5924,-2.6159,-2.6217,-2.6159,-2.6159,-2.6217,-2.6304,-2.6534,-2.6877,-2.6656,-2.6457,-2.6206,-2.5042,-2.3916,-2.2816,0.0,0.0,0.0,0.0,0.0,0.0,0.0,0.0,0.0,0.0,0.0,0.0,0.0,0.0,0.0,0.0,0.0,0.0,0.0,0.0,0.0,0.0,0.0,0.0,0.0,0.0,0.0,0.0,0.0,0.0,0.0,0.0,0.0,0.0,-2.5658,-2.6309,-2.5918,-2.6749,-2.701,-2.6104,-2.6647,-2.7151,-2.7271,-2.7905,-2.8526,-2.8944,-2.8984,-2.907,-2.9239,-2.9001,-2.9125,-2.9524,-2.9524,-2.9657,-2.9922,-3.0157,-3.0098,-2.9922,-3.0197,-3.0138,-2.9745,-2.9863,-2.9804,-2.9568,-2.9203,-2.8923,-2.8634,-2.8095,-2.752,-2.6847,-2.6436,-2.6445,-2.6625,0.0,0.0,0.0,0.0,0.0,0.0,0.0,-1.4771,-1.5409,-1.732,-1.7825,-1.8848,-2.0947,-2.1621,-2.2236,-2.3023,-2.2925,-2.2534,-2.1963,-2.1108,-2.0154,-1.9083,-1.9649,-2.0932,-2.2974,-2.3658,-2.443,-2.5284,-2.5284,-2.544,-2.5684,-2.544,-2.544,-2.5693,-2.5955,-2.6091,-2.61,-2.6342,-2.6767,-2.714,-2.5708,-2.4914,-2.437,0.0,0.0,0.0,0.0,0.0,0.0,0.0,0.0,0.0,0.0,0.0,0.0,0.0,0.0,0.0,0.0,0.0,0.0,0.0,0.0,0.0,0.0,0.0,0.0,0.0,0.0,0.0,0.0,0.0,0.0,0.0,0.0,0.0,-2.4346,-2.5247,-2.5855,-2.5601,-2.7009,-2.7831,-2.7453,-2.8152,-2.8578,-2.8578,-2.8587,-2.8936,-2.9806,-2.9175,-2.9325,-3.043,-2.9824,-2.9568,-2.9882,-2.9872,-2.9872,-2.9882,-2.9872,-2.9872,-2.9882,-2.9568,-2.9459,-2.9459,-2.9103,-2.8984,-2.8925,-2.8636,-2.8214,-2.78,-2.7461,-2.7065,-2.6621,-2.5967,-2.6146,-2.6725,0.0,0.0,0.0,0.0,0.0,0.0,-1.5039,-1.5149,-1.5604,-1.6667,-1.775,-1.9043,-2.0576,-2.1699,-2.2559,-2.3052,-2.3047,-2.2746,-2.2171,-2.1303,-2.0616,-2.0193,-2.1029,-2.2133,-2.3473,-2.3777,-2.4401,-2.5284,-2.5284,-2.544,-2.5684,-2.544,-2.5333,-2.543,-2.5479,-2.5616,-2.5849,-2.61,-2.6426,-2.6683,-2.6279,-2.5878,-2.5434,0.0,0.0,0.0,0.0,0.0,0.0,0.0,0.0,0.0,0.0,0.0,0.0,0.0,0.0,0.0,0.0,0.0,0.0,0.0,0.0,0.0,0.0,0.0,0.0,0.0,0.0,0.0,0.0,0.0,0.0,0.0,-2.39,-2.4568,-2.4707,-2.5771,-2.6745,-2.7236,-2.7708,-2.8002,-2.7977,-2.8155,-2.8229,-2.8049,-2.8279,-2.8556,-2.8778,-2.8669,-2.8861,-2.937,-2.8732,-2.8814,-2.9647,-2.9131,-2.9011,-2.9294,-2.9011,-2.9021,-2.9285,-2.8685,-2.8712,-2.9155,-2.8565,-2.8259,-2.8259,-2.7891,-2.7423,-2.6896,-2.7026,-2.6862,-2.6443,-2.6004,-2.5803,-2.5724,0.0,0.0,0.0,0.0,0.0,0.0,-1.5567,-1.5451,-1.5785,-1.7244,-1.8012,-1.9134,-2.0957,-2.1631,-2.2217,-2.2779,-2.2586,-2.2184,-2.1583,-2.0825,-2.0644,-2.1198,-2.1802,-2.2653,-2.3787,-2.4018,-2.4393,-2.4981,-2.4981,-2.5088,-2.5333,-2.5079,-2.5183,-2.5593,-2.537,-2.5576,-2.5977,-2.5937,-2.611,-2.6342,-2.6529,-2.6459,-2.6323,-2.6175,-2.5705,-2.4904,-2.3837,-2.3655,-2.3665,-2.2237,0.0,0.0,0.0,0.0,0.0,0.0,0.0,0.0,0.0,0.0,0.0,0.0,0.0,0.0,0.0,0.0,0.0,0.0,0.0,0.0,0.0,0.0,0.0,0.0,-2.4779,-2.5371,-2.5433,-2.6342,-2.7193,-2.7837,-2.8071,-2.8285,-2.8522,-2.8394,-2.8336,-2.8269,-2.8264,-2.8355,-2.8706,-2.8583,-2.8639,-2.8802,-2.8449,-2.8476,-2.8962,-2.8496,-2.8385,-2.8669,-2.8376,-2.8474,-2.885,-2.8257,-2.8302,-2.8841,-2.8128,-2.7771,-2.7771,-2.7289,-2.6919,-2.6534,0.0,0.0,0.0,0.0,-2.531,-2.4961,0.0,0.0,0.0,0.0,0.0,0.0,-1.62,-1.5749,-1.614,-1.8448,-1.8472,-1.9205,-2.1655,-2.1546,-2.1613,-2.2484,-2.1952,-2.1358,-2.0791,-2.0294,-2.0678,-2.2197,-2.2328,-2.2888,-2.4027,-2.4401,-2.4538,-2.4538,-2.4538,-2.4705,-2.4958,-2.4702,-2.5048,-2.5858,-2.5572,-2.5768,-2.6308,-2.5927,-2.5898,-2.6161,-2.6537,-2.6791,-2.6959,-2.7471,-2.7411,-2.6871,-2.5735,-2.539,-2.5221,-2.3794,0.0,0.0,0.0,0.0,0.0,0.0,0.0,0.0,0.0,0.0,0.0,0.0,0.0,0.0,0.0,0.0,0.0,0.0,0.0,0.0,0.0,0.0,0.0,0.0,-2.5654,-2.6389,-2.6282,-2.6774,-2.7331,-2.7735,-2.8159,-2.8553,-2.8888,-2.8696,-2.8636,-2.8865,-2.8379,-2.836,-2.8952,-2.8718,0.0,0.0,0.0,-2.8323,-2.8082,-2.7977,-2.7977,-2.8022,-2.7977,-2.8163,-2.8552,-2.8085,-2.812,-2.8482,-2.7696,-2.7401,-2.728,-2.6744,-2.6449,-2.6355,-2.6097,-2.5644,-2.5109,-2.5009,-2.4737,-2.4392,0.0,0.0,0.0,0.0,0.0,0.0,-1.6559,-1.664,-1.7265,-1.8947,-1.8875,-1.9555,-2.1807,-2.183,-2.1969,-2.2685,-2.2494,-2.2192,-2.1816,-2.1916,-2.2381,-2.3352,-2.3683,-2.4231,-2.5004,-2.4894,-2.4833,-2.4833,-2.4833,-2.5003,-2.5374,-2.5114,-2.511,-2.5305,-2.5812,-2.5895,-2.5767,-2.614,-2.6309,-2.6359,-2.6675,-2.685,-2.6982,-2.7795,-2.7932,-2.762,-2.7045,-2.7103,-2.7149,-2.5813,-2.5516,-2.5606,-2.4828,-2.4052,0.0,0.0,0.0,0.0,0.0,0.0,0.0,0.0,0.0,0.0,0.0,0.0,0.0,0.0,0.0,0.0,0.0,0.0,0.0,-2.5223,-2.5654,-2.6122,-2.6624,-2.6902,-2.7248,-2.7835,-2.8159,-2.8436,-2.86,-2.8746,-2.8687,-2.8199,-2.8328,-2.8364,-2.8246,-2.8193,-2.8158,-2.8144,-2.7878,-2.8009,-2.8481,-2.792,-2.7747,-2.8062,-2.7739,0.0,-2.8167,-2.7548,-2.7513,-2.785,-2.7097,-2.6623,-2.6311,-2.597,-2.548,-2.5026,-2.5818,-2.5987,-2.5828,-2.524,-2.4795,-2.4468,0.0,0.0,0.0,0.0,0.0,0.0,-1.6901,-1.6867,-1.7248,-1.8606,-1.8751,-1.9325,-2.1036,-2.0839,-2.082,-2.1379,-2.1287,-2.1392,-2.19,-2.2427,-2.3142,-2.4173,-2.4402,-2.4765,-2.5284,-2.483,-2.4684,-2.4883,-2.4577,-2.4695,-2.5286,-2.5194,-2.5348,-2.5656,-2.6189,-2.626,-2.6037,-2.6642,-2.6595,-2.6103,-2.6804,-2.6942,-2.6769,-2.7586,-2.7979,-2.7976,-2.75,-2.7541,-2.7748,-2.661,-2.6329,-2.626,-2.5573,-2.5032,-2.4524,0.0,0.0,0.0,0.0,0.0,0.0,0.0,0.0,0.0,0.0,0.0,0.0,0.0,0.0,-2.2982,-2.3502,0.0,-2.5271,-2.6078,-2.643,-2.6702,-2.6911,-2.7257,-2.7546,-2.7637,-2.7975,-2.8313,-2.8537,-2.8385,-2.828,-2.8303,-2.7963,-2.7788,-2.7771,-2.7835,-2.7756,-2.7565,-2.7599,-2.7702,-2.7826,-2.7453,-2.7332,-2.7338,-2.7141,-2.7244,-2.755,-2.693,-2.6895,-2.7356,-2.6302,-2.5778,-2.5533,-2.5042,-2.4672,-2.4417,-2.4903,-2.4984,-2.4785,-2.4272,-2.3959,-2.3748,0.0,0.0,0.0,0.0,0.0,0.0,0.0,-1.7119,-1.7247,-1.8371,-1.8613,-1.9102,-2.0167,-1.9806,-1.9661,-2.0113,-2.0358,-2.0996,-2.2091,-2.2941,-2.3895,-2.5022,-2.5062,-2.5189,-2.5518,-2.4919,-2.4756,-2.5079,-2.4334,-2.4452,-2.5297,-2.5282,-2.5618,-2.6356,-2.6753,-2.6817,-2.66,-2.7189,-2.6852,-2.6035,-2.6932,-2.6953,-2.6488,-2.7181,-2.7684,-2.7949,-2.7565,-2.7448,-2.7427,-2.6832,-2.6501,-2.6216,-2.5668,-2.5668,-2.5575,-2.4033,-2.3981,0.0,0.0,0.0,0.0,0.0,0.0,0.0,0.0,-2.2155,-2.2514,-2.2684,-2.3372,-2.4208,-2.4979,-2.5514,-2.6091,-2.6763,-2.7202,-2.7368,-2.7151,-2.7547,-2.7725,-2.7366,-2.7714,-2.8119,-2.8465,-2.7947,-2.7808,-2.8289,-2.7531,-2.7125,-2.722,-2.7337,-2.7257,-2.7021,-2.7301,-2.738,-2.7081,-2.7073,-2.6952,-2.6571,-2.6571,-2.673,-2.6893,-2.6338,-2.6302,-2.6637,-2.5416,-2.4857,-2.4795,-2.4232,-2.3922,-2.3798,-2.3798,-2.3587,-2.321,-2.315,-2.3021,-2.2841,0.0,0.0,0.0,0.0,0.0,0.0,0.0,0.0,-1.8449,-1.9186,-1.9134,-1.9362,-2.0205,-1.9975,-1.9881,-2.0247,-2.1807,-2.295,-2.3463,-2.4561,-2.5528,-2.628,-2.6282,-2.6302,-2.6352,-2.5864,-2.5617,-2.5596,-2.4742,-2.4939,-2.6096,-2.5667,-2.5922,-2.6759,-2.7714,-2.7752,-2.723,-2.7343,-2.7197,-2.6846,-2.6843,-2.6586,-2.6207,-2.6749,-2.7136,-2.7448,-2.7748,-2.7096,-2.6154,-2.6511,-2.6041,-2.5458,-2.6196,-2.6175,-2.5761,-2.5171,-2.4509,-2.3691,-2.2469,-2.1899,-2.1928,-2.2998,-2.2767,-2.279,0.0,-2.4506,-2.4037,-2.5135,-2.5829,-2.618,-2.6019,-2.662,-2.7123,-2.6929,-2.7021,-2.7142,-2.7125,-2.7133,-2.7177,-2.7134,-2.7642,-2.805,-2.814,-2.8008,-2.7756,-2.7286,-2.7165,-2.6822,-2.6319,-2.6545,-2.6702,-2.6648,-2.6994,-2.7142,-2.7081,-2.7073,-2.6952,-2.6571,-2.6571,-2.6466,-2.6194,-2.6153,-2.5794,-2.529,-2.4564,-2.4046,-2.3736,-2.3673,-2.33,-2.2793,-2.2793,-2.235,-2.1916,-2.2784,-2.2697,-2.218,0.0,0.0,0.0,0.0,0.0,0.0,0.0,0.0,0.0,-1.892,-1.8925,-1.9136,-1.9694,-1.9771,-1.9769,-1.9782,-2.1407,-2.2805,-2.3655,-2.5105,-2.6197,-2.6877,-2.6822,-2.6726,-2.6726,-2.6411,-2.621,-2.6149,-2.5628,-2.5888,-2.688,-2.6695,-2.6948,-2.7614,-2.8414,-2.8331,-2.7665,-2.8396,-2.8085,-2.7152,-2.7502,-2.7208,-2.6592,-2.6794,-2.6753,-2.6444,-2.6382,-2.6144,0.0,-2.5813,-2.5357,-2.4941,-2.5885,-2.5547,-2.4717,-2.4498,-2.4178,-2.3805,-2.3473,-2.3026,-2.2819,-2.3365,-2.3717,-2.4057,-2.4851,-2.4761,-2.469,-2.5472,-2.6017,-2.6271,-2.6273,-2.6898,-2.7346,-2.703,-2.7194,-2.7297,-2.7133,-2.7073,-2.7073,-2.7073,-2.7315,-2.7514,-2.7525,-2.747,-2.734,-2.7109,-2.7104,-2.6952,-2.67,-2.6783,-2.68,-2.664,-2.673,-2.673,-2.651,-2.651,-2.6327,-2.6031,-2.6031,-2.597,-2.5786,-2.541,-2.4849,-2.4232,-2.3922,-2.3611,-2.3293,-2.3106,-2.2856,-2.2613,-2.2362,-2.2027,-2.168,-2.2313,-2.2219,-2.1807,0.0,0.0,0.0,0.0,0.0,0.0,0.0,0.0,0.0,0.0,-1.8995,-1.9217,-1.9515,-1.9799,-1.9876,-1.9563,-2.1224,-2.2818,-2.4018,-2.5509,-2.678,-2.7709,-2.7515,-2.7373,-2.7289,-2.7109,-2.7027,-2.7005,-2.6681,-2.7038,-2.7924,-2.7753,-2.7953,-2.8503,-2.9033,-2.8884,-2.8278,-2.891,-2.8523,-2.7411,-2.7832,-2.7613,-2.7006,-2.7119,-2.6713,-2.5979,-2.5578,-2.5339,-2.5132,-2.4821,-2.4364,-2.4053,-2.4747,-2.4364,-2.3691,-2.3691,-2.3557,-2.3392,-2.3664,-2.3483,-2.3274,-2.3585,-2.4343,-2.4946,-2.4707,-2.489,-2.5273,-2.566,-2.6082,-2.6464,-2.6514,-2.7023,-2.7344,-2.7151,-2.7237,-2.7297,-2.7004,-2.6952,-2.6952,-2.683,-2.6891,-2.6871,-2.671,-2.6954,-2.7032,-2.686,-2.682,-2.6749,-2.6587,-2.6527,-2.6457,-2.6336,-2.6427,-2.6408,-2.6224,-2.6323,-2.6195,-2.5894,-2.5797,-2.5687,-2.5563,-2.4842,-2.417,-2.3604,-2.3425,-2.3175,-2.2926,-2.2606,-2.2425,-2.2292,-2.1985,-2.156,-2.124,-2.1352,-2.1403,-2.13,0.0,0.0,0.0,0.0,0.0,0.0,0.0,0.0,0.0,0.0,0.0,0.0,0.0,-2.0342,-2.0473,-1.9927,-2.1857,-2.3638,-2.4982,-2.6213,-2.7513,-2.8969,-2.8781,-2.8549,-2.8348,-2.8348,-2.8316,-2.8271,-2.783,-2.8216,-2.9228,-2.8562,-2.8737,-2.9533,-2.9606,-2.9375,-2.9041,-2.8493,-2.8066,-2.7754,-2.7678,-2.7482,-2.7314,-2.7738,-2.7207,-2.6256,-2.6211,-2.494,-2.3307,-2.3499,-2.3095,-2.2563,-2.2594,-2.2884,-2.3205,-2.3205,-2.2614,-2.206,-2.2442,-2.2542,-2.2779,-2.3734,-2.4361,-2.4881,-2.5448,-2.5656,-2.588,-2.63,-2.6857,-2.7176,-2.684,-2.7175,-2.7392,-2.7125,-2.7133,-2.7012,-2.6631,-2.6631,-2.651,-2.6197,-2.6449,-2.6336,-2.5688,-2.6545,-2.6869,-2.6254,-2.6167,-2.5826,-2.5189,-2.5173,-2.5296,-2.561,-2.5926,-2.6284,-2.6603,-2.6895,-2.6878,-2.6551,-2.6267,-2.5917,-2.5549,-2.4572,-2.3922,-2.3542,-2.2918,-2.2606,-2.2606,-2.2237,-2.1922,-2.1607,-2.1235,-2.0754,-2.0198,-1.9867,-2.0178,-2.0635,0.0,0.0,0.0,0.0,0.0,0.0,0.0,0.0,0.0,0.0,0.0,0.0,0.0,0.0,0.0,0.0,-2.2212,-2.3384,-2.4565,-2.6137,-2.7513,-2.8499,-2.8991,-2.9117,-2.885,-2.9016,-2.8819,-2.8385,-2.8545,-2.8818,-2.9179,-2.8775,-2.8979,-2.969,-2.9854,-2.9721,-2.9326,-2.9417,-2.9061,-2.8387,-2.8327,-2.8088,-2.7752,-2.7557,-2.6876,-2.5942,0.0,-2.3995,-2.2822,-2.213,-2.1855,-2.1782,-2.198,-2.1725,-2.1352,-2.1352,-2.166,-2.2169,-2.2754,-2.3441,-2.4036,-2.4397,-2.4967,-2.554,-2.5707,-2.5942,-2.6194,-2.6225,-2.6354,-2.6412,-2.606,-2.6364,-2.6663,-2.6555,-2.6679,-2.6822,-2.6943,-2.6571,-2.638,-2.67,-2.67,-2.651,-2.6275,-2.6566,-2.6519,-2.585,-2.6019,-2.6015,-2.5778,-2.577,-2.5717,-2.561,-2.5716,-2.5832,-2.5941,-2.6062,-2.6175,-2.6336,-2.5961,-2.5342,-2.4611,-2.4048,-2.3436,-2.2926,-2.248,-2.2299,-2.223,-2.1922,-2.1544,-2.1235,-2.0919,-2.0426,-1.9835,-1.9519,-1.9463,-1.9529,0.0,0.0,0.0,0.0,0.0,0.0,0.0,0.0,0.0,0.0,0.0,0.0,0.0,0.0,0.0,0.0,0.0,-2.3367,-2.4331,-2.5756,-2.699,-2.7893,-2.8516,-2.8786,-2.8477,-2.8768,-2.8764,-2.8472,-2.905,-2.942,-2.9584,-2.9401,-2.9591,-3.0003,-3.008,-2.9985,-2.9807,-2.9785,-2.9313,-2.8657,-2.8157,-2.7725,-2.7291,-2.6743,-2.6094,0.0,-2.3977,-2.3009,-2.2239,-2.1266,-2.102,-2.112,-2.0943,-2.0684,-2.0457,-2.0788,-2.1548,-2.2433,-2.3315,-2.4063,-2.4643,-2.488,-2.5448,-2.5884,-2.5601,-2.5828,-2.5989,-2.5765,-2.5541,-2.5316,-2.5091,-2.5456,-2.5725,-2.5578,-2.6021,-2.6355,-2.6483,-2.6173,-2.6117,-2.6684,-2.6457,-2.6214,-2.6214,-2.6214,-2.6031,-2.561,-2.5953,-2.6039,-2.5786,-2.5831,-2.585,-2.5611,-2.5732,-2.584,-2.6001,-2.6009,-2.5993,-2.5959,-2.5569,-2.4933,-2.4105,-2.3659,-2.3104,-2.2543,-2.2111,-2.1922,-2.1859,-2.1425,-2.1109,-2.0862,-2.0412,-1.9859,-1.9337,-1.9032,-1.868,-1.8428,0.0,0.0,0.0,0.0,0.0,0.0,0.0,0.0,0.0,0.0,0.0,0.0,0.0,0.0,0.0,0.0,0.0,0.0,-2.4318,-2.5183,-2.6119,-2.7123,-2.7556,-2.7701,-2.7452,-2.7904,-2.8264,-2.8545,-2.9251,-2.9873,-3.0337,-3.0348,-3.0356,-3.0334,-3.0099,-3.0128,-3.0277,-2.9391,-2.886,-2.8482,-2.7139,-2.6417,-2.6163,-2.5392,-2.506,-2.4738,-2.306,-2.2174,-2.1656,-2.0844,-2.0626,-2.0554,-1.9682,-1.9913,-2.0643,-2.1563,-2.2167,-2.2823,-2.4055,-2.4439,-2.4594,-2.5131,-2.563,-2.5846,-2.5273,-2.5251,-2.5338,-2.5032,-2.4473,-2.407,-2.4053,-2.4438,-2.4641,-2.429,-2.515,-2.5794,-2.5519,-2.5527,-2.5635,-2.6095,-2.5778,-2.561,-2.561,-2.561,-2.561,-2.561,-2.5912,-2.5873,-2.5175,-2.5461,-2.5581,-2.5604,-2.5977,-2.6367,-2.6644,-2.6644,-2.6291,-2.5517,-2.5255,-2.4732,-2.4041,-2.3341,-2.2906,-2.2487,-2.1859,-2.1544,-2.1481,-2.0862,-2.0545,-2.0482,-1.9839,-1.9163,-1.8617,-1.8297,-1.782,-1.7391,0.0,0.0,0.0,0.0,0.0,0.0,0.0,0.0,0.0,0.0,0.0,0.0,0.0,0.0,0.0,0.0,0.0,0.0,-2.3684,-2.4642,-2.5573,-2.6478,-2.7404,-2.7932,-2.8075,-2.8177,-2.8145,-2.7929,-2.8113,-2.8214,-2.8172,-2.8375,-2.8323,-2.7994,-2.8521,-2.8489,-2.8033,-2.7789,-2.7635,-2.7525,-2.6636,-2.6483,-2.6626,-2.5774,-2.5526,-2.5441,-2.3748,-2.2929,-2.2388,-2.0719,-2.0533,-2.1032,-2.1146,-2.1195,-2.1377,-2.2276,-2.2836,-2.3338,-2.4004,-2.4756,-2.5305,-2.508,-2.554,-2.5928,-2.5465,-2.5466,-2.5365,-2.4715,-2.4047,-2.3509,-2.3176,-2.3782,-2.4338,-2.4475,-2.5315,-2.6169,-2.6619,-2.6015,-2.5802,-2.638,-2.597,-2.5725,-2.5961,-2.5725,-2.561,-2.561,-2.5464,-2.5413,-2.55,-2.5525,-2.5755,-2.6073,-2.6168,-2.6135,-2.598,-2.5722,-2.5344,-2.4864,-2.476,-2.425,-2.3341,-2.2893,-2.2405,-2.1859,-2.1425,-2.1109,-2.0856,-2.0672,-2.0164,-1.9462,-1.9264,-1.8655,-1.7857,-1.7788,-1.757,-1.732,0.0,0.0,0.0,0.0,0.0,0.0,0.0,0.0,0.0,0.0,0.0,0.0,0.0,0.0,0.0,0.0,0.0,0.0,0.0,-2.4544,-2.5222,-2.5982,-2.6759,-2.7163,-2.7255,-2.7255,-2.7262,-2.7272,-2.753,-2.7702,-2.7857,-2.8289,-2.8245,-2.7759,-2.8138,-2.8017,-2.749,-2.7169,-2.6954,0.0,0.0,-2.6065,-2.6035,-2.5483,-2.5303,-2.522,-2.3737,-2.3005,-2.2601,-2.1792,-2.1653,-2.1942,-2.2647,-2.2708,-2.2694,-2.3472,-2.3914,-2.4237,-2.4594,-2.5204,-2.571,-2.5404,-2.5749,-2.598,-2.5381,-2.5021,-2.4627,-2.3853,-2.2925,-2.218,-2.1795,-2.2652,-2.3453,-2.3453,-2.4629,-2.5788,-2.6465,-2.5874,-2.5667,-2.6493,-2.5908,-2.5541,-2.5839,-2.5602,-2.5357,-2.5357,-2.5316,-2.5429,-2.5565,-2.5778,-2.5953,-2.6165,-2.6038,-2.5696,-2.5236,-2.5054,-2.4732,-2.4389,-2.4078,-2.3652,-2.3085,-2.2445,-2.1965,-2.1544,-2.1109,-2.0799,-2.0609,-2.0284,-1.9711,-1.9078,-1.895,-1.8343,-1.7515,-1.7382,-1.7298,-1.7204,0.0,0.0,0.0,0.0,0.0,0.0,0.0,0.0,0.0,0.0,0.0,0.0,0.0,0.0,0.0,0.0,0.0,0.0,0.0,0.0,-2.5232,-2.5753,-2.6045,-2.6089,-2.6002,-2.598,-2.6202,-2.6647,-2.716,-2.7647,-2.8077,-2.8744,-2.8716,-2.8157,-2.8035,-2.7823,-2.7511,-2.6769,-2.6395,-2.6237,-2.584,-2.5402,-2.4982,0.0,-2.4802,-2.4697,-2.3601,-2.2929,-2.2658,-2.3509,-2.3452,-2.3205,-2.4147,-2.4242,-2.4185,-2.4754,-2.4992,-2.5145,-2.5337,-2.5596,-2.5822,-2.5772,-2.5936,-2.5871,-2.5144,-2.4295,-2.348,-2.2743,-2.1686,-2.0732,-2.0337,-2.1461,-2.2388,-2.2175,-2.3699,-2.5112,-2.5827,-2.5441,-2.5479,-2.6355,-2.5656,-2.5234,-2.5488,-2.5296,-2.5111,-2.5111,-2.5327,-2.5541,-2.5699,-2.5985,-2.6133,-2.6125,-2.5758,-2.5296,-2.4624,-2.4475,-2.4302,-2.3918,-2.3228,-2.2963,-2.2893,-2.2004,-2.1605,-2.1481,-2.0856,-2.0545,-2.0482,-1.9833,-1.9322,-1.8944,-1.8629,-1.805,-1.74,-1.7136,-1.7001,-1.7001,0.0,0.0,0.0,0.0,0.0,0.0,0.0,0.0,0.0,0.0,-2.6199,-2.5665,0.0,0.0,0.0,0.0,0.0,0.0,0.0,0.0,0.0,-2.6726,-2.6252,-2.6144,-2.6543,-2.6452,-2.6342,-2.628,-2.6396,-2.6425,-2.6333,-2.6895,-2.6711,-2.5876,-2.6306,-2.6172,-2.5607,-2.5122,-2.5021,-2.515,-2.4967,-2.4698,-2.4435,-2.4464,0.0,0.0,-2.4471,-2.3807,-2.3423,-2.4714,-2.4745,-2.4386,-2.5332,-2.531,-2.5073,-2.5496,-2.5371,-2.5112,-2.5134,-2.5295,-2.534,-2.5144,-2.5189,-2.5135,-2.4485,-2.3794,-2.2913,-2.1869,-2.1091,-2.0564,-2.0218,-2.0945,-2.1893,-2.2783,-2.3988,-2.5097,-2.5856,-2.5942,-2.5887,-2.5778,-2.5357,-2.5111,-2.5173,-2.5111,-2.5111,-2.5111,-2.4912,-2.5133,-2.6025,-2.5864,-2.5804,-2.6098,-2.552,-2.499,-2.458,-2.4043,-2.3452,-2.288,-2.2749,-2.2363,-2.1872,-2.169,-2.1472,-2.1172,-2.0799,-2.0418,-2.017,-1.9775,-1.9066,-1.8168,-1.8103,-1.7717,-1.7071,-1.7007,-1.7001,-1.7001,0.0,0.0,0.0,0.0,0.0,0.0,0.0,-2.667,-2.6998,-2.7542,-2.7577,-2.7452,-2.7112,-2.6836,-2.6831,0.0,0.0,0.0,0.0,0.0,0.0,0.0,0.0,0.0,-2.7331,-2.7519,-2.7601,-2.7508,0.0,-2.7427,-2.7046,-2.7656,-2.7421,-2.6445,-2.6504,-2.621,-2.5679,-2.4965,-2.4738,-2.4897,-2.5243,-2.531,-2.5237,0.0,0.0,0.0,-2.4563,-2.4065,-2.386,-2.4416,-2.464,-2.4866,-2.6111,-2.6293,-2.6059,-2.5855,-2.5804,-2.5795,-2.579,-2.5768,-2.5695,-2.5585,-2.5423,-2.5002,-2.4073,-2.3172,-2.2321,-2.1554,-2.0828,-2.027,-2.0131,-2.079,-2.1605,-2.2206,-2.3277,-2.4348,-2.5344,-2.5392,-2.5384,-2.5586,-2.5296,-2.5111,-2.5111,-2.5111,-2.5111,-2.5111,-2.4919,-2.5077,-2.5596,-2.545,-2.5411,-2.5597,-2.495,-2.442,-2.4087,-2.3571,-2.3078,-2.2606,-2.2418,-2.2111,-2.1607,-2.1235,-2.0982,-2.0792,-2.0284,-1.9903,-1.9526,-1.9206,-1.8559,-1.7717,-1.7717,-1.7459,-1.7007,-1.6818,-1.6877,-1.6936,0.0,0.0,0.0,0.0,0.0,0.0,0.0,-2.6844,-2.7343,-2.8349,-2.9172,-2.9549,-2.9269,-2.8344,-2.8126,0.0,0.0,0.0,0.0,0.0,0.0,0.0,0.0,0.0,-2.8018,0.0,0.0,-2.8654,-2.8758,0.0,0.0,0.0,0.0,0.0,-2.7077,-2.6613,-2.6142,-2.5254,-2.4825,0.0,0.0,-2.5861,-2.59,0.0,0.0,0.0,0.0,-2.4287,-2.4097,-2.4023,-2.4246,-2.4788,-2.6007,-2.647,-2.6423,-2.5868,-2.5956,-2.6235,-2.6438,-2.6268,-2.6077,-2.6153,-2.5755,-2.5043,-2.3804,-2.2782,-2.1925,-2.1445,-2.0695,-2.0175,-2.0175,-2.0706,-2.1258,-2.1566,-2.242,-2.3442,-2.4647,-2.4596,-2.4719,-2.5423,-2.5232,-2.5024,-2.5103,-2.5111,-2.5111,-2.5111,-2.498,-2.4944,-2.4983,-2.513,-2.5165,-2.4966,-2.4451,-2.4027,-2.3698,-2.3449,-2.3056,-2.2606,-2.23,-2.1985,-2.1607,-2.0926,-2.0609,-2.0545,-1.9839,-1.9322,-1.9078,-1.8629,-1.8115,-1.747,-1.7405,-1.7201,-1.6942,-1.6629,-1.6688,-1.6936,0.0,0.0,0.0,0.0,0.0,0.0,0.0,-2.7615,-2.8488,-2.9216,-3.0594,-3.1488,-3.1357,-3.0268,-2.9261,0.0,0.0,0.0,0.0,0.0,0.0,0.0,0.0,0.0,0.0,0.0,0.0,-2.8411,-2.862,0.0,0.0,0.0,0.0,0.0,0.0,-2.6542,-2.6142,-2.5385,0.0,0.0,0.0,0.0,0.0,0.0,0.0,0.0,0.0,-2.4836,-2.4156,-2.4584,-2.4306,-2.387,-2.4312,-2.4877,-2.5376,-2.5503,-2.5401,-2.5446,-2.6478,-2.6396,-2.6021,-2.618,-2.5684,-2.4935,-2.3739,-2.2867,-2.2062,-2.1284,-2.0709,-2.0386,-2.0386,-2.0409,-2.0653,-2.1482,-2.1929,-2.2642,-2.3926,-2.4072,-2.4335,-2.5053,-2.4825,-2.4754,-2.5079,-2.5111,-2.5111,-2.5111,-2.4548,-2.4323,-2.4596,-2.5195,-2.5304,-2.4701,-2.4606,-2.4364,-2.4042,-2.4005,-2.3499,-2.2613,-2.2589,-2.2193,-2.1607,-2.0926,-2.0609,-2.0545,-1.9584,-1.9142,-1.9078,-1.8361,-1.7846,-1.747,-1.7136,-1.7001,-1.6942,-1.6629,-1.6688,-1.7001,0.0,0.0,0.0,0.0,0.0,0.0,-2.7385,-2.8099,-2.9016,-3.0433,-3.1768,-3.2687,-3.2977,-3.227,-3.1509,-3.0869,0.0,0.0,0.0,0.0,0.0,0.0,0.0,0.0,0.0,0.0,-3.0574,-3.0641,-3.0279,0.0,0.0,0.0,0.0,0.0,0.0,-2.7307,-2.678,-2.5801,0.0,0.0,0.0,0.0,0.0,0.0,0.0,0.0,0.0,0.0,-2.4029,-2.3985,-2.3777,-2.3436,-2.3065,-2.3411,-2.4074,-2.4658,-2.4977,-2.5357,-2.6576,-2.6657,-2.6448,-2.6768,-2.61,-2.508,-2.4052,-2.2954,-2.2022,-2.1389,-2.0818,-2.0457,-2.0562,-2.0605,-2.0802,-2.1204,-2.1595,-2.216,-2.2998,-2.3255,-2.3646,-2.4432,-2.4539,-2.4722,-2.5071,-2.5111,-2.5042,-2.4795,-2.4355,-2.4045,-2.3986,-2.4247,-2.4403,-2.4269,-2.4276,-2.4123,-2.3793,-2.3793,-2.3305,-2.2299,-2.23,-2.185,-2.0982,-2.0482,-2.0164,-1.996,-1.9328,-1.888,-1.8425,-1.8103,-1.7647,-1.7201,-1.7071,-1.7001,-1.6942,-1.6629,-1.6688,-1.692,0.0,0.0,0.0,0.0,0.0,-2.6536,-2.7868,-2.8416,-2.9352,-3.1223,-3.235,-3.3234,-3.3846,-3.3521,-3.3135,-3.288,-3.2134,0.0,0.0,0.0,0.0,0.0,0.0,0.0,0.0,0.0,-3.1875,-3.213,-3.1487,-3.1178,0.0,0.0,-3.0133,-2.9323,0.0,0.0,0.0,0.0,0.0,0.0,0.0,0.0,0.0,0.0,0.0,0.0,0.0,0.0,0.0,0.0,0.0,-2.3426,-2.2486,-2.2513,-2.3069,-2.3968,-2.4504,-2.5089,-2.6498,-2.6719,-2.6618,-2.6991,-2.6248,-2.5178,-2.4178,-2.3112,-2.2111,-2.1509,-2.1078,-2.0766,-2.0821,-2.0879,-2.0946,-2.1031,-2.1246,-2.162,-2.2335,-2.2513,-2.2887,-2.3792,-2.3935,-2.4182,-2.4746,-2.4862,-2.4857,-2.461,-2.417,-2.386,-2.3604,-2.3514,-2.3603,-2.3925,-2.394,-2.383,-2.3596,-2.3596,-2.3174,-2.2362,-2.2328,-2.1775,-2.0919,-2.0322,-1.9935,-1.9593,-1.9036,-1.8489,-1.7969,-1.7776,-1.7394,-1.6812,-1.6748,-1.6683,-1.6683,-1.6304,-1.6429,-1.6581,0.0,0.0,0.0,0.0,0.0,0.0,-2.7983,-2.8607,-2.9579,-3.1466,-3.2288,-3.3014,-3.3804,-3.3712,-3.3656,-3.3874,-3.2603,0.0,0.0,0.0,0.0,0.0,0.0,0.0,0.0,0.0,-3.2196,-3.2206,-3.1801,-3.1814,-3.2193,-3.1361,-3.0986,-3.0884,0.0,0.0,0.0,0.0,0.0,0.0,0.0,0.0,0.0,0.0,0.0,0.0,0.0,0.0,0.0,0.0,0.0,0.0,0.0,-2.2402,-2.2586,-2.3607,-2.4003,-2.448,-2.6049,-2.6447,-2.6444,-2.6548,-2.5968,-2.5081,-2.4131,-2.3289,-2.2445,-2.1563,-2.1516,-2.1499,-2.122,-2.1052,-2.09,-2.0979,-2.0797,-2.1023,-2.2147,-2.1786,-2.1935,-2.333,-2.2934,-2.2919,-2.4018,-2.4395,-2.461,-2.461,-2.3984,-2.3611,-2.3611,-2.33,-2.3267,-2.3588,-2.3603,-2.3596,-2.3596,-2.3596,-2.3435,-2.3113,-2.2737,-2.2251,-2.167,-2.0604,-1.996,-1.965,-1.8505,-1.8033,-1.7969,-1.726,-1.6818,-1.6499,-1.6169,-1.6039,-1.5974,-1.5658,-1.5719,-1.6003,0.0,0.0,0.0,0.0,0.0,0.0,0.0,-2.9288,-3.0342,-3.1653,-3.3058,-3.4016,-3.429,-3.4235,-3.4242,-3.4305,-3.3275,0.0,0.0,0.0,0.0,0.0,0.0,0.0,0.0,0.0,-3.268,-3.3356,-3.274,-3.2589,-3.2944,-3.2746,-3.1915,-3.0582,-3.0214,-2.9505,0.0,0.0,0.0,0.0,0.0,0.0,-2.8044,0.0,0.0,0.0,0.0,0.0,0.0,0.0,0.0,0.0,0.0,0.0,0.0,-2.2827,-2.3288,-2.3934,-2.4979,-2.5478,-2.5779,-2.5927,-2.5247,-2.4325,-2.3862,-2.287,-2.1925,-2.1625,-2.1428,-2.1308,-2.1333,-2.1504,-2.1618,-2.1528,-2.1428,-2.1432,-2.1679,-2.1772,-2.1999,-2.2401,-2.294,-2.3541,-2.435,-2.4109,-2.3922,-2.3922,-2.3487,-2.3238,-2.3238,-2.3175,-2.3157,-2.3259,-2.3288,-2.3169,-2.2952,-2.2914,-2.261,-2.2048,-2.171,-2.1212,-2.0604,-1.9992,-1.9604,-1.9275,-1.8658,-1.8209,-1.7799,-1.7457,-1.7049,-1.6647,-1.652,-1.6422,-1.6283,-1.5743,-1.5778,-1.5918,0.0,0.0,0.0,0.0,0.0,0.0,0.0,-2.9579,-3.0578,-3.1561,-3.2947,-3.4002,-3.4448,-3.4292,-3.4236,-3.4369,-3.3788,0.0,0.0,0.0,0.0,0.0,0.0,0.0,-3.2704,-3.2794,-3.3215,-3.4023,-3.3349,-3.3198,-3.365,-3.3357,-3.2439,-3.0977,-3.0976,-3.0253,0.0,0.0,0.0,0.0,0.0,0.0,-2.8351,0.0,0.0,0.0,0.0,0.0,0.0,0.0,0.0,0.0,0.0,0.0,0.0,0.0,-2.2804,-2.3408,-2.4045,-2.4575,-2.4917,-2.5073,-2.4334,-2.3585,-2.3499,-2.2531,-2.1614,-2.1586,-2.1584,-2.1569,-2.1607,-2.1833,-2.1924,-2.1695,-2.1577,-2.1505,-2.1534,-2.1796,-2.2086,-2.2347,-2.3216,-2.3919,-2.4205,-2.3963,-2.3736,-2.3611,-2.3293,-2.3106,-2.3106,-2.3106,-2.3106,-2.3106,-2.2995,-2.275,-2.2425,-2.2314,-2.2069,-2.1624,-2.114,-2.065,-2.0102,-1.977,-1.9371,-1.8864,-1.8524,-1.8035,0.0,-1.7266,-1.687,-1.6339,-1.6208,-1.6101,-1.5887,-1.5346,-1.5327,-1.5519,0.0,0.0,0.0,0.0,0.0,0.0,0.0,-2.9577,-3.0459,-3.1228,-3.2192,-3.3229,-3.4306,-3.3959,-3.3762,-3.4126,0.0,0.0,0.0,0.0,0.0,0.0,0.0,0.0,-3.2795,-3.3303,-3.3812,-3.4282,-3.3694,-3.368,-3.4162,-3.3427,-3.2695,-3.1853,-3.1336,-3.0512,-2.9562,-2.9139,-2.9163,-2.9419,-2.9197,-2.8776,0.0,0.0,0.0,0.0,0.0,0.0,0.0,0.0,0.0,0.0,0.0,0.0,0.0,0.0,0.0,0.0,0.0,-2.3667,-2.3955,-2.3955,-2.3325,-2.2773,-2.2986,-2.2236,0.0,-2.1668,-2.1908,-2.2114,-2.2059,-2.2038,-2.1931,-2.1659,-2.1379,-2.1385,-2.1731,-2.1927,-2.2299,-2.3006,-2.3681,-2.3917,-2.3637,-2.3856,-2.3922,-2.3604,-2.33,-2.3106,-2.3106,-2.3106,-2.3106,-2.3043,-2.2731,-2.2411,-2.2076,-2.1796,-2.1649,-2.156,-2.0909,-2.0422,-2.0152,-1.982,-1.9262,-1.859,-1.8175,-1.7676,-1.713,-1.6825,-1.6307,-1.5784,-1.5463,-1.5235,-1.5101,-1.4557,-1.4563,-1.487,0.0,0.0,0.0,0.0,0.0,0.0,0.0,0.0,0.0,0.0,-3.2835,-3.3679,-3.3789,-3.369,-3.3627,0.0,0.0,0.0,0.0,0.0,0.0,0.0,0.0,0.0,-3.3856,-3.3546,-3.3916,-3.5129,-3.4669,-3.4283,-3.3946,-3.4064,-3.3277,-3.1696,-3.1836,-3.1288,-3.0163,-2.991,-2.9769,-2.9702,-2.9431,-2.9157,0.0,0.0,0.0,0.0,-2.6739,-2.6073,0.0,0.0,0.0,0.0,0.0,0.0,0.0,0.0,-2.3139,-2.3051,-2.2614,0.0,-2.2619,-2.246,-2.2235,-2.2049,0.0,-2.1972,-2.1971,-2.2236,-2.2323,-2.242,-2.2696,-2.2615,-2.2271,-2.1701,-2.1587,-2.1558,-2.1423,-2.2037,-2.2804,-2.3729,-2.3766,-2.3663,-2.361,-2.3679,-2.3611,-2.323,-2.3168,-2.3106,-2.3106,-2.3106,-2.2988,-2.2738,-2.2418,-2.2061,-2.183,-2.1204,-2.0808,-2.0578,-1.9896,-1.9682,-1.9784,-1.9218,-1.8801,-1.8599,-1.8007,-1.7422,-1.688,-1.6518,-1.6191,-1.5971,-1.5849,-1.5665,-1.5404,-1.5015,-1.4881,-1.4851,0.0,0.0,0.0,0.0,0.0,0.0,0.0,0.0,0.0,0.0,0.0,0.0,0.0,0.0,0.0,0.0,0.0,0.0,0.0,0.0,0.0,0.0,0.0,-3.3451,-3.4044,-3.3942,-3.4211,-3.4999,-3.4965,-3.4685,-3.4189,-3.4478,-3.3771,-3.2121,-3.171,-3.1135,-3.0533,-3.0228,-2.9972,-2.9792,-2.9509,0.0,0.0,0.0,0.0,0.0,-2.7235,-2.6676,0.0,-2.5865,-2.543,-2.4954,0.0,0.0,0.0,0.0,-2.3375,-2.2909,-2.2229,-2.2342,-2.2577,-2.214,-2.1903,-2.184,-2.2019,-2.1815,-2.1717,-2.2121,-2.2135,-2.2114,-2.2402,-2.2512,-2.2373,-2.1718,-2.1936,-2.2179,-2.2097,-2.2482,-2.3168,-2.419,-2.416,-2.403,-2.3818,-2.3816,-2.3611,-2.3113,-2.3106,-2.3106,-2.3106,-2.3106,-2.3043,-2.2863,-2.2362,-2.1902,-2.1478,-2.0787,-2.0394,-2.0173,-1.9618,-1.9415,-1.9693,-1.9118,-1.8692,-1.8291,-1.7909,-1.728,-1.6549,-1.6255,-1.6005,-1.5785,-1.5664,-1.5647,-1.5627,-1.4871,-1.4942,-1.5295,0.0,0.0,0.0,0.0,0.0,0.0,0.0,0.0,0.0,0.0,0.0,0.0,0.0,0.0,0.0,0.0,0.0,0.0,0.0,0.0,0.0,0.0,-3.3473,-3.3591,-3.4038,-3.4232,-3.4424,-3.4617,-3.4895,-3.484,-3.4403,-3.4578,-3.3914,-3.2541,-3.1284,-3.0736,-3.066,-3.0356,-3.0088,-2.9856,-2.9599,0.0,0.0,0.0,0.0,0.0,0.0,0.0,0.0,-2.6775,-2.6225,-2.5753,-2.5425,0.0,0.0,0.0,0.0,0.0,-2.2342,-2.2765,-2.3195,-2.2264,-2.1987,-2.2015,-2.2312,-2.1947,-2.1614,-2.197,-2.1964,-2.1899,-2.1926,-2.2319,-2.2373,-2.1718,-2.2167,-2.2751,-2.3038,-2.3141,-2.3522,-2.4468,-2.4627,-2.445,-2.407,-2.4015,-2.3798,-2.3168,-2.3106,-2.3106,-2.3106,-2.3062,-2.297,-2.2977,-2.2304,-2.17,-2.1094,-2.0517,-2.0187,-2.01,-1.9436,-1.9324,-1.9623,-1.9175,-1.8626,-1.8029,-1.7725,-1.7162,-1.6304,-1.6055,-1.5839,-1.5601,-1.5294,-1.5437,-1.5649,-1.4721,-1.5035,-1.5713,0.0,0.0,0.0,0.0,0.0,0.0,0.0,0.0,0.0,0.0,0.0,0.0,0.0,0.0,0.0,0.0,0.0,0.0,0.0,0.0,0.0,-3.4936,-3.4192,-3.4097,-3.4664,-3.39,-3.4015,-3.5084,-3.4918,-3.4568,-3.3984,-3.3925,-3.3026,-3.1516,-3.1138,-3.0836,-3.0698,-3.0622,-3.0495,-3.0292,-3.0075,0.0,0.0,0.0,0.0,0.0,0.0,0.0,0.0,-2.6662,-2.6225,-2.582,-2.5779,0.0,0.0,0.0,0.0,0.0,-2.338,-2.3758,-2.3844,-2.1832,-2.1987,-2.2585,-2.2422,-2.2943,-2.3353,-2.2858,-2.2967,-2.3001,-2.262,-2.2591,-2.2373,-2.1718,-2.1806,-2.2296,-2.3276,-2.3713,-2.4121,-2.4531,-2.4597,-2.4378,-2.3764,-2.3694,-2.3549,-2.3113,-2.3106,-2.3106,-2.3106,-2.2842,-2.2581,-2.2342,-2.1711,-2.1067,-2.047,-2.0248,-1.9987,-1.9499,-1.8862,-1.8777,-1.925,-1.8656,-1.83,-1.815,-1.7587,-1.6971,-1.6354,-1.5872,-1.5634,-1.5596,-1.5537,-1.5528,-1.5451,-1.5323,-1.5256,-1.5165,0.0,0.0,0.0,0.0,0.0,0.0,0.0,0.0,0.0,0.0,0.0,0.0,0.0,0.0,0.0,0.0,0.0,0.0,0.0,0.0,-3.5991,-3.5695,-3.5288,-3.5111,-3.51,-3.4355,-3.4327,-3.5169,-3.5233,-3.5044,-3.4537,-3.3979,-3.3053,-3.1872,-3.138,-3.1061,-3.0849,-3.0736,-3.0571,-3.0406,0.0,0.0,0.0,0.0,0.0,0.0,0.0,0.0,0.0,0.0,-2.6273,-2.6177,-2.5955,0.0,0.0,0.0,0.0,0.0,-2.3195,-2.3136,-2.3053,-2.2144,-2.2587,-2.324,-2.315,-2.3243,-2.3202,-2.2694,-2.2481,-2.2354,-2.2167,-2.2191,-2.2307,-2.247,-2.2424,-2.2627,-2.3371,-2.3514,-2.3702,-2.4243,-2.4358,-2.4154,-2.3626,-2.3583,-2.3487,-2.3113,-2.2945,-2.2842,-2.2842,-2.2359,-2.2064,-2.195,-2.1264,-2.0748,-2.0274,-2.0112,-1.9867,-1.9599,-1.9129,-1.9069,-1.9421,-1.8778,-1.8303,-1.7897,-1.7318,-1.6719,-1.6172,-1.5758,-1.5601,-1.5601,-1.5601,-1.5622,-1.574,-1.5804,-1.545,-1.4979,0.0,0.0,0.0,0.0,0.0,0.0,0.0,0.0,0.0,0.0,0.0,0.0,0.0,0.0,0.0,0.0,0.0,0.0,0.0,0.0,-3.6103,-3.6103,-3.6103,-3.5843,-3.5283,-3.4827,-3.4699,-3.4897,-3.534,-3.5395,-3.501,-3.4076,-3.3214,-3.237,-3.1611,-3.1123,-3.0986,-3.0849,-3.0685,-3.052,0.0,0.0,0.0,0.0,0.0,0.0,0.0,0.0,0.0,0.0,0.0,0.0,0.0,0.0,0.0,-2.4965,-2.4408,-2.3711,-2.3084,-2.2723,-2.2591,-2.2706,-2.3055,-2.3442,-2.3785,-2.3383,-2.2934,-2.2657,-2.2274,-2.1981,-2.1893,-2.2039,-2.241,-2.3091,-2.2954,-2.2966,-2.3461,-2.3251,-2.3383,-2.404,-2.4028,-2.3856,-2.3636,-2.3549,-2.3325,-2.3003,-2.2762,-2.2623,-2.2623,-2.2081,-2.1795,-2.1728,-2.1064,-2.0525,-2.0164,-1.987,-1.97,-1.9575,-1.9226,-1.9193,-1.9366,-1.8772,-1.8232,-1.7723,-1.7202,-1.6699,-1.609,-1.5856,-1.5661,-1.5601,-1.5601,-1.5779,-1.6075,-1.6055,-1.5708,-1.5236,0.0,0.0,0.0,0.0,0.0,0.0,0.0,0.0,0.0,0.0,0.0,0.0,0.0,0.0,0.0,0.0,0.0,0.0,0.0,0.0,-3.6103,-3.6103,-3.6103,-3.5723,-3.4849,-3.4868,-3.4681,-3.4268,-3.4897,-3.5092,-3.4814,-3.3842,-3.3111,-3.2448,-3.1474,-3.1024,-3.0986,-3.0986,-3.0986,-3.0898,-3.0558,0.0,0.0,0.0,0.0,0.0,0.0,0.0,0.0,0.0,0.0,0.0,0.0,0.0,-2.4505,-2.4044,-2.3862,-2.3805,-2.3805,-2.3746,-2.3621,-2.3487,-2.2881,-2.2639,-2.3975,-2.373,-2.3307,-2.3382,-2.3358,-2.3166,-2.2695,-2.2627,-2.2666,-2.2806,-2.2858,-2.3029,-2.3443,-2.3465,-2.3594,-2.4063,-2.3846,-2.3612,-2.3574,-2.3293,-2.2981,-2.2681,-2.2637,-2.2623,-2.2623,-2.2345,-2.1989,-2.1728,-2.1099,-2.0503,-1.985,-1.9566,-1.9276,-1.8965,-1.8622,-1.8494,-1.8491,-1.8094,-1.7913,-1.7871,-1.754,-1.7022,-1.6442,-1.6146,-1.5903,-1.5601,-1.5601,-1.5881,-1.6229,-1.5945,-1.6028,-1.6227,0.0,0.0,0.0,0.0,0.0,0.0,0.0,0.0,0.0,0.0,0.0,0.0,0.0,0.0,0.0,0.0,0.0,0.0,0.0,-3.4638,-3.5096,-3.5527,-3.5769,-3.5442,-3.4458,-3.5087,-3.5443,-3.5388,-3.5488,-3.5018,-3.413,-3.3745,-3.2988,-3.1929,-3.1415,-3.1198,-3.1161,-3.1061,-3.0986,-3.0986,-3.0685,-3.0329,0.0,0.0,0.0,0.0,0.0,0.0,0.0,0.0,-2.5854,-2.5728,-2.5458,-2.4875,-2.4241,-2.4239,-2.4172,-2.3853,-2.2889,-2.302,-2.3293,-2.2643,-2.1864,-2.1636,-2.3298,-2.3231,-2.2837,-2.2935,-2.2863,-2.2652,-2.2308,-2.2843,-2.3195,-2.2868,-2.3217,-2.3544,-2.3475,-2.3488,-2.3546,-2.3798,-2.3673,-2.3617,-2.3573,-2.3125,-2.2882,-2.321,-2.2502,-2.2132,-2.2337,-2.1859,-2.1406,-2.1081,-2.0697,-2.0299,-1.9815,-1.9533,-1.9243,-1.8874,-1.8765,-1.8626,-1.8363,-1.8077,-1.7845,-1.7571,-1.7047,-1.6634,-1.6253,-1.5898,-1.572,-1.5601,-1.5601,-1.5892,-1.625,-1.5934,-1.5975,-1.6159,0.0,0.0,0.0,0.0,0.0,0.0,0.0,0.0,0.0,0.0,0.0,0.0,0.0,0.0,0.0,0.0,0.0,0.0,-3.388,-3.409,-3.4385,-3.4755,-3.5311,-3.5218,-3.4365,-3.5296,-3.572,-3.5576,-3.5463,-3.4844,-3.3754,-3.345,-3.2787,-3.1862,-3.1217,-3.0884,-3.081,-3.0749,-3.0675,-3.0613,-3.0696,-3.0571,0.0,0.0,0.0,0.0,0.0,0.0,0.0,0.0,-2.5672,-2.5436,-2.5518,-2.4948,-2.4252,-2.4271,-2.4173,-2.3833,-2.2828,-2.2767,-2.2872,-2.2369,-2.1542,-2.1281,-2.2657,-2.2602,-2.2432,-2.2978,-2.2908,-2.2682,-2.2685,-2.3255,-2.3549,-2.3034,-2.3461,-2.3835,-2.3519,-2.3437,-2.3391,-2.3579,-2.3442,-2.3389,-2.3421,-2.3014,-2.2849,-2.3125,-2.2297,-2.1914,-2.2015,-2.1627,-2.1219,-2.0996,-2.0737,-2.0351,-1.9989,-1.9649,-1.9294,-1.8874,-1.8874,-1.8693,-1.8239,-1.7988,-1.7711,-1.7386,-1.6854,-1.6484,-1.6194,-1.5898,-1.572,-1.5601,-1.5601,-1.5844,-1.621,-1.6032,-1.6055,-1.6245,0.0,0.0,0.0,0.0,0.0,0.0,0.0,0.0,0.0,0.0,0.0,0.0,0.0,0.0,0.0,0.0,0.0,0.0,-3.3312,-3.3852,-3.4088,-3.3879,-3.4727,-3.499,-3.4602,-3.5391,-3.5367,-3.453,-3.4699,-3.449,-3.3856,-3.2932,-3.2513,-3.2421,-3.0795,-2.9978,-2.9818,-3.0014,-2.9965,-2.9857,-3.0452,-3.0571,-3.0368,0.0,0.0,0.0,0.0,0.0,0.0,0.0,-2.5331,-2.5927,-2.5071,-2.4662,-2.4396,-2.3948,-2.3817,-2.3803,-2.3857,-2.3248,-2.2654,-2.2846,-2.2252,-2.1734,-2.2188,-2.198,-2.2153,-2.3871,-2.3746,-2.3527,-2.3983,-2.3868,-2.3625,-2.334,-2.361,-2.3809,-2.3528,-2.3191,-2.3149,-2.3441,-2.3192,-2.3034,-2.3093,-2.3123,-2.2801,-2.2184,-2.2095,-2.1979,-2.1693,-2.1693,-2.1693,-2.1693,-2.1379,-2.0929,-2.0328,-1.9982,-1.9519,-1.8939,-1.8874,-1.8596,-1.7972,-1.7667,-1.7485,-1.7485,-1.7138,-1.6785,-1.6478,-1.6194,-1.5903,-1.5601,-1.5601,-1.5741,-1.6034,-1.6221,-1.6457,-1.6624,0.0,0.0,0.0,0.0,0.0,0.0,0.0,0.0,0.0,0.0,0.0,0.0,0.0,0.0,0.0,0.0,0.0,0.0,-3.2472,-3.264,-3.2772,-3.2828,-3.3484,-3.3758,-3.3473,-3.385,-3.4568,-3.5617,-3.4805,-3.4111,-3.3522,-3.2664,-3.1983,-3.1397,-3.0501,-3.0064,-3.0014,-3.0064,-2.9865,-2.9493,-3.0209,-3.0213,-2.9704,0.0,0.0,0.0,0.0,0.0,0.0,0.0,0.0,0.0,-2.4911,-2.4336,-2.3493,-2.3723,-2.3573,-2.3168,-2.2391,-2.2625,-2.2914,-2.2516,-2.2275,-2.2362,-2.311,-2.2899,-2.2765,-2.348,-2.3282,-2.3058,-2.33,-2.367,-2.3805,-2.3293,-2.3626,-2.3809,-2.3528,-2.3191,-2.3054,-2.3165,-2.3059,-2.3079,-2.3375,-2.3021,-2.2864,-2.3125,-2.2311,-2.1857,-2.1971,-2.1811,-2.1591,-2.1364,-2.1263,-2.098,-2.0608,-2.004,-1.97,-1.9519,-1.9113,-1.8596,-1.7972,-1.7908,-1.7726,-1.7485,-1.7138,-1.6961,-1.6844,-1.6484,-1.6194,-1.5963,-1.5963,-1.5986,-1.6017,-1.6093,-1.621,-1.6404,0.0,0.0,0.0,0.0,0.0,0.0,0.0,0.0,0.0,0.0,-3.3951,-3.3779,0.0,0.0,0.0,0.0,0.0,0.0,-3.2227,-3.2145,-3.2222,-3.2521,-3.2941,-3.3151,-3.3135,-3.325,-3.3919,-3.5163,-3.4122,-3.3178,-3.2326,-3.198,-3.1472,-3.0732,-3.0294,-2.9933,-2.9676,-2.9761,-2.9422,-2.8872,-2.9551,-2.9712,-2.9436,0.0,0.0,0.0,0.0,0.0,0.0,0.0,0.0,0.0,-2.479,-2.4187,-2.3281,-2.3985,-2.3684,-2.3052,-2.2891,-2.3033,-2.3204,-2.313,-2.3008,-2.3124,-2.3871,-2.3706,-2.3496,-2.3863,-2.3525,-2.3269,-2.3558,-2.3755,-2.3712,-2.3286,-2.3591,-2.3809,-2.3642,-2.3375,-2.3247,-2.3352,-2.3127,-2.3101,-2.3259,-2.2971,-2.28,-2.2794,-2.2219,-2.1747,-2.1586,-2.1546,-2.1415,-2.1218,-2.1213,-2.1032,-2.0716,-2.0321,-2.004,-1.9815,-1.9403,-1.8946,-1.8369,-1.8083,-1.7849,-1.7485,-1.7138,-1.6903,-1.6785,-1.6484,-1.6312,-1.6259,-1.614,-1.6051,-1.6063,-1.6156,-1.6226,-1.6351,0.0,0.0,-3.4631,-3.4414,0.0,0.0,0.0,0.0,0.0,0.0,-3.3744,-3.3521,0.0,0.0,0.0,-3.3206,-3.2388,-3.2039,-3.233,-3.2123,-3.2173,-3.2648,-3.2888,-3.3126,-3.3383,-3.3263,-3.3325,-3.3599,-3.3008,-3.2024,-3.0747,-3.1095,-3.0932,-3.0342,-3.0108,-2.9613,-2.8964,-2.9168,-2.8794,-2.8139,-2.8747,-2.9181,-2.9321,-2.8615,0.0,0.0,0.0,0.0,0.0,0.0,0.0,0.0,-2.4626,-2.4088,-2.3533,-2.4427,-2.3924,-2.3352,-2.4419,-2.4012,-2.3443,-2.428,-2.4182,-2.3973,-2.4423,-2.4341,-2.4312,-2.4647,-2.4268,-2.3971,-2.4373,-2.3938,-2.3488,-2.3263,-2.3518,-2.3762,-2.3796,-2.3601,-2.3536,-2.3751,-2.3336,-2.299,-2.2927,-2.295,-2.2599,-2.1693,-2.1872,-2.1636,-2.0754,-2.102,-2.1196,-2.1167,-2.1196,-2.1089,-2.078,-2.078,-2.0436,-1.9866,-1.9815,-1.9519,-1.8939,-1.8286,-1.7864,-1.7507,-1.7244,-1.6903,-1.6596,-1.6312,-1.6371,-1.6537,-1.6259,-1.6146,-1.6168,-1.6325,-1.6403,-1.6463,0.0,0.0,-3.4448,-3.4414,0.0,0.0,0.0,0.0,0.0,0.0,0.0,0.0,0.0,0.0,0.0,-3.2354,-3.1201,-3.0851,-3.1854,-3.1295,-3.1309,-3.2187,-3.2866,-3.3462,-3.4004,-3.3073,-3.2694,-3.2935,-3.2318,-3.1749,-3.1162,-3.1108,-3.0673,-2.9902,-2.946,-2.9044,-2.8762,-2.8798,-2.8463,-2.7943,-2.8811,-2.8931,-2.8578,-2.8123,-2.7654,0.0,0.0,0.0,0.0,0.0,0.0,0.0,-2.4115,-2.3661,-2.3161,-2.3593,-2.3537,-2.3335,-2.329,-2.3471,-2.3782,-2.4287,-2.468,-2.489,-2.4571,-2.4489,-2.4418,-2.4312,-2.4216,-2.4058,-2.3971,-2.3883,-2.3711,-2.3479,-2.3396,-2.3423,-2.3762,-2.3371,-2.3043,-2.309,-2.3071,-2.2791,-2.2298,-2.2434,-2.2348,-2.1674,-2.1686,-2.14,-2.0746,-2.1009,-2.1094,-2.0837,-2.1306,-2.1439,-2.1089,-2.1089,-2.091,-2.0493,-2.004,-1.9584,-1.9171,-1.8589,-1.8148,-1.788,-1.7815,-1.7732,-1.7673,-1.7309,-1.7073,-1.6903,-1.6844,-1.6667,-1.6431,-1.6482,-1.6623,-1.6807,0.0,0.0,0.0,0.0,0.0,0.0,0.0,0.0,0.0,0.0,0.0,0.0,0.0,-3.2234,0.0,0.0,-3.0535,-3.0207,-3.0894,-3.0767,-3.1096,-3.2093,-3.3069,-3.3398,-3.2968,-3.2621,-3.2125,-3.1444,-3.103,-3.0637,-3.02,-3.0651,-3.0306,-2.9258,-2.9246,-2.9042,-2.869,-2.869,-2.8344,-2.7847,-2.8549,-2.8667,-2.8352,-2.7748,-2.728,-2.6768,-2.6224,0.0,0.0,0.0,0.0,0.0,0.0,0.0,-2.3099,-2.3542,-2.3329,-2.3039,-2.3485,-2.3624,-2.3805,-2.4385,-2.4902,-2.5137,-2.4637,-2.448,-2.444,-2.4251,-2.4202,-2.4102,-2.3696,-2.3625,-2.3556,-2.3302,-2.3212,-2.3229,-2.3493,-2.3212,-2.3127,-2.3361,-2.3141,-2.283,-2.2461,-2.2488,-2.2229,-2.1673,-2.1425,-2.1229,-2.0891,-2.1096,-2.1178,-2.1111,-2.1489,-2.1611,-2.1439,-2.1114,-2.0806,-2.0515,-2.0181,-1.9782,-1.9317,-1.8666,-1.8314,-1.8154,-1.8079,-1.795,-1.7774,-1.7436,-1.7295,-1.7252,-1.7091,-1.7015,-1.695,-1.6779,-1.6956,-1.7191,0.0,0.0,0.0,0.0,0.0,0.0,0.0,0.0,0.0,0.0,0.0,0.0,0.0,-3.1832,-3.1423,0.0,0.0,0.0,-3.0083,-3.0554,-3.1258,-3.2314,-3.3098,-3.2963,-3.1769,-3.204,-3.147,-3.0048,-2.9738,-2.9357,-2.8905,-2.9977,-2.9801,-2.8607,-2.9103,-2.8952,-2.8405,-2.8428,-2.816,-2.7752,-2.8071,-2.8201,-2.8126,-2.7314,-2.6879,-2.6572,-2.5959,-2.5417,-2.4897,-2.4646,0.0,0.0,0.0,0.0,-2.3054,-2.3687,-2.3205,-2.2706,-2.3849,-2.3768,-2.367,-2.4536,-2.501,-2.5139,-2.4716,-2.4637,-2.4538,-2.4242,-2.4152,-2.4003,-2.3596,-2.3447,-2.3347,-2.3097,-2.3064,-2.31,-2.3168,-2.3165,-2.3232,-2.3676,-2.3247,-2.2928,-2.2806,-2.2684,-2.2315,-2.1633,-2.1279,-2.1048,-2.0872,-2.1031,-2.12,-2.1355,-2.1519,-2.1578,-2.1529,-2.0969,-2.0536,-2.0256,-2.0264,-1.992,-1.9359,-1.8794,-1.8519,-1.8468,-1.8183,-1.7929,-1.7729,-1.727,-1.7344,-1.7621,-1.7223,-1.7331,-1.7596,-1.7261,-1.739,-1.7661,0.0,0.0,0.0,0.0,0.0,0.0,0.0,0.0,0.0,0.0,-3.3605,-3.298,-3.1481,-3.0743,-3.009,-2.9389,-2.8511,-2.8743,-3.0479,0.0,0.0,-3.2925,-3.228,-3.2043,-3.2393,-3.1414,-3.0564,-2.9842,-2.9181,-2.8718,-2.8497,-2.9306,-2.912,-2.8182,-2.8428,-2.8077,-2.7226,-2.7417,-2.7463,-2.7352,-2.744,-2.7429,-2.7316,-2.6226,-2.6138,-2.6399,-2.5509,-2.5332,-2.5407,-2.4933,-2.4176,0.0,0.0,0.0,-2.2753,-2.3265,-2.3104,-2.273,-2.2675,-2.2894,-2.3461,-2.4716,-2.5066,-2.5158,-2.5198,-2.5186,-2.499,-2.4282,-2.3994,-2.3904,-2.4053,-2.3696,-2.3406,-2.3347,-2.314,-2.3054,-2.3083,-2.2935,-2.2812,-2.286,-2.3112,-2.3004,-2.244,-2.2665,-2.2483,-2.1605,-2.1248,-2.0734,-1.9941,-2.0456,-2.0652,-2.042,-2.0952,-2.113,-2.0842,-2.074,-2.0522,-2.0194,-1.9981,-1.9644,-1.9306,-1.9226,-1.9028,-1.8807,-1.8509,-1.8312,-1.8274,-1.7684,-1.7633,-1.7894,-1.7594,-1.7807,-1.8273,-1.7982,-1.8045,-1.8305,0.0,0.0,0.0,0.0,0.0,0.0,0.0,0.0,0.0,0.0,0.0,-3.2772,-3.1564,-3.0524,-2.9613,-2.877,-2.7714,-2.7881,-2.9801,-2.9673,-3.0331,-3.2162,-3.1126,-3.0682,-3.1143,-3.0233,-2.943,-2.873,-2.8295,-2.8119,-2.8255,-2.8434,-2.8548,-2.8512,-2.8211,-2.8061,-2.805,-2.7509,-2.7457,-2.7745,-2.7745,-2.7745,-2.762,-2.6537,-2.6393,-2.6617,-2.5496,-2.503,-2.4914,-2.4507,-2.4003,-2.3536,-2.3481,0.0,0.0,0.0,-2.2852,-2.2396,-2.2582,-2.3027,-2.3744,-2.5017,-2.5305,-2.5318,-2.546,-2.5421,-2.5137,-2.4627,-2.4233,-2.3994,-2.3954,-2.3805,-2.3546,-2.3397,-2.3147,-2.2984,-2.2911,-2.2723,-2.2749,-2.2963,-2.2956,-2.2928,-2.2864,-2.272,-2.2446,-2.2062,-2.1413,-2.0947,-2.0653,-2.0635,-2.0647,-2.0658,-2.0984,-2.1048,-2.0938,-2.0616,-2.029,-1.9967,-1.9684,-1.9517,-1.9573,-1.9256,-1.9002,-1.8901,-1.8549,-1.8353,-1.8216,-1.7704,-1.7799,-1.823,-1.7894,-1.818,-1.8629,-1.8339,-1.8429,-1.8706,0.0,0.0,0.0,0.0,0.0,0.0,0.0,0.0,0.0,0.0,0.0,-3.2132,-3.124,0.0,0.0,0.0,-2.6848,-2.7073,-2.8879,-2.8352,-2.8896,-3.099,-2.9693,-2.9162,-2.9608,-2.8799,-2.8084,-2.7522,-2.7161,-2.7241,-2.7751,-2.7544,-2.7829,-2.85,-2.8002,-2.8014,-2.83,-2.741,-2.7358,-2.7896,-2.786,-2.786,-2.7808,-2.7014,-2.6934,-2.7105,-2.5632,-2.4969,-2.4687,-2.4011,-2.3571,-2.3294,-2.3062,-2.302,0.0,0.0,0.0,-2.1664,-2.2209,-2.2743,-2.3433,-2.4676,-2.5022,-2.5154,-2.5458,-2.5402,-2.5198,-2.506,-2.4637,-2.4233,-2.4044,-2.3895,-2.3696,-2.3447,-2.3247,-2.3,-2.2723,-2.2622,-2.2707,-2.3009,-2.2916,-2.295,-2.3366,-2.2938,-2.2617,-2.2646,-2.1677,-2.1131,-2.1165,-2.0763,-2.059,-2.0793,-2.0834,-2.0917,-2.0971,-2.0423,-2.0053,-1.9789,-1.9493,-1.9475,-1.9672,-1.9184,-1.8982,-1.8871,-1.8446,-1.8279,-1.8143,-1.7702,-1.7935,-1.8467,-1.8073,-1.8304,-1.8832,-1.8551,-1.8654,-1.9014,0.0,0.0,0.0,0.0,0.0,0.0,0.0,0.0,0.0,0.0,0.0,-3.0723,-2.9964,-2.8698,-2.7356,-2.5967,-2.5598,-2.6228,-2.8045,-2.7815,-2.8242,-2.9654,-2.8057,0.0,-2.8291,-2.7198,-2.6584,-2.6465,-2.5623,-2.5761,-2.6758,-2.6566,-2.6871,-2.7594,-2.7718,-2.7446,-2.6794,-2.6416,-2.6689,-2.7318,-2.7128,-2.7176,-2.7354,-2.7291,-2.7582,-2.7773,-2.5815,-2.5281,-2.5307,-2.3749,-2.2799,-2.2331,-2.2638,-2.2241,-2.1755,0.0,0.0,0.0,-2.0963,-2.1339,-2.1931,-2.3185,-2.3834,-2.4345,-2.5006,-2.5107,-2.5129,-2.5256,-2.503,-2.4784,-2.4538,-2.4093,-2.3696,-2.3447,-2.3406,-2.3206,-2.267,-2.2611,-2.2611,-2.2645,-2.2903,-2.3263,-2.3631,-2.3356,-2.3204,-2.3241,-2.2116,-2.1149,-2.0568,-2.0324,-2.0234,-2.0226,-2.0249,-2.0355,-2.0613,-2.0277,-1.9954,-1.9702,-1.9687,-1.9546,-1.9338,-1.9312,-1.9131,-1.8881,-1.8285,-1.8191,-1.8441,-1.784,-1.7961,-1.8462,-1.7866,-1.8147,-1.8857,-1.8586,-1.8879,-1.9432,0.0,0.0,0.0,0.0,0.0,0.0,0.0,0.0,0.0,0.0,0.0,0.0,0.0,-2.7816,-2.6608,-2.6028,-2.5011,-2.5205,-2.7064,-2.6186,-2.6687,-2.9121,-2.7344,-2.6815,-2.7993,-2.6892,-2.6186,-2.5946,-2.5701,-2.5628,-2.5699,-2.6187,-2.6431,-2.6488,-2.6929,-2.6966,-2.6719,-2.6005,-2.5754,-2.5918,-2.63,-2.6673,-2.6887,-2.6694,-2.7257,-2.7977,-2.6087,-2.5229,-2.4888,-2.4528,-2.3426,-2.225,-2.2592,-2.2537,-2.2304,-2.1893,-2.145,-2.1075,-2.1012,-2.1408,-2.2105,-2.3021,-2.3801,-2.4421,-2.4983,-2.5108,-2.5117,-2.5178,-2.4823,-2.4495,-2.4398,-2.4223,-2.3954,-2.3696,-2.3497,-2.3247,-2.2896,-2.2695,-2.2594,-2.2594,-2.2714,-2.2903,-2.328,-2.3062,-2.2904,-2.2896,-2.2308,-2.1758,-2.1291,-2.0881,-2.0641,-2.0641,-2.0485,-2.0433,-2.0537,-2.0421,-2.0197,-1.9983,-1.9983,-1.9828,-1.9583,-1.9546,-1.9486,-1.9383,-1.8976,-1.8657,-1.8439,-1.822,-1.8453,-1.8946,-1.859,-1.8871,-1.948,-1.9375,-1.9313,-1.9417,0.0,0.0,0.0,0.0,0.0,-3.1965,-3.0883,0.0,0.0,0.0,0.0,0.0,0.0,0.0,-2.6192,-2.5581,-2.4832,-2.4818,-2.5875,-2.4934,-2.5397,-2.7751,-2.6261,-2.5975,-2.7306,-2.627,-2.5639,-2.5503,-2.5237,-2.4922,-2.4569,-2.5161,-2.5319,-2.5107,-2.5599,-2.6059,-2.6448,-2.5571,-2.5163,-2.5191,-2.6035,-2.6443,-2.6558,-2.6911,-2.7507,-2.7914,-2.6359,-2.5466,-2.506,-2.4909,-2.4003,-2.2923,-2.2753,-2.24,-2.1999,-2.1557,-2.121,-2.0951,-2.0882,-2.1242,-2.1784,-2.2519,-2.3176,-2.3871,-2.4781,-2.4901,-2.481,-2.5057,-2.4746,-2.4383,-2.4136,-2.4111,-2.3996,-2.3728,-2.3596,-2.3406,-2.3046,-2.2846,-2.2745,-2.2846,-2.2695,-2.2748,-2.3178,-2.2894,-2.2723,-2.285,-2.2482,-2.2092,-2.1742,-2.1275,-2.0968,-2.0925,-2.0719,-2.0617,-2.0617,-2.0617,-2.0514,-2.0248,-2.0248,-2.0086,-1.9828,-1.9828,-1.9887,-1.9946,-1.968,-1.9264,-1.8848,-1.885,-1.9025,-1.9294,-1.9141,-1.9236,-1.9539,-1.9744,-1.9569,-1.9462,0.0,-3.3345,-3.3472,-3.2778,-3.2654,-3.2121,-3.0582,-3.0358,-2.9991,-2.9073,0.0,0.0,0.0,0.0,0.0,-2.4558,-2.4942,-2.5038,-2.4518,-2.4158,-2.445,-2.5523,-2.4756,-2.4871,-2.6129,-2.5279,-2.4883,-2.5041,-2.4025,-2.3494,-2.3471,-2.3482,-2.3482,-2.3516,-2.3848,-2.4652,-2.5765,-2.5054,-2.4856,-2.5133,-2.6288,-2.653,-2.6397,-2.8027,-2.8288,-2.7693,-2.6554,-2.6129,-2.5912,-2.4833,-2.4406,-2.4139,-2.3018,-2.1753,-2.0758,-2.103,-2.0555,-2.0041,0.0,0.0,0.0,-2.1518,-2.1865,-2.2554,-2.4307,-2.4386,-2.4256,-2.4947,-2.4869,-2.4469,-2.387,-2.3861,-2.3839,-2.3484,-2.3646,-2.3596,-2.3097,-2.2996,-2.3097,-2.3356,-2.2946,-2.2841,-2.3426,-2.2961,-2.2748,-2.3066,-2.2494,-2.2021,-2.1725,-2.1471,-2.1224,-2.0917,-2.0925,-2.0925,-2.0925,-2.0925,-2.0771,-2.0522,-2.0522,-2.0403,-2.0138,-2.013,-2.03,-2.0514,-2.0241,-1.9983,-1.9754,-1.9798,-1.9648,-1.9301,-1.9411,-1.9247,-1.9007,-1.9625,-1.9646,-1.9564,-3.2588,-3.2568,-3.2518,-3.2196,-3.1753,-3.0978,-2.9542,-2.8845,-2.8253,0.0,0.0,0.0,-2.6739,-2.6142,-2.546,-2.4887,-2.4532,-2.4236,-2.3948,-2.3387,-2.3535,-2.4624,-2.4296,-2.4441,-2.5159,-2.5161,-2.4757,-2.3944,-2.4036,-2.3593,-2.2728,-2.315,-2.3394,-2.3482,-2.3494,-2.3535,-2.358,-2.3611,-2.3681,-2.3843,-2.4976,-2.5783,-2.6454,-2.7299,-2.7895,-2.8188,-2.7337,-2.6479,-2.5796,-2.6209,-2.4945,-2.3075,-2.2445,-2.1553,-2.0737,-2.0919,-2.1002,0.0,-2.0678,0.0,0.0,0.0,0.0,0.0,-2.2471,-2.2914,-2.3367,-2.401,-2.42,-2.4238,-2.4402,-2.4535,-2.4506,-2.4223,-2.3945,-2.3755,-2.3596,-2.3397,-2.3297,-2.3397,-2.3097,-2.304,-2.3397,-2.3116,-2.299,-2.3305,-2.3158,-2.2937,-2.2644,-2.2182,-2.1776,-2.1479,-2.1471,-2.1471,-2.1471,-2.1471,-2.142,-2.1377,-2.1377,-2.1224,-2.096,-2.1165,-2.1165,-2.107,-2.1216,-2.1208,-2.1062,-2.0333,-1.9955,-1.991,-2.0197,-2.0219,-2.0227,-2.0888,-2.0556,-2.0091,-3.2322,-3.1988,-3.1726,-3.1776,-3.1271,-3.0557,-2.9561,0.0,-2.8135,0.0,0.0,0.0,-2.6394,0.0,-2.6001,-2.5119,-2.4895,-2.4474,-2.3684,-2.3182,-2.3198,-2.3822,-2.3587,-2.3839,-2.4655,-2.4727,-2.4445,-2.3849,-2.3975,-2.3416,-2.219,-2.2734,-2.2846,-2.2547,-2.2737,-2.2603,-2.2301,-2.2472,-2.2611,-2.2782,-2.4284,-2.5239,-2.5849,-2.6834,-2.7524,-2.7903,-2.7547,-2.6898,-2.6376,-2.7292,-2.5962,-2.3841,-2.3255,-2.2295,-2.1408,-2.1468,-2.1585,0.0,0.0,0.0,-2.1337,-2.1297,0.0,0.0,-2.2534,-2.2794,-2.3038,-2.393,-2.4165,-2.417,-2.4038,-2.4484,-2.4746,-2.4411,-2.4562,-2.46,-2.424,-2.403,-2.4002,-2.4224,-2.3894,-2.3741,-2.3834,-2.3591,-2.3402,-2.3443,-2.3294,-2.3147,-2.2996,-2.2636,-2.2375,-2.2232,-2.2072,-2.2021,-2.2021,-2.2021,-2.2021,-2.2021,-2.1871,-2.1703,-2.1553,-2.1445,-2.142,-2.147,-2.1587,-2.1712,-2.1762,-2.1143,-2.0747,-2.0478,-2.0775,-2.0769,-2.0662,-2.1256,-2.1038,-2.0654,0.0,-3.1406,-3.1043,-3.1372,-3.0977,-3.0461,0.0,0.0,0.0,0.0,-2.7394,-2.6976,0.0,0.0,0.0,0.0,-2.5568,-2.508,-2.3524,-2.3254,0.0,0.0,0.0,0.0,-2.4308,-2.4141,-2.4107,-2.4198,-2.3816,-2.3074,-2.2066,-2.2285,-2.2043,-2.1374,-2.1804,-2.1841,-2.1635,-2.1667,-2.1785,-2.2107,-2.3981,-2.4818,-2.5121,-2.6566,-2.7209,-2.7329,-2.7389,-2.7258,-2.7207,-2.783,-2.6961,-2.5497,-2.4612,-2.3528,-2.25,-2.2353,-2.2185,0.0,0.0,0.0,0.0,-2.1977,-2.1434,0.0,-2.334,-2.3278,-2.3063,-2.4058,-2.4293,-2.4121,-2.3378,-2.4038,-2.4562,-2.4103,-2.5093,-2.5653,-2.4974,-2.4868,-2.5034,-2.543,-2.505,-2.4727,-2.4718,-2.4327,-2.4001,-2.3727,-2.3316,-2.3097,-2.3147,-2.3038,-2.2979,-2.2979,-2.2728,-2.2577,-2.2577,-2.2577,-2.2627,-2.2627,-2.2292,-2.2111,-2.2059,-2.1525,-2.1508,-2.1857,-2.1793,-2.1889,-2.2053,-2.218,-2.1743,-2.1008,-2.1318,-2.1099,-2.0759,-2.1322,-2.1299,-2.1221,-3.0508,-3.0521,-3.0477,-3.0401,-3.0176,-2.9878,0.0,0.0,0.0,0.0,0.0,0.0,0.0,0.0,0.0,0.0,-2.5434,-2.4408,-2.2943,-2.2979,0.0,0.0,0.0,0.0,0.0,-2.3979,-2.413,-2.3583,-2.3271,-2.3143,-2.3086,-2.1819,-2.1647,-2.2385,-2.1531,-2.1186,-2.1328,-2.1604,-2.187,-2.2238,-2.3318,-2.4618,-2.5913,-2.6486,-2.7248,-2.7961,-2.7618,-2.7303,-2.7007,-2.6417,-2.5879,-2.5274,-2.4328,-2.3742,-2.3273,-2.246,-2.2704,-2.3137,-2.2645,-2.2311,-2.2074,-2.2041,-2.181,0.0,-2.1223,-2.1991,-2.2777,-2.2594,-2.3133,-2.3679,-2.3867,-2.3938,-2.3927,-2.3663,-2.4687,-2.5586,-2.5722,-2.5841,-2.5923,-2.6008,-2.5759,-2.5646,-2.5863,-2.5131,-2.4697,-2.485,-2.4122,-2.3696,-2.3886,-2.3488,-2.3297,-2.3297,-2.3247,-2.3247,-2.3247,-2.3247,-2.3288,-2.3479,-2.3407,-2.3301,-2.3208,-2.3198,-2.3028,-2.284,-2.2823,-2.281,-2.2859,-2.3134,-2.2559,-2.153,-2.1603,-2.1689,-2.1817,-2.2241,-2.2113,-2.1887,-2.9859,-2.9684,-2.9622,-2.9884,0.0,0.0,0.0,0.0,0.0,0.0,0.0,0.0,0.0,0.0,0.0,0.0,0.0,0.0,0.0,0.0,-2.2692,0.0,0.0,0.0,0.0,-2.3098,-2.3386,-2.3786,-2.3156,-2.2811,-2.2774,-2.2003,-2.1776,-2.2037,-2.1504,-2.1375,-2.1525,-2.1475,-2.1606,-2.1897,-2.314,-2.4503,-2.5859,-2.6419,-2.7263,-2.8179,-2.7926,-2.7846,-2.7723,-2.689,-2.6357,-2.5941,-2.5371,-2.4943,-2.4487,-2.3562,-2.3765,-2.4121,-2.3175,-2.2896,-2.2805,-2.2824,-2.2384,0.0,0.0,-2.2355,-2.2622,-2.2779,-2.3154,-2.3454,-2.3472,-2.3664,-2.3774,-2.3519,-2.4781,-2.5711,-2.5466,-2.6267,-2.672,-2.62,-2.6361,-2.6338,-2.5994,-2.5335,-2.4808,-2.4514,-2.4212,-2.4003,-2.3945,-2.3845,-2.3805,-2.3805,-2.3895,-2.3895,-2.3805,-2.4044,-2.4042,-2.3791,-2.3938,-2.376,-2.327,-2.345,-2.3413,-2.3101,-2.3411,-2.3538,-2.3556,-2.4001,-2.3704,-2.2878,-2.2728,-2.2515,-2.2295,-2.2925,-2.2637,-2.2148,-2.9188,-2.882,-2.8734,-2.929,0.0,0.0,0.0,0.0,0.0,0.0,0.0,0.0,0.0,-2.7022,-2.6776,0.0,0.0,0.0,-2.3755,-2.3461,-2.2958,0.0,0.0,-2.1994,0.0,0.0,-2.2639,-2.3794,-2.296,-2.2423,-2.224,-2.2105,-2.1846,-2.1452,-2.1552,-2.1639,-2.169,-2.1477,-2.1481,-2.176,-2.315,-2.4209,-2.5081,-2.5995,-2.6972,-2.7866,-2.8068,-2.825,-2.8263,-2.7586,-2.7104,-2.6732,-2.6429,-2.6097,-2.5639,-2.469,-2.4747,-2.4883,-2.3724,-2.3372,-2.3397,-2.3644,-2.2992,-2.2557,0.0,0.0,0.0,-2.3139,-2.329,-2.3234,-2.2864,-2.3255,-2.3515,-2.3258,-2.4617,-2.5411,-2.454,-2.5978,-2.6832,-2.6063,-2.6737,-2.6929,-2.5952,-2.5352,-2.4749,-2.4161,-2.4055,-2.4036,-2.3985,-2.4152,-2.4251,-2.4251,-2.4489,-2.4452,-2.423,-2.4573,-2.4464,-2.3859,-2.4098,-2.388,-2.3226,-2.3569,-2.3625,-2.3534,-2.406,-2.4259,-2.4239,-2.4822,-2.4809,-2.431,-2.3916,-2.3319,-2.2796,-2.348,-2.3223,-2.2631,-2.7594,-2.7859,-2.7965,-2.786,0.0,0.0,0.0,0.0,0.0,0.0,0.0,-2.8944,-2.8585,-2.823,-2.8072,-2.8122,-2.6949,-2.5953,-2.5379,-2.4449,0.0,-2.3225,-2.2496,-2.2451,-2.3141,0.0,0.0,-2.242,-2.2015,-2.2025,-2.2355,-2.1372,-2.1169,-2.1686,-2.1686,-2.1425,-2.1069,-2.1772,-2.2265,-2.258,-2.3055,-2.3241,-2.334,-2.4805,-2.5852,-2.6638,-2.758,-2.7783,-2.7522,-2.6971,-2.6904,-2.6874,-2.5925,-2.6068,-2.6287,-2.4893,-2.5036,-2.5379,-2.4158,-2.3703,-2.3578,-2.3597,-2.3555,-2.3308,-2.2648,0.0,-2.3286,-2.2342,0.0,-2.2789,-2.2713,0.0,0.0,-2.2304,-2.3215,-2.3751,-2.3135,-2.4452,-2.5448,-2.5464,-2.6804,-2.737,-2.6394,-2.5382,-2.4842,-2.5118,-2.4078,-2.3783,-2.4747,-2.4587,-2.4489,-2.4489,-2.4735,-2.4664,-2.4305,-2.4344,-2.4127,-2.3748,-2.3925,-2.4017,-2.3996,-2.4607,-2.4876,-2.4884,-2.5218,-2.5315,-2.5324,-2.56,-2.5573,-2.5241,-2.4325,-2.4078,-2.423,-2.4052,-2.3981,-2.4068,-2.7129,-2.7306,-2.7403,-2.742,0.0,0.0,0.0,0.0,0.0,0.0,0.0,-2.7989,-2.7842,-2.727,-2.6976,-2.7054,-2.6383,-2.5625,-2.4825,-2.4361,0.0,-2.2845,-2.2627,-2.2559,-2.273,0.0,0.0,-2.2309,-2.1584,-2.1449,-2.1812,-2.1048,-2.0992,-2.1541,-2.1801,-2.2038,-2.2253,-2.2571,-2.2651,-2.2537,-2.2809,-2.2636,-2.241,-2.4428,-2.5771,-2.6714,-2.7582,-2.7841,-2.7672,-2.7278,-2.7011,-2.6836,-2.6885,-2.6629,-2.6245,-2.5616,-2.5515,-2.5382,-2.42,-2.4076,-2.4216,-2.4179,-2.4149,-2.3993,-2.3545,-2.3482,-2.3337,-2.2856,0.0,0.0,0.0,0.0,0.0,0.0,-2.3006,-2.3326,-2.2519,-2.3793,-2.4787,-2.4826,-2.5375,-2.5493,-2.4883,-2.4896,-2.4918,-2.49,-2.4393,-2.4355,-2.4854,-2.4932,-2.4779,-2.4397,-2.463,-2.4536,-2.3975,-2.4239,-2.4065,-2.3551,-2.4021,-2.4195,-2.4183,-2.4952,-2.5409,-2.5513,-2.5914,-2.6167,-2.6347,-2.6584,-2.6584,-2.6442,-2.6194,-2.5582,-2.4881,-2.4984,-2.4865,-2.4658,-2.6645,-2.6866,-2.7009,-2.6982,0.0,0.0,0.0,-2.73,-2.746,-2.7866,-2.7707,-2.7481,-2.734,-2.7049,-2.686,-2.6939,-2.6574,-2.6053,-2.5381,-2.4705,-2.4043,-2.3432,-2.2867,-2.2627,-2.2872,-2.2128,-2.1844,0.0,-2.1171,-2.0902,-2.1107,-2.0793,-2.0783,-2.1162,-2.1655,-2.2296,-2.2921,-2.2986,-2.3021,-2.3095,-2.304,-2.2777,-2.2605,-2.4509,-2.5927,-2.6966,-2.7579,-2.7841,-2.7869,-2.7504,-2.718,-2.6981,-2.7455,-2.7112,-2.6438,-2.6285,-2.6115,-2.5761,-2.4616,-2.4522,-2.4725,-2.4562,-2.4329,-2.4168,-2.4104,-2.385,-2.3571,-2.3545,-2.3533,0.0,0.0,0.0,-2.321,-2.2929,0.0,-2.3192,-2.2292,-2.3002,-2.3607,-2.3733,-2.3861,-2.3885,-2.3851,-2.4289,-2.4555,-2.4473,-2.432,-2.44,-2.4649,-2.4947,-2.4929,-2.4517,-2.4755,-2.4647,-2.4139,-2.4316,-2.4079,-2.3435,-2.4169,-2.4469,-2.4411,-2.5444,-2.5997,-2.6128,-2.669,-2.7003,-2.7241,-2.7489,-2.7631,-2.761,-2.7809,-2.7176,-2.6077,-2.6135,-2.5932,-2.5604,-2.5869,-2.6493,0.0,-2.6313,-2.6519,-2.6772,-2.6878,-2.6609,-2.6517,-2.707,-2.8039,-2.8463,-2.7916,-2.8531,-2.906,-2.9261,-2.8437,-2.8011,-2.8161,-2.5991,-2.5058,-2.595,-2.35,-2.2726,-2.4011,-2.2335,-2.1252,-2.095,-2.0588,-2.041,-2.0433,-2.041,-2.0422,-2.0455,-2.1118,-2.1711,-2.2273,-2.2639,-2.3584,-2.476,-2.4107,-2.395,-2.4225,-2.4999,-2.6082,-2.7208,-2.7441,-2.7696,-2.781,-2.7277,-2.7352,-2.757,-2.7102,-2.7143,-2.7252,-2.6726,-2.6801,-2.68,-2.5576,-2.5133,-2.4869,-2.4338,-2.392,-2.3626,-2.3615,-2.4011,-2.4321,-2.4115,-2.4597,-2.5027,-2.5027,-2.4871,-2.4559,0.0,-2.3667,0.0,0.0,-2.1728,-2.1446,-2.2105,-2.2735,-2.343,-2.4143,-2.3604,-2.3501,-2.4073,-2.3526,-2.3386,-2.3988,-2.4449,-2.4822,-2.5068,-2.5248,-2.5285,-2.5143,-2.4701,-2.4181,-2.3523,-2.4436,-2.487,-2.4838,-2.628,-2.6931,-2.6928,-2.762,-2.7951,-2.7998,-2.8243,-2.8477,-2.8631,-2.8678,-2.862,-2.847,-2.7484,-2.7332,-2.7374,-2.5223,-2.5929,-2.6369,-2.5738,-2.5575,-2.5697,-2.5978,-2.6056,-2.6403,-2.7242,-2.7882,-2.8286,-2.8395,-2.8676,-2.8884,-2.8915,-2.8637,-2.8353,-2.8115,-2.6571,-2.5927,-2.6434,-2.428,-2.3382,-2.4028,-2.2767,-2.1937,-2.1502,-2.094,-2.0896,-2.1306,-2.0545,-2.0435,-2.0886,-2.1407,-2.2234,-2.3239,-2.3748,-2.4484,-2.5131,-2.4115,-2.4294,-2.5256,-2.5661,-2.597,-2.6273,-2.6897,-2.733,-2.7632,-2.7417,-2.7415,-2.7547,-2.7726,-2.7454,-2.7083,-2.7124,-2.6975,-2.6609,-2.594,-2.6065,-2.615,-2.5113,-2.5036,-2.5041,-2.4532,-2.459,-2.4796,-2.4822,-2.5173,-2.5449,-2.5305,-2.5239,-2.4992,0.0,0.0,-2.3362,0.0,-2.1447,-2.0995,-2.1384,-2.2735,-2.3442,-2.291,-2.3459,-2.4044,-2.4543,-2.4231,-2.4351,-2.5122,-2.532,-2.5189,-2.4695,-2.5055,-2.5048,-2.4534,-2.4371,-2.4176,-2.3991,-2.4415,-2.4886,-2.5381,-2.6152,-2.6825,-2.7394,-2.7622,-2.7761,-2.7796,-2.7847,-2.8218,-2.8743,-2.8732,-2.9092,-2.9532,-2.8063,-2.7964,-2.8465,-2.4939,-2.5301,-2.5625,-2.5266,-2.4993,-2.4967,-2.5386,-2.5698,-2.6228,-2.7273,-2.7739,-2.8172,-2.8643,-2.8774,-2.8834,-2.8834,-2.8587,-2.8236,-2.7801,-2.6787,-2.6266,-2.6467,-2.5131,-2.4581,-2.4908,-2.3622,-2.2798,-2.2479,-2.154,-2.1235,-2.1527,-2.0753,-2.0533,-2.0864,-2.1084,-2.214,-2.3722,-2.4026,-2.4871,-2.5978,-2.5031,-2.5051,-2.5723,-2.6007,-2.6086,-2.615,-2.6594,-2.714,-2.7655,-2.7725,-2.7702,-2.7767,-2.8191,-2.7924,-2.7522,-2.7741,-2.752,-2.7055,-2.6623,-2.6772,-2.6831,-2.5748,-2.582,-2.589,-2.5187,-2.5382,-2.5799,-2.5935,-2.6225,-2.6533,-2.6674,-2.6256,-2.5659,0.0,0.0,-2.3253,0.0,-2.1257,-2.0973,-2.1047,-2.223,-2.287,-2.2443,-2.3021,-2.3731,-2.4405,-2.4107,-2.428,-2.5169,-2.5502,-2.5432,-2.487,-2.5298,-2.531,-2.4788,-2.4655,-2.4583,-2.4583,-2.4943,-2.5434,-2.5962,-2.6536,-2.7182,-2.7882,-2.7785,-2.7971,-2.8346,-2.8311,-2.8756,-2.9432,-2.9375,-2.9839,-3.0329,-2.8865,-2.8615,-2.8933,-2.4895,-2.461,-2.455,-2.4909,-2.4683,-2.4653,-2.508,-2.5447,-2.6067,-2.7064,-2.7713,-2.8241,-2.8723,-2.8986,-2.9126,-2.9103,-2.8452,-2.7861,-2.7402,-2.6677,-2.6307,-2.6373,-2.6076,-2.6136,-2.6606,-2.4719,-2.3727,-2.3727,-2.2324,-2.1477,-2.1174,-2.0973,-2.072,-2.0444,-2.0227,-2.146,-2.3663,-2.342,-2.4801,-2.711,-2.6634,-2.614,-2.5723,-2.5973,-2.6376,-2.679,-2.6615,-2.7139,-2.7921,-2.8139,-2.8219,-2.8219,-2.8431,-2.851,-2.851,-2.851,-2.8339,-2.8112,-2.7573,-2.7274,-2.6988,-2.6228,-2.6215,-2.6227,-2.5661,-2.6352,-2.7179,-2.7342,-2.7696,-2.8204,-2.8889,-2.776,-2.653,0.0,0.0,0.0,-2.0951,-2.109,-2.1292,-2.108,-2.1275,-2.1823,-2.2646,-2.2373,-2.2582,-2.3712,-2.3186,-2.3278,-2.4186,-2.5023,-2.5482,-2.5467,-2.5928,-2.6093,-2.5881,-2.5424,-2.52,-2.5253,-2.5937,-2.6399,-2.6628,-2.7348,-2.7952,-2.8369,-2.8121,-2.8544,-2.9419,-2.9441,-2.99,-3.0588,-3.0576,-3.0746,-3.0883,-2.9909,-2.9296,-2.8858,-2.4703,-2.4309,-2.4116,-2.4358,-2.4334,-2.4319,-2.4434,-2.5337,-2.6308,-2.7098,-2.814,-2.901,-2.9533,-2.9659,-2.9444,-2.8936,-2.8701,-2.8622,-2.8719,-2.7656,-2.7495,-2.8601,-2.7078,-2.6501,-2.7119,-2.5128,-2.415,-2.429,-2.2668,-2.2004,-2.2203,-2.1302,0.0,-2.0908,-2.05,-2.1563,-2.37,-2.3714,-2.4877,-2.6611,-2.5949,-2.5702,-2.5688,-2.5452,-2.6039,-2.7011,-2.7025,-2.7389,-2.7921,-2.8139,-2.8219,-2.8219,-2.8431,-2.851,-2.851,-2.851,-2.8339,-2.8155,-2.7837,-2.7829,-2.7727,-2.6984,-2.6971,-2.7115,-2.7127,-2.753,-2.8039,-2.8479,-2.8822,-2.8815,-2.8116,-2.7493,-2.6645,-2.5382,-2.3982,-2.2731,-2.1786,-2.1467,-2.1382,-2.1498,-2.2056,-2.2301,-2.1999,-2.2507,-2.3026,-2.348,-2.3546,-2.3948,-2.4874,-2.5009,-2.5049,-2.5049,-2.5816,-2.6034,-2.5668,-2.5582,-2.5517,-2.5517,-2.5984,-2.6321,-2.6541,-2.7137,-2.761,-2.801,-2.7803,-2.7969,-2.8398,-2.8391,-2.9057,-3.0076,-3.002,-3.0398,-3.0984,-3.0703,-3.0294,-2.9794,-2.4457,-2.4226,-2.4226,-2.4337,-2.4676,-2.4842,-2.469,-2.5153,-2.5825,-2.6808,-2.7725,-2.8529,-2.9037,-2.9387,-2.9317,-2.8678,-2.8499,-2.8321,-2.8076,-2.7777,-2.7889,-2.8498,-2.78,-2.7569,-2.7938,-2.6182,-2.5265,-2.5231,-2.334,-2.2451,-2.2505,0.0,0.0,-2.0918,-2.0651,-2.1431,-2.295,-2.3869,-2.5028,-2.6308,-2.5983,-2.588,0.0,-2.5751,-2.6249,-2.6999,-2.7121,-2.7537,-2.807,-2.8259,-2.8259,-2.8219,-2.8431,-2.851,-2.851,-2.851,-2.8339,-2.8179,-2.807,-2.8111,-2.8068,-2.7556,-2.785,-2.8203,-2.8136,-2.8621,-2.9176,-2.9588,-2.9616,-2.9447,-2.9129,-2.8028,-2.6521,-2.4593,-2.35,-2.2704,-2.2138,-2.1955,-2.1914,-2.2093,-2.2448,-2.2437,-2.1732,-2.244,-2.3001,-2.309,-2.3158,-2.355,-2.4367,-2.4816,-2.5049,-2.5038,-2.5936,-2.6162,-2.5738,-2.5812,-2.5812,-2.5738,-2.6135,-2.6462,-2.6701,-2.7321,-2.7784,-2.8094,-2.7952,-2.8125,-2.8462,-2.868,-2.934,-3.0208,-3.0508,-3.0791,-3.1029,-3.1241,-3.0819,-3.0219,-2.4223,-2.4276,-2.4521,-2.4454,-2.5111,-2.5609,-2.5453,-2.5237,-2.5481,-2.6625,-2.7202,-2.7717,-2.8186,-2.8755,-2.8929,-2.8386,-2.8117,-2.7599,-2.6823,-2.749,-2.783,-2.7469,-2.8322,-2.885,-2.885,-2.7403,-2.6515,-2.6229,-2.4106,-2.2836,0.0,0.0,0.0,-2.0733,-2.0701,-2.1219,-2.2288,-2.3994,-2.529,-2.6189,-2.6422,-2.6336,-2.6109,-2.6468,-2.6678,-2.6869,-2.7125,-2.7628,-2.8219,-2.8431,-2.8379,-2.8259,-2.8431,-2.851,-2.851,-2.851,-2.8339,-2.8219,-2.8219,-2.8219,-2.8203,-2.8125,-2.8724,-2.934,-2.9112,-2.9642,-3.0254,-3.0706,-3.0267,-3.0019,-3.0708,-2.8762,-2.6317,-2.4044,-2.3434,-2.3071,-2.2631,-2.278,-2.2895,-2.2828,-2.2883,0.0,-2.184,-2.2415,-2.2767,-2.2616,-2.2483,-2.2745,-2.3498,-2.4474,-2.5091,-2.533,-2.6223,-2.6485,-2.6134,-2.6345,-2.6345,-2.6176,-2.6574,-2.6858,-2.7154,-2.7816,-2.8191,-2.8436,-2.8353,-2.8603,-2.9098,-2.956,-3.0074,-3.0676,-3.1348,-3.1407,-3.1151,-3.154,-3.1081,-3.0327,-2.4484,-2.42,-2.3982,-2.362,-2.4266,-2.5152,-2.5935,-2.6657,-2.7255,-2.7717,-2.8344,-2.8831,-2.8908,-2.9247,-2.9066,-2.817,-2.7865,-2.7657,-2.7535,-2.7635,-2.7911,-2.8198,-2.8727,-2.9035,-2.9035,-2.7602,-2.6747,-2.652,-2.4337,-2.2945,0.0,-2.1498,-2.1007,-2.0871,-2.0765,-2.1767,-2.3609,-2.4488,-2.5471,-2.6411,-2.6462,-2.6209,-2.5856,-2.6732,-2.7059,-2.7101,-2.7587,-2.7947,-2.8219,-2.8431,-2.8471,-2.8471,-2.8471,-2.851,-2.851,-2.851,-2.8339,-2.8219,-2.8219,-2.8299,-2.8539,-2.893,-2.9488,-3.0078,-3.0887,-3.0718,-3.0604,-3.1554,-3.1021,-3.0264,-3.0058,-2.8286,-2.6321,-2.4754,-2.4763,-2.4898,-2.4617,-2.4635,-2.4534,-2.4119,-2.4433,-2.4138,-2.2782,-2.3002,-2.2922,-2.2174,-2.2301,-2.2956,-2.4262,-2.3985,-2.4521,-2.6044,-2.6813,-2.7239,-2.7403,-2.7653,-2.7739,-2.7739,-2.7955,-2.8205,-2.8391,-2.8531,-2.8572,-2.8554,-2.84,-2.8687,-2.9355,-2.944,-3.0135,-3.1175,-3.1315,-3.1439,-3.1584,-3.1673,-3.1146,-3.0471,-2.5152,-2.4651,-2.4348,-2.4741,-2.529,-2.5975,-2.6786,-2.7668,-2.8063,-2.7701,-2.7943,-2.8085,-2.7966,-2.8397,-2.8507,-2.7898,-2.7832,-2.7843,-2.7843,-2.8118,-2.825,-2.8172,-2.8679,-2.8868,-2.8752,-2.8055,-2.7375,-2.6704,-2.5044,-2.3764,0.0,-2.188,-2.1373,-2.1323,-2.1418,-2.2275,-2.3676,-2.4343,-2.5142,-2.5915,-2.5915,-2.5657,-2.5367,-2.6258,-2.662,-2.6779,-2.74,-2.7873,-2.8259,-2.8526,-2.8578,-2.851,-2.8618,-2.8578,-2.851,-2.851,-2.8431,-2.8339,-2.8219,-2.8611,-2.9088,-2.9273,-3.0056,-3.095,-3.1466,-3.1418,-3.1393,-3.1884,-3.1424,-3.0561,-2.9462,-2.7911,-2.6511,-2.568,-2.5302,-2.523,-2.5531,-2.5472,-2.5304,-2.4939,-2.4959,-2.4487,-2.3226,-2.3103,-2.2931,-2.2493,-2.2172,-2.2643,-2.4208,-2.3741,-2.4148,-2.5673,-2.6658,-2.7216,-2.7357,-2.796,-2.8215,-2.8084,-2.8421,-2.85,-2.8333,-2.8823,-2.8776,-2.8257,-2.8486,-2.8663,-2.884,-2.9469,-3.0441,-3.1528,-3.1528,-3.1572,-3.1705,-3.1805,-3.1397,-3.0925,-2.5795,-2.5284,-2.5,-2.5983,-2.6472,-2.6944,-2.7481,-2.8271,-2.8486,-2.7577,-2.76,-2.7524,-2.7161,-2.7843,-2.8228,-2.7944,-2.8018,-2.8081,-2.7991,-2.8396,-2.8429,-2.8012,-2.8495,-2.8767,-2.8643,-2.8498,-2.7954,-2.7069,-2.5729,-2.4566,-2.3474,-2.2275,-2.1776,-2.1934,-2.2298,-2.2979,-2.3946,-2.4578,-2.5304,-2.604,-2.6143,-2.597,-2.5762,-2.6337,-2.6652,-2.6759,-2.7367,-2.7945,-2.8506,-2.8854,-2.8826,-2.8719,-2.8894,-2.8899,-2.8847,-2.8847,-2.8875,-2.8875,-2.8702,-2.9286,-2.9923,-2.9852,-3.0812,-3.1783,-3.1895,-3.1951,-3.1979,-3.2057,-3.1621,-3.0743,-2.9124,-2.7975,-2.7093,-2.6499,-2.5907,-2.5708,-2.6178,-2.617,-2.5991,-2.5682,-2.5241,-2.4664,-2.372,-2.3201,-2.2969,-2.3142,-2.2291,-2.2479,-2.4071,-2.3771,-2.4135,-2.5376,-2.6537,-2.7175,-2.7243,-2.8269,-2.8693,-2.8449,-2.8786,-2.8694,-2.8234,-2.9032,-2.8885,-2.8069,-2.8751,-2.8881,-2.8767,-2.9785,-3.0779,-3.1592,-3.1712,-3.1756,-3.1756,-3.1986,-3.1804,-3.1571,-2.6135,-2.5955,-2.5797,-2.5926,-2.6649,-2.7261,-2.7304,-2.818,-2.8606,-2.7991,-2.8536,-2.867,-2.796,-2.8775,-2.9166,-2.8718,-2.8483,-2.8262,-2.8047,-2.8034,-2.8045,-2.7991,-2.8495,-2.9013,-2.9372,-2.8732,-2.8231,-2.7908,-2.6029,-2.466,-2.3832,-2.2366,-2.2024,-2.2639,-2.3074,-2.4093,-2.5532,-2.6083,-2.6984,-2.8062,-2.856,-2.8582,-2.8333,-2.8422,-2.825,-2.8036,-2.8084,-2.8602,-2.922,-2.944,-2.9371,-2.9261,-2.944,-2.9697,-2.9941,-2.9941,-3.0096,-3.0197,-3.0209,-3.0577,-3.1079,-3.1534,-3.19,-3.2269,-3.2837,-3.2386,-3.1999,-3.2289,-3.1593,-3.0615,-2.9538,-2.9044,-2.8366,-2.699,-2.7228,-2.748,-2.7122,-2.7221,-2.7088,-2.649,-2.5789,-2.5199,-2.4777,-2.3621,-2.3223,-2.4013,-2.2969,-2.2893,-2.4212,-2.4104,-2.4681,-2.6077,-2.704,-2.7705,-2.8005,-2.934,-2.9893,-2.9653,-2.9697,-2.943,-2.89,-2.9238,-2.9073,-2.8586,-2.9127,-2.9725,-3.0315,-3.0524,-3.09,-3.1308,-3.1723,-3.1893,-3.1893,-3.2134,-3.2307,-3.2415,-2.6834,-2.6346,-2.6163,-2.6998,-2.7139,-2.7344,-2.8091,-2.8552,-2.8628,-2.8056,-2.8554,-2.8767,-2.8294,-2.8449,-2.8605,-2.8571,-2.8293,-2.8247,-2.8451,-2.8473,-2.8433,-2.8273,-2.8725,-2.9087,-2.9297,-2.9308,-2.8969,-2.8222,-2.6974,-2.5808,-2.471,-2.3568,-2.315,-2.3448,-2.4368,-2.5104,-2.5773,-2.6457,-2.6938,-2.7244,-2.7452,-2.7435,-2.7344,-2.8101,-2.8409,-2.8463,-2.9097,-2.9551,-2.9814,-3.0022,-2.9939,-2.9856,-3.0187,-3.028,-3.0283,-3.0283,-3.0438,-3.0604,-3.0438,-3.0974,-3.163,-3.1841,-3.2309,-3.2792,-3.3018,-3.2734,-3.2407,-3.2544,-3.1804,-3.0797,-2.9989,-2.9121,-2.8357,-2.7913,-2.7589,-2.7477,-2.7592,-2.7667,-2.7585,-2.7174,-2.6293,-2.5678,-2.5383,-2.3897,-2.3086,-2.3515,-2.2637,-2.2686,-2.3999,-2.4213,-2.4658,-2.5461,-2.7429,-2.8528,-2.8519,-2.9956,-3.0631,-3.0522,-3.0522,-3.0285,-2.9887,-2.969,-2.9255,-2.8754,-2.9581,-3.0097,-3.0338,-3.0498,-3.0868,-3.1281,-3.1489,-3.1772,-3.2089,-3.2327,-3.2465,-3.267,-2.7233,-2.6774,-2.6662,-2.7783,-2.7664,-2.7675,-2.8462,-2.8617,-2.8544,-2.8058,-2.8411,-2.8628,-2.843,-2.8405,-2.8528,-2.8721,-2.8528,-2.8626,-2.8956,-2.9024,-2.8916,-2.871,-2.9032,-2.9294,-2.9409,-2.9647,-2.9421,-2.8703,-2.7934,-2.7015,-2.5978,-2.5168,-2.474,-2.4713,-2.5695,-2.6272,-2.6495,-2.7058,-2.7364,-2.7464,-2.7452,-2.742,-2.753,-2.8438,-2.8846,-2.9076,-2.9892,-3.0266,-3.0356,-3.0676,-3.0689,-3.0701,-3.0851,-3.09,-3.087,-3.0786,-3.1039,-3.1292,-3.1039,-3.1588,-3.2237,-3.2237,-3.2609,-3.2982,-3.3068,-3.2896,-3.2711,-3.2711,-3.1921,-3.1034,-3.0501,-2.9486,-2.8717,-2.8682,-2.8136,-2.777,-2.7805,-2.7909,-2.781,-2.7284,-2.6445,-2.5862,-2.572,-2.4394,-2.358,-2.3746,-2.3291,-2.3379,-2.4152,-2.4514,-2.4934,-2.5419,-2.7681,-2.8804,-2.8688,-3.0208,-3.0991,-3.0971,-3.0971,-3.0818,-3.0498,-3.0169,-2.982,-2.9537,-3.0186,-3.0518,-3.0564,-3.048,-3.0738,-3.116,-3.1498,-3.1883,-3.2291,-3.2609,-3.2941,-3.3273,-2.7232,-2.7271,-2.7409,-2.7902,-2.8233,-2.8279,-2.8045,-2.8243,-2.829,-2.8034,-2.8243,-2.8397,-2.8397,-2.9046,-2.9474,-2.9474,-2.9474,-2.9474,-2.9485,-2.9485,-2.9485,-2.9474,-2.9485,-2.9634,-2.9886,-2.9634,-2.9477,-2.9493,-2.8758,-2.8159,-2.7637,-2.7137,-2.6718,-2.6501,-2.6978,-2.7596,-2.8254,-2.83,-2.8855,-2.9748,-2.9682,-2.9839,-3.005,-3.0062,-3.0074,-3.0103,-3.0313,-3.0622,-3.0953,-3.1449,-3.1748,-3.1884,-3.135,-3.1544,-3.1925,-3.1737,-3.2176,-3.2612,-3.2407,-3.2723,-3.3111,-3.3111,-3.2896,-3.2754,-3.3038,-3.2896,-3.2711,-3.2711,-3.1921,-3.1186,-3.1174,-3.058,-2.9851,-2.9117,-2.9157,-2.8843,-2.7673,-2.7886,-2.7789,-2.665,-2.603,-2.5708,-2.5704,-2.5271,-2.5047,-2.5271,-2.5523,-2.5417,-2.4935,-2.5214,-2.5739,-2.6439,-2.7673,-2.8342,-2.8407,-3.0109,-3.098,-3.0891,-3.0891,-3.0785,-3.0516,-3.0712,-3.0928,-3.1144,-3.0969,-3.1132,-3.1447,-3.0708,-3.0547,-3.0898,-3.1962,-3.2393,-3.2471,-3.3068,-3.3914,-3.4584,-2.7753,-2.7909,-2.7984,-2.7983,-2.8179,-2.8344,-2.8297,-2.8348,-2.8441,-2.8513,-2.8617,-2.8702,-2.8861,-2.8982,-2.9024,-2.9024,-2.9024,-2.9024,-2.9024,-2.9174,-2.9301,-2.9485,-2.9691,-2.9874,-3.0091,-3.0034,-2.992,-2.9795,-2.9005,-2.8277,-2.7648,-2.7602,-2.7557,-2.7536,-2.7638,-2.7813,-2.8035,-2.8046,-2.8433,-2.9047,-2.8792,-2.8974,-2.9415,-2.9899,-2.9869,-2.973,-3.1028,-3.1338,-3.1217,-3.1908,-3.2209,-3.2232,-3.2061,-3.224,-3.2463,-3.2407,-3.268,-3.2896,-3.268,-3.2853,-3.3124,-3.3124,-3.3038,-3.2995,-3.3068,-3.2896,-3.268,-3.2519,-3.211,-3.1704,-3.151,-3.1004,-3.0489,-3.003,-2.9603,-2.9109,-2.8603,-2.8445,-2.8239,-2.7714,-2.718,-2.6874,-2.6874,-2.5916,-2.5287,-2.5317,-2.482,-2.4582,-2.4599,-2.5616,-2.6329,-2.6704,-2.8404,-2.955,-3.0119,-3.0805,-3.1177,-3.1284,-3.0931,-3.0758,-3.0719,-3.1527,-3.1594,-3.1153,-3.1476,-3.1648,-3.1574,-3.1023,-3.097,-3.1305,-3.1811,-3.2306,-3.2883,-3.3473,-3.4254,-3.495,-2.8231,-2.8338,-2.8394,-2.8246,-2.8397,-2.8536,-2.8359,-2.8475,-2.8494,-2.8488,-2.8733,-2.8871,-2.8825,-2.8967,-2.9094,-2.9196,-2.9231,-2.9231,-2.9231,-2.9405,-2.9542,-2.9646,-2.9874,-3.0045,-3.0216,-3.0306,-3.0273,-3.0148,-2.9773,-2.9239,-2.856,-2.8712,-2.8579,-2.8205,-2.8181,-2.8204,-2.8326,-2.8326,-2.8556,-2.8911,-2.8769,-2.8831,-2.8999,-2.9745,-2.9828,-2.9694,-3.1162,-3.1504,-3.1418,-3.2087,-3.2556,-3.279,-3.2667,-3.2959,-3.3158,-3.2742,-3.281,-3.3081,-3.2896,-3.2982,-3.3124,-3.3197,-3.3068,-3.2939,-3.2939,-3.281,-3.268,-3.2562,-3.23,-3.2115,-3.1915,-3.1669,-3.1302,-3.0785,-3.0126,-2.9562,-2.907,-2.8714,-2.8319,-2.7826,-2.7557,-2.7355,-2.7172,-2.6566,-2.6205,-2.6282,-2.5835,-2.5685,-2.5878,-2.6097,-2.6653,-2.7714,-2.9142,-3.032,-3.1137,-3.1386,-3.1613,-3.1816,-3.1558,-3.1536,-3.17,-3.2425,-3.2436,-3.1847,-3.2077,-3.2007,-3.1769,-3.1228,-3.112,-3.1383,-3.1993,-3.2567,-3.3093,-3.4032,-3.4738,-3.5236,-2.8566,-2.8618,-2.8638,-2.8576,-2.8828,-2.8862,-2.8408,-2.8517,-2.853,-2.8098,-2.8629,-2.8912,-2.8538,-2.9088,-2.9601,-2.9931,-2.9863,-2.984,-2.9886,-3.0045,-3.0091,-2.9886,-3.0091,-3.0216,-3.0216,-3.0487,-3.0599,-3.0576,-3.0869,-3.0711,-3.0161,-3.0158,-2.9616,-2.8621,-2.8586,-2.874,-2.8986,-2.8986,-2.9092,-2.9333,-2.9484,-2.9314,-2.8974,-2.9723,-2.9987,-3.0065,-3.0902,-3.1368,-3.1637,-3.2097,-3.2827,-3.3482,-3.3238,-3.3593,-3.3889,-3.2785,-3.2779,-3.3154,-3.3116,-3.3061,-3.3104,-3.3292,-3.3031,-3.2711,-3.2711,-3.2711,-3.2711,-3.2711,-3.2562,-3.2388,-3.2431,-3.2431,-3.216,-3.1369,-3.0779,-3.0077,-2.9147,-2.8714,-2.816,-2.7266,-2.7325,-2.7297,-2.6955,-2.7219,-2.7526,-2.7839,-2.8011,-2.8079,-2.8119,-2.6636,-2.6878,-2.9244,-2.9773,-3.0525,-3.1631,-3.1827,-3.2059,-3.2321,-3.2562,-3.2791,-3.3061,-3.3258,-3.3283,-3.3061,-3.2639,-3.2272,-3.1968,-3.1318,-3.1065,-3.1209,-3.2501,-3.3053,-3.3265,-3.4619,-3.5236,-3.544,-2.809,-2.8659,-2.8918,-2.8214,-2.873,-2.9078,-2.8693,-2.8652,-2.8673,-2.8625,-2.8762,-2.9019,-2.9517,-2.9366,-2.9544,-3.0361,-2.9721,-2.937,-2.9588,-2.9829,-2.9931,-2.9886,-3.0091,-3.0306,-3.0487,-3.0578,-3.0481,-3.0285,-3.0656,-3.0395,-2.9578,-2.969,-2.9397,-2.8828,-2.8629,-2.857,-2.8611,-2.8611,-2.8891,-2.9304,-2.9333,-2.9542,-2.9885,-3.0615,-3.065,-3.046,-3.1851,-3.2237,-3.2189,-3.2729,-3.3245,-3.3682,-3.3926,-3.3649,-3.3199,-3.3152,-3.3356,-3.3467,-3.3071,-3.2819,-3.2722,-3.2722,-3.284,-3.2939,-3.2754,-3.2711,-3.2711,-3.2711,-3.2562,-3.2531,-3.2865,-3.2649,-3.2247,-3.1821,-3.1001,-3.016,-2.9544,-2.8783,-2.8171,-2.7961,-2.7853,-2.7853,-2.8092,-2.7709,-2.7472,-2.753,-2.7163,-2.7032,-2.7337,-2.6972,-2.7541,-2.9256,-2.9289,-3.0096,-3.1819,-3.1336,-3.1272,-3.1635,-3.1933,-3.2217,-3.2428,-3.2953,-3.3154,-3.3086,-3.2855,-3.2536,-3.2104,-3.1746,-3.1785,-3.2176,-3.2921,-3.362,-3.4232,-3.5049,-3.548,-3.5683,-2.8816,-2.927,-2.9466,-2.8959,-2.929,-2.9537,-2.9218,-2.907,-2.9005,-2.8925,-2.9234,-2.9577,-2.9847,-2.9825,-3.0092,-3.0893,-3.0062,-2.9508,-2.9691,-2.992,-3.0057,-3.0057,-3.0136,-3.0397,-3.0769,-3.0781,-3.0702,-3.0502,-3.0498,-3.0265,-2.9875,-2.9827,-2.9591,-2.9227,-2.906,-2.8887,-2.8669,-2.9003,-2.9177,-2.9262,-2.987,-3.0143,-3.0281,-3.1004,-3.126,-3.1302,-3.1871,-3.2356,-3.2684,-3.2806,-3.336,-3.3951,-3.4015,-3.3926,-3.3762,-3.3418,-3.3312,-3.3354,-3.3428,-3.3014,-3.2561,-3.2394,-3.2824,-3.3154,-3.2939,-3.2723,-3.2636,-3.2853,-3.2649,-3.2519,-3.3025,-3.2909,-3.2506,-3.1875,-3.0888,-3.0016,-2.9398,-2.8447,-2.7905,-2.8183,-2.8111,-2.8111,-2.8339,-2.8139,-2.79,-2.7775,-2.7565,-2.7525,-2.7711,-2.7977,-2.8638,-2.9782,-2.9588,-3.0304,-3.2105,-3.1748,-3.1519,-3.151,-3.2015,-3.2434,-3.2773,-3.3101,-3.3283,-3.336,-3.3162,-3.2905,-3.2651,-3.2423,-3.2489,-3.2764,-3.3528,-3.4111,-3.4592,-3.5292,-3.5602,-3.5723,-2.9838,-2.9942,-2.9921,-2.9901,-2.9953,-2.9953,-2.9752,-2.9584,-2.9447,-2.9241,-2.9775,-3.0143,-3.0013,-3.0326,-3.0752,-3.1335,-3.0511,-3.0045,-3.0239,-3.0411,-3.0491,-3.0537,-3.0468,-3.066,-3.118,-3.1154,-3.1068,-3.0922,-3.055,-3.0368,-3.0396,-3.0283,-3.0082,-2.9797,-2.9797,-2.9541,-2.9151,-2.9702,-2.9681,-2.945,-3.0588,-3.086,-3.0614,-3.1313,-3.1926,-3.2332,-3.1901,-3.2462,-3.3333,-3.298,-3.3534,-3.4321,-3.3995,-3.4242,-3.4558,-3.3768,-3.3253,-3.3132,-3.3713,-3.3283,-3.259,-3.2198,-3.2727,-3.3254,-3.3142,-3.2717,-3.2506,-3.3013,-3.2779,-3.2605,-3.3038,-3.3124,-3.2714,-3.1581,-3.07,-2.9805,-2.8913,-2.8064,-2.768,-2.8079,-2.8139,-2.8179,-2.8259,-2.8391,-2.8431,-2.8299,-2.8463,-2.8591,-2.8631,-2.9095,-2.9694,-3.0452,-3.0196,-3.0707,-3.2209,-3.2351,-3.2167,-3.1724,-3.237,-3.2927,-3.3313,-3.3398,-3.3556,-3.3687,-3.3447,-3.3271,-3.3196,-3.3132,-3.312,-3.3291,-3.4245,-3.4658,-3.4833,-3.5533,-3.5804,-3.5804,-2.9363,-2.9559,-2.9599,-2.9425,-2.9735,-2.9953,-2.9752,-2.987,-2.9899,-2.9736,-2.997,-3.0274,-3.0477,-3.0359,-3.0575,-3.1349,-3.0639,-3.0629,-3.168,-3.1785,-3.1914,-3.2148,-3.1738,-3.1595,-3.1926,-3.1857,-3.1552,-3.0922,-3.1393,-3.1196,-3.0396,-3.0782,-3.0828,-3.0606,-3.0606,-3.0556,-3.0458,-3.0114,-3.0204,-3.0548,-3.0745,-3.1166,-3.1704,-3.2294,-3.2812,-3.3224,-3.3456,-3.4,-3.4572,-3.4081,-3.4486,-3.5059,-3.4783,-3.4289,-3.3964,-3.4747,-3.4262,-3.3414,-3.3037,-3.3005,-3.2872,-3.199,-3.2241,-3.2786,-3.3054,-3.2662,-3.2406,-3.298,-3.3038,-3.3025,-3.3081,-3.3124,-3.2549,-3.076,-3.0597,-3.0017,-2.815,-2.8,-2.8056,-2.795,-2.7962,-2.8082,-2.8431,-2.8339,-2.8367,-2.8685,-2.8826,-2.9009,-2.9172,-2.9523,-3.0049,-3.0821,-3.0326,-3.0501,-3.1363,-3.2055,-3.2351,-3.2265,-3.2556,-3.2766,-3.284,-3.3386,-3.367,-3.3713,-3.3888,-3.3662,-3.3224,-3.3552,-3.3794,-3.4086,-3.4814,-3.5405,-3.5909,-3.6191,-3.6192,-3.6072,-2.9622,-2.9745,-2.9765,-2.9715,-2.9849,-2.9974,-2.987,-2.9979,-3.0101,-3.0177,-3.0542,-3.0937,-3.1367,-3.1311,-3.1524,-3.2339,-3.1928,-3.2087,-3.3095,-3.2133,-3.1763,-3.2263,-3.2066,-3.196,-3.2091,-3.2026,-3.186,-3.1574,-3.1528,-3.1577,-3.1711,-3.147,-3.1363,-3.1393,-3.1506,-3.1373,-3.1128,-3.1135,-3.1281,-3.1533,-3.1807,-3.2126,-3.2487,-3.3043,-3.3576,-3.4015,-3.3835,-3.439,-3.5126,-3.473,-3.48,-3.5072,-3.5115,-3.4627,-3.4071,-3.4306,-3.4214,-3.3835,-3.2814,-3.3177,-3.3586,-3.2608,-3.2753,-3.3195,-3.3262,-3.2855,-3.2484,-3.2616,-3.2769,-3.2939,-3.3068,-3.3124,-3.2674,-3.1361,-3.0737,-2.9959,-2.8707,-2.8363,-2.8326,-2.8624,-2.891,-2.92,-2.9504,-2.9463,-2.9451,-2.9654,-2.9721,-2.9866,-3.0085,-3.0537,-3.0992,-3.1424,-3.1217,-3.1083,-3.1008,-3.2044,-3.2414,-3.2117,-3.2789,-3.3056,-3.3099,-3.3768,-3.4021,-3.3937,-3.441,-3.4419,-3.4088,-3.4605,-3.4902,-3.5049,-3.5608,-3.6038,-3.6286,-3.6365,-3.6325,-3.6286,-2.9921,-2.9942,-2.9942,-3.0088,-3.0099,-3.0099,-3.0203,-3.0262,-3.0437,-3.0629,-3.1035,-3.1467,-3.1851,-3.1897,-3.223,-3.3051,-3.2859,-3.3118,-3.3999,-3.2533,-3.1961,-3.2765,-3.2759,-3.2499,-3.2105,-3.2398,-3.2474,-3.2352,-3.2043,-3.2272,-3.2965,-3.2363,-3.2144,-3.2259,-3.2445,-3.2331,-3.1928,-3.2209,-3.2344,-3.2498,-3.2834,-3.3039,-3.3248,-3.3685,-3.4178,-3.4568,-3.4118,-3.4611,-3.5406,-3.5227,-3.5077,-3.5016,-3.5286,-3.491,-3.4319,-3.3901,-3.4071,-3.4134,-3.2981,-3.3426,-3.4014,-3.3119,-3.3213,-3.3513,-3.3538,-3.3156,-3.2766,-3.2667,-3.2714,-3.2853,-3.3111,-3.3111,-3.2812,-3.1871,-3.0943,-3.0143,-2.9504,-2.8999,-2.8894,-2.9436,-2.9875,-3.0199,-3.0313,-3.0313,-3.0367,-3.0492,-3.056,-3.0704,-3.105,-3.1508,-3.1859,-3.2017,-3.2123,-3.1853,-3.1171,-3.2142,-3.2469,-3.209,-3.294,-3.3398,-3.3471,-3.4105,-3.4356,-3.4369,-3.4867,-3.5044,-3.4962,-3.544,-3.5669,-3.579,-3.6232,-3.6445,-3.6484,-3.651,-3.651,-3.6484,-2.9859,-2.9774,-2.9764,-3.0287,-3.0391,-3.0453,-3.0672,-3.095,-3.1124,-3.1124,-3.1254,-3.1329,-3.1379,-3.1349,-3.1706,-3.25,-3.2316,-3.2664,-3.3923,-3.3696,-3.3947,-3.492,-3.471,-3.3793,-3.2034,-3.3441,-3.388,-3.3138,-3.3696,-3.3784,-3.3456,-3.349,-3.345,-3.3292,-3.3492,-3.3594,-3.3517,-3.3034,-3.311,-3.3546,-3.3307,-3.3519,-3.4066,-3.4259,-3.452,-3.4805,-3.4825,-3.5132,-3.5631,-3.5931,-3.5661,-3.5286,-3.5502,-3.5023,-3.4384,-3.4345,-3.4371,-3.4267,-3.3679,-3.3587,-3.3558,-3.3014,-3.2915,-3.3139,-3.3739,-3.3445,-3.325,-3.392,-3.3525,-3.3111,-3.3356,-3.324,-3.2674,-3.1361,-3.1351,-3.108,-2.9858,-3.0007,-3.0174,-3.0067,-3.0259,-3.0313,-3.0128,-3.0128,-3.0295,-3.0736,-3.0997,-3.1351,-3.1799,-3.2161,-3.2339,-3.237,-3.2525,-3.2513,-3.2277,-3.2407,-3.2494,-3.2649,-3.297,-3.3313,-3.367,-3.4189,-3.4605,-3.5031,-3.5086,-3.5195,-3.5358,-3.5399,-3.5642,-3.6005,-3.6312,-3.6524,-3.6707,-3.6875,-3.685,-3.6707,-3.0162,-3.0183,-3.0235,-3.0557,-3.0672,-3.0724,-3.1034,-3.088,-3.0929,-3.1444,-3.1529,-3.1665,-3.1999,-3.2468,-3.2912,-3.3206,-3.357,-3.397,-3.4462,-3.4727,-3.481,-3.4689,-3.4588,-3.3942,-3.2783,-3.3464,-3.3754,-3.3632,-3.384,-3.4048,-3.4192,-3.4037,-3.3907,-3.3865,-3.4176,-3.4343,-3.433,-3.4286,-3.4367,-3.4551,-3.441,-3.4545,-3.4743,-3.4825,-3.4908,-3.4989,-3.4993,-3.5352,-3.5876,-3.636,-3.6132,-3.5764,-3.6194,-3.5663,-3.4825,-3.466,-3.4743,-3.4744,-3.441,-3.4221,-3.4042,-3.3877,-3.3982,-3.4242,-3.4507,-3.4313,-3.3979,-3.3741,-3.3465,-3.3313,-3.3398,-3.3035,-3.2697,-3.2525,-3.1943,-3.1369,-3.1087,-3.1134,-3.1173,-3.1215,-3.1582,-3.1791,-3.1706,-3.1706,-3.1804,-3.1974,-3.2074,-3.2271,-3.2627,-3.2741,-3.2822,-3.2822,-3.3025,-3.297,-3.2593,-3.2736,-3.2952,-3.3142,-3.3343,-3.3641,-3.3992,-3.4577,-3.4784,-3.4688,-3.5236,-3.5358,-3.5249,-3.5656,-3.5898,-3.6058,-3.6312,-3.6524,-3.6721,-3.6786,-3.685,-3.6889,-3.0287,-3.0391,-3.0505,-3.0879,-3.0803,-3.0809,-3.1044,-3.0795,-3.074,-3.1283,-3.1479,-3.183,-3.2417,-3.3056,-3.3592,-3.3904,-3.4445,-3.4884,-3.503,-3.5448,-3.5305,-3.4436,-3.4504,-3.415,-3.3263,-3.3795,-3.4149,-3.4204,-3.421,-3.4441,-3.4788,-3.4517,-3.4369,-3.4314,-3.4647,-3.4812,-3.4853,-3.5072,-3.5195,-3.5195,-3.5318,-3.5358,-3.5318,-3.5453,-3.5413,-3.5318,-3.5358,-3.5572,-3.5932,-3.655,-3.6398,-3.6102,-3.6503,-3.5997,-3.5154,-3.4962,-3.5044,-3.5194,-3.5188,-3.4888,-3.4564,-3.4439,-3.4673,-3.4938,-3.5102,-3.4997,-3.4758,-3.4484,-3.3926,-3.3577,-3.3841,-3.3335,-3.2975,-3.3191,-3.2512,-3.1947,-3.2076,-3.201,-3.2006,-3.2109,-3.2487,-3.268,-3.2593,-3.2593,-3.2636,-3.2711,-3.2711,-3.281,-3.3081,-3.3154,-3.3197,-3.3197,-3.3398,-3.3343,-3.3,-3.3185,-3.3398,-3.3611,-3.381,-3.4105,-3.441,-3.4949,-3.5072,-3.4853,-3.5426,-3.5562,-3.5318,-3.5777,-3.6072,-3.6206,-3.6286,-3.651,-3.6786,-3.6707,-3.6811,-3.6978,-3.0202,-3.038,-3.0599,-3.1116,-3.082,-3.0608,-3.0848,-3.0751,-3.0599,-3.0588,-3.1024,-3.159,-3.2431,-3.2732,-3.333,-3.4288,-3.4628,-3.5017,-3.556,-3.5762,-3.5428,-3.4363,-3.4803,-3.4565,-3.3424,-3.4709,-3.5236,-3.4917,-3.5076,-3.5191,-3.5178,-3.5131,-3.4936,-3.4716,-3.499,-3.5127,-3.5127,-3.5318,-3.5399,-3.544,-3.5831,-3.5871,-3.5764,-3.6232,-3.6098,-3.571,-3.5911,-3.5871,-3.5805,-3.6402,-3.6481,-3.6315,-3.6315,-3.587,-3.5358,-3.5154,-3.5236,-3.5479,-3.5904,-3.5553,-3.499,-3.4535,-3.4673,-3.4999,-3.5346,-3.5398,-3.5641,-3.6464,-3.5079,-3.3947,-3.474,-3.4238,-3.3546,-3.2979,-3.3014,-3.2965,-3.2579,-3.2632,-3.2723,-3.2723,-3.2711,-3.2636,-3.2431,-3.2388,-3.2475,-3.2667,-3.2711,-3.281,-3.3081,-3.3313,-3.3398,-3.3398,-3.3598,-3.3713,-3.3713,-3.3713,-3.3852,-3.4118,-3.4314,-3.4647,-3.5127,-3.5318,-3.5507,-3.571,-3.571,-3.571,-3.571,-3.571,-3.5978,-3.6365,-3.6166,-3.6457,-3.6993,-3.6786,-3.6811,-3.6978,-2.9899,-3.0245,-3.0464,-3.0502,-3.0628,-3.0858,-3.1169,-3.1147,-3.1256,-3.1589,-3.1773,-3.2085,-3.2709,-3.3484,-3.406,-3.4372,-3.4835,-3.513,-3.5253,-3.5073,-3.4976,-3.4945,-3.4796,-3.4464,-3.3878,-3.4285,-3.4673,-3.5048,-3.4502,-3.4386,-3.4713,-3.4701,-3.4701,-3.4794,-3.5507,-3.5871,-3.6032,-3.6072,-3.6112,-3.6098,-3.6403,-3.6468,-3.6429,-3.6719,-3.664,-3.6429,-3.6468,-3.6363,-3.6274,-3.6879,-3.6948,-3.6674,-3.6564,-3.6401,-3.6129,-3.5479,-3.544,-3.5602,-3.5573,-3.5452,-3.533,-3.5495,-3.5785,-3.6057,-3.614,-3.6361,-3.6566,-3.6657,-3.5856,-3.5058,-3.4765,-3.4153,-3.359,-3.331,-3.3106,-3.3,-3.3132,-3.3169,-3.3185,-3.3185,-3.3068,-3.2939,-3.2909,-3.3025,-3.3068,-3.2982,-3.3099,-3.3313,-3.3513,-3.3781,-3.381,-3.3598,-3.4134,-3.4259,-3.3992,-3.381,-3.3852,-3.4118,-3.3716,-3.4101,-3.51,-3.474,-3.4969,-3.571,-3.571,-3.579,-3.5911,-3.5978,-3.6152,-3.6405,-3.6325,-3.651,-3.6786,-3.6707,-3.6811,-3.7017,-2.9593,-2.9955,-3.0201,-3.0215,-3.0537,-3.0822,-3.0981,-3.1189,-3.1484,-3.1911,-3.2228,-3.2672,-3.3301,-3.4063,-3.4593,-3.4667,-3.5006,-3.5305,-3.5468,-3.5179,-3.5187,-3.5614,-3.5178,-3.4805,-3.4618,-3.4618,-3.4908,-3.548,-3.4942,-3.4727,-3.4867,-3.4867,-3.5024,-3.5297,-3.576,-3.6274,-3.6772,-3.6772,-3.6772,-3.6772,-3.6993,-3.707,-3.707,-3.7187,-3.7109,-3.694,-3.7017,-3.7083,-3.7165,-3.7447,-3.7481,-3.7414,-3.7536,-3.7318,-3.6893,-3.6307,-3.6075,-3.6034,-3.6293,-3.6129,-3.5965,-3.6488,-3.6607,-3.6615,-3.6615,-3.6902,-3.7166,-3.7254,-3.6382,-3.5539,-3.5236,-3.4521,-3.3859,-3.3527,-3.3315,-3.3235,-3.3308,-3.3314,-3.3356,-3.3513,-3.3356,-3.324,-3.324,-3.3398,-3.3573,-3.3685,-3.403,-3.4275,-3.4392,-3.4663,-3.4542,-3.4004,-3.4452,-3.4395,-3.3785,-3.3608,-3.3788,-3.423,-3.3794,-3.4107,-3.51,-3.4768,-3.5008,-3.5723,-3.5804,-3.5938,-3.6058,-3.6072,-3.6286,-3.6524,-3.6445,-3.6589,-3.6811,-3.6707,-3.6889,-3.7148,-2.926,-2.9584,-2.9851,-3.0041,-3.0398,-3.0588,-3.0588,-3.108,-3.1558,-3.194,-3.2526,-3.3276,-3.4102,-3.4595,-3.4895,-3.5115,-3.5236,-3.5491,-3.6005,-3.5752,-3.5801,-3.6233,-3.5777,-3.5507,-3.5562,-3.5507,-3.5669,-3.6071,-3.6016,-3.5833,-3.5529,-3.5491,-3.5694,-3.6099,-3.5993,-3.6497,-3.738,-3.738,-3.738,-3.7419,-3.761,-3.7687,-3.7687,-3.7687,-3.7572,-3.7433,-3.7682,-3.8004,-3.8334,-3.8152,-3.821,-3.8422,-3.8975,-3.8491,-3.7684,-3.7398,-3.6902,-3.6669,-3.7538,-3.7221,-3.6796,-3.7379,-3.7216,-3.6847,-3.6764,-3.7042,-3.7492,-3.7949,-3.6669,-3.5551,-3.5909,-3.5182,-3.4293,-3.3716,-3.3698,-3.363,-3.3336,-3.322,-3.3326,-3.3683,-3.3556,-3.3441,-3.3441,-3.3637,-3.4046,-3.4666,-3.5236,-3.5519,-3.5563,-3.5675,-3.5358,-3.4512,-3.4618,-3.4283,-3.3435,-3.3408,-3.3728,-3.4282,-3.4178,-3.4433,-3.5074,-3.5113,-3.5379,-3.5764,-3.5992,-3.6126,-3.6166,-3.6126,-3.6365,-3.6682,-3.6524,-3.6654,-3.6993,-3.6811,-3.6982,-3.7303,-2.8939,-2.9284,-2.9474,-2.9139,-2.9936,-3.0588,-3.0588,-3.1349,-3.2233,-3.3114,-3.3198,-3.3658,-3.4848,-3.5011,-3.5095,-3.5331,-3.5283,-3.5247,-3.5319,-3.538,-3.5628,-3.6035,-3.6086,-3.6282,-3.6665,-3.6282,-3.6322,-3.6783,-3.6308,-3.6178,-3.6415,-3.6255,-3.6405,-3.6816,-3.7068,-3.752,-3.7976,-3.7848,-3.7863,-3.8014,-3.8217,-3.8292,-3.8329,-3.8501,-3.8427,-3.8312,-3.8897,-3.8943,-3.8867,-3.9439,-3.9534,-3.9438,-3.9396,-3.913,-3.8588,-3.7796,-3.7354,-3.7191,-3.7548,-3.7412,-3.7277,-3.7715,-3.7739,-3.7448,-3.6609,-3.669,-3.6927,-3.6871,-3.6637,-3.6224,-3.5336,-3.5132,-3.478,-3.3846,-3.3872,-3.3982,-3.392,-3.3872,-3.3907,-3.3992,-3.381,-3.3641,-3.3641,-3.4093,-3.4809,-3.5713,-3.5737,-3.5815,-3.5978,-3.5734,-3.5493,-3.5116,-3.4763,-3.454,-3.4468,-3.4326,-3.3993,-3.3555,-3.3528,-3.3886,-3.4634,-3.4672,-3.526,-3.6232,-3.6152,-3.6286,-3.6563,-3.6405,-3.6484,-3.6721,-3.6642,-3.6772,-3.7017,-3.7109,-3.7226,-3.7341,-2.8625,-2.9011,-2.9316,-2.933,-3.0233,-3.1113,-3.1424,-3.229,-3.3206,-3.4054,-3.3873,-3.409,-3.5238,-3.5062,-3.5027,-3.5277,-3.5381,-3.542,-3.5372,-3.579,-3.6151,-3.6468,-3.6769,-3.7081,-3.7429,-3.7376,-3.7376,-3.7429,-3.723,-3.7066,-3.6987,-3.6891,-3.7112,-3.7586,-3.7681,-3.8171,-3.8907,-3.8708,-3.8634,-3.8649,-3.8833,-3.887,-3.8811,-3.9017,-3.898,-3.8863,-3.9548,-3.9876,-4.005,-4.0759,-4.0798,-4.0519,-4.028,-3.9788,-3.9157,-3.843,-3.7707,-3.7237,-3.7515,-3.7356,-3.714,-3.7387,-3.7331,-3.7205,-3.6954,-3.693,-3.6973,-3.6844,-3.6617,-3.6183,-3.5496,-3.5263,-3.5028,-3.445,-3.4314,-3.4285,-3.4424,-3.4118,-3.3979,-3.4243,-3.4021,-3.4082,-3.4552,-3.4938,-3.5621,-3.6634,-3.6878,-3.6978,-3.7111,-3.7069,-3.6671,-3.5794,-3.5503,-3.5036,-3.438,-3.4256,-3.3916,-3.3284,-3.3413,-3.3856,-3.4631,-3.4582,-3.5223,-3.6405,-3.6405,-3.6524,-3.6682,-3.6603,-3.6668,-3.685,-3.685,-3.6954,-3.7106,-3.6939,-3.6978,-3.7248,-2.8556,-2.8916,-2.9475,-2.9969,-3.0852,-3.1746,-3.2506,-3.318,-3.3877,-3.4679,-3.4293,-3.4318,-3.5311,-3.5095,-3.4957,-3.5241,-3.5586,-3.5804,-3.5924,-3.6429,-3.6861,-3.7109,-3.7495,-3.7801,-3.7962,-3.8389,-3.8478,-3.8037,-3.8277,-3.8112,-3.7711,-3.7828,-3.8119,-3.8495,-3.8406,-3.8904,-3.9788,-3.9559,-3.9415,-3.9322,-3.9643,-3.9577,-3.9322,-3.9607,-3.9616,-3.9576,-4.0196,-4.0902,-4.154,-4.1983,-4.1841,-4.1465,-4.1226,-4.047,-3.9584,-3.9175,-3.8206,-3.7338,-3.7674,-3.7437,-3.7112,-3.714,-3.6921,-3.6865,-3.734,-3.7213,-3.6976,-3.6891,-3.6404,-3.593,-3.5805,-3.5447,-3.5195,-3.5127,-3.4784,-3.4618,-3.4839,-3.4314,-3.4092,-3.4481,-3.4356,-3.4672,-3.5709,-3.5922,-3.641,-3.7532,-3.8007,-3.8258,-3.8258,-3.8254,-3.7718,-3.6431,-3.6137,-3.5386,-3.418,-3.4111,-3.3952,-3.3635,-3.3813,-3.4196,-3.4704,-3.4805,-3.5424,-3.6405,-3.6603,-3.6721,-3.6721,-3.6721,-3.6786,-3.6954,-3.6954,-3.707,-3.7208,-3.676,-3.6853,-3.7275,-2.9124,-2.9622,-3.0227,-3.0529,-3.1244,-3.207,-3.3038,-3.3102,-3.3421,-3.4623,-3.4068,-3.3986,-3.5027,-3.5352,-3.5537,-3.5642,-3.5912,-3.6258,-3.6783,-3.69,-3.7148,-3.7495,-3.7901,-3.8127,-3.8165,-3.8885,-3.9068,-3.8671,-3.887,-3.9133,-3.9382,-3.9952,-4.0067,-3.9783,-4.0164,-4.0262,-4.0111,-3.99,-3.99,-4.0121,-4.0944,-4.0786,-4.0101,-4.0781,-4.1025,-4.1081,-4.1568,-4.2279,-4.2971,-4.2699,-4.2281,-4.1924,-4.1868,-4.1116,-4.0182,-3.9814,-3.9021,-3.8321,-3.8367,-3.8184,-3.8072,-3.8226,-3.7717,-3.7235,-3.7318,-3.6783,-3.6116,-3.5736,-3.5994,-3.6101,-3.537,-3.5412,-3.5521,-3.5154,-3.5044,-3.5031,-3.5031,-3.4949,-3.4949,-3.499,-3.5003,-3.5429,-3.6548,-3.6635,-3.7152,-3.8357,-3.8504,-3.8557,-3.8557,-3.7572,-3.695,-3.6754,-3.5438,-3.4888,-3.5197,-3.507,-3.4979,-3.4936,-3.5146,-3.4915,-3.4326,-3.5388,-3.6081,-3.6405,-3.6603,-3.6721,-3.6721,-3.6721,-3.6721,-3.6747,-3.6747,-3.685,-3.7056,-3.7333,-3.7572,-3.7901,-3.0114,-3.0458,-3.0843,-3.1411,-3.1739,-3.2288,-3.3325,-3.3451,-3.3749,-3.464,-3.4329,-3.4355,-3.5061,-3.5468,-3.5722,-3.5858,-3.6324,-3.6733,-3.6978,-3.7404,-3.7749,-3.7915,-3.8777,-3.9143,-3.89,-3.9695,-4.0022,-3.9758,-3.9646,-3.9949,-4.0614,-4.0918,-4.1229,-4.1592,-4.1393,-4.1214,-4.1082,-4.0713,-4.0489,-4.0466,-4.1612,-4.1655,-4.1175,-4.2116,-4.2288,-4.2057,-4.2415,-4.2962,-4.3433,-4.313,-4.2795,-4.2511,-4.2295,-4.1488,-4.0535,-4.0112,-3.9174,-3.8318,-3.8203,-3.7933,-3.7692,-3.7658,-3.7412,-3.7097,-3.6964,-3.677,-3.6496,-3.6058,-3.6192,-3.6382,-3.6334,-3.6484,-3.6524,-3.6361,-3.6373,-3.6301,-3.5978,-3.5718,-3.5487,-3.5153,-3.5195,-3.5653,-3.6582,-3.7001,-3.7596,-3.8573,-3.8969,-3.8965,-3.8522,-3.8128,-3.7533,-3.6718,-3.6034,-3.5629,-3.5562,-3.5653,-3.5511,-3.5169,-3.5615,-3.5567,-3.5103,-3.5695,-3.6217,-3.6733,-3.6811,-3.685,-3.685,-3.685,-3.706,-3.7326,-3.6976,-3.6859,-3.694,-3.8021,-3.8217,-3.8073]},{"header":{"parameterUnit":"m.s-1","parameterCategory":1,"la1":30.6,"la2":28.766,"lo1":-90.7593,"lo2":-88.6598,"dy":0.0162,"dx":0.0183,"nx":116,"ny":114,"refTime":"2024-02-28T18:00:00:Z","depth":0,"parameterNumber":3,"parameterNumberName":"V-component_of_WINDS"},"data":[0.0,0.0,0.0,0.0,0.0,0.0,0.0,0.0,0.0,0.0,0.0,0.0,0.0,0.0,0.0,0.0,0.0,0.0,0.0,0.0,0.0,0.0,0.0,0.0,0.0,0.0,0.0,0.0,0.0,0.0,0.0,0.0,0.0,0.0,0.0,0.0,0.0,0.0,0.0,0.0,0.0,0.0,0.0,0.0,0.0,0.0,0.0,0.0,0.0,0.0,0.0,0.0,0.0,0.0,0.0,0.0,0.0,0.0,0.0,0.0,0.0,0.0,0.0,0.0,0.0,0.0,0.0,0.0,0.0,0.0,0.0,0.0,0.0,0.0,0.0,0.0,0.0,0.0,0.0,0.0,0.0,0.0,0.0,0.0,0.0,0.0,0.0,0.0,0.0,0.0,0.0,0.0,0.0,0.0,0.0,0.0,0.0,0.0,0.0,0.0,0.0,0.0,0.0,0.0,0.0,0.0,0.0,0.0,0.0,0.0,0.0,0.0,0.0,0.0,0.0,0.0,0.0,0.0,0.0,0.0,0.0,0.0,0.0,0.0,0.0,0.0,0.0,0.0,0.0,0.0,0.0,0.0,0.0,0.0,0.0,0.0,0.0,0.0,0.0,0.0,0.0,0.0,0.0,0.0,0.0,0.0,0.0,0.0,0.0,0.0,0.0,0.0,0.0,0.0,0.0,0.0,0.0,0.0,0.0,0.0,0.0,0.0,0.0,0.0,0.0,0.0,0.0,0.0,0.0,0.0,0.0,0.0,0.0,0.0,0.0,0.0,0.0,0.0,0.0,0.0,0.0,0.0,0.0,0.0,0.0,0.0,0.0,0.0,0.0,0.0,0.0,0.0,0.0,0.0,0.0,0.0,0.0,0.0,0.0,0.0,0.0,0.0,0.0,0.0,0.0,0.0,0.0,0.0,0.0,0.0,0.0,0.0,0.0,0.0,0.0,0.0,0.0,0.0,0.0,0.0,0.0,0.0,0.0,0.0,0.0,0.0,0.0,0.0,0.0,0.0,0.0,0.0,0.0,0.0,0.0,0.0,0.0,0.0,0.0,0.0,0.0,0.0,0.0,0.0,0.0,0.0,0.0,0.0,0.0,0.0,0.0,0.0,0.0,0.0,0.0,0.0,0.0,0.0,0.0,0.0,0.0,0.0,0.0,0.0,0.0,0.0,0.0,0.0,0.0,0.0,0.0,0.0,0.0,0.0,0.0,0.0,0.0,0.0,0.0,0.0,0.0,0.0,0.0,0.0,0.0,0.0,0.0,0.0,0.0,0.0,0.0,0.0,0.0,0.0,0.0,0.0,0.0,0.0,0.0,0.0,0.0,0.0,0.0,0.0,0.0,0.0,0.0,0.0,0.0,0.0,0.0,0.0,0.0,0.0,0.0,0.0,0.0,0.0,0.0,0.0,0.0,0.0,0.0,0.0,0.0,0.0,0.0,0.0,0.0,0.0,0.0,0.0,0.0,0.0,0.0,0.0,0.0,0.0,0.0,0.0,0.0,0.0,0.0,0.0,0.0,0.0,0.0,0.0,0.0,0.0,0.0,0.0,0.0,0.0,0.0,0.0,0.0,0.0,0.0,0.0,0.0,0.0,0.0,0.0,0.0,0.0,0.0,0.0,0.0,0.0,0.0,0.0,0.0,0.0,0.0,0.0,0.0,0.0,0.0,0.0,0.0,0.0,0.0,0.0,0.0,0.0,0.0,0.0,0.0,0.0,0.0,0.0,0.0,0.0,0.0,0.0,0.0,0.0,0.0,0.0,0.0,0.0,0.0,0.0,0.0,0.0,0.0,0.0,0.0,0.0,0.0,0.0,0.0,0.0,0.0,0.0,0.0,0.0,0.0,0.0,0.0,0.0,0.0,0.0,0.0,0.0,0.0,0.0,0.0,0.0,0.0,0.0,0.0,0.0,0.0,0.0,0.0,0.0,0.0,0.0,0.0,0.0,0.0,0.0,0.0,0.0,0.0,0.0,0.0,0.0,0.0,0.0,0.0,0.0,0.0,0.0,0.0,0.0,0.0,0.0,0.0,0.0,0.0,0.0,0.0,0.0,0.0,0.0,0.0,0.0,0.0,0.0,0.0,0.0,0.0,0.0,0.0,0.0,0.0,0.0,0.0,0.0,0.0,0.0,0.0,0.0,0.0,0.0,0.0,0.0,0.0,0.0,0.0,0.0,0.0,0.0,0.0,0.0,0.0,0.0,0.0,0.0,0.0,0.0,0.0,0.0,0.0,0.0,0.0,0.0,0.0,0.0,0.0,0.0,0.0,0.0,0.0,0.0,0.0,0.0,0.0,0.0,0.0,0.0,0.0,0.0,0.0,0.0,0.0,0.0,0.0,0.0,0.0,0.0,0.0,0.0,0.0,0.0,0.0,0.0,0.0,0.0,0.0,0.0,0.0,0.0,0.0,0.0,0.0,0.0,0.0,0.0,0.0,0.0,0.0,0.0,0.0,0.0,0.0,0.0,0.0,0.0,0.0,0.0,0.0,0.0,0.0,0.0,0.0,0.0,0.0,0.0,0.0,0.0,0.0,0.0,0.0,0.0,0.0,0.0,0.0,0.0,0.0,0.0,0.0,0.0,0.0,0.0,0.0,0.0,0.0,0.0,0.0,0.0,0.0,0.0,0.0,0.0,0.0,0.0,0.0,0.0,0.0,0.0,0.0,0.0,0.0,0.0,0.0,0.0,0.0,0.0,0.0,0.0,0.0,0.0,0.0,0.0,0.0,0.0,0.0,0.0,0.0,0.0,0.0,0.0,0.0,0.0,0.0,0.0,0.0,0.0,0.0,0.0,0.0,0.0,0.0,0.0,0.0,0.0,0.0,0.0,0.0,0.0,0.0,0.0,0.0,0.0,0.0,0.0,0.0,0.0,0.0,0.0,0.0,0.0,0.0,0.0,0.0,0.0,0.0,0.0,0.0,0.0,0.0,0.0,0.0,0.0,0.0,0.0,0.0,0.0,0.0,0.0,0.0,0.0,0.0,0.0,0.0,0.0,0.0,0.0,0.0,0.0,0.0,0.0,0.0,0.0,0.0,0.0,0.0,0.0,0.0,0.0,0.0,0.0,0.0,0.0,0.0,0.0,0.0,0.0,0.0,0.0,0.0,0.0,0.0,0.0,0.0,0.0,0.0,0.0,0.0,0.0,0.0,0.0,0.0,0.0,0.0,0.0,0.0,0.0,0.0,0.0,0.0,0.0,0.0,0.0,0.0,0.0,0.0,0.0,0.0,0.0,0.0,0.0,0.0,0.0,0.0,0.0,0.0,0.0,0.0,0.0,0.0,0.0,0.0,0.0,0.0,0.0,0.0,0.0,0.0,0.0,0.0,0.0,0.0,0.0,0.0,0.0,0.0,0.0,0.0,0.0,0.0,0.0,0.0,0.0,0.0,0.0,0.0,0.0,0.0,0.0,0.0,0.0,0.0,0.0,0.0,0.0,0.0,0.0,0.0,0.0,0.0,0.0,0.0,0.0,0.0,0.0,0.0,0.0,0.0,0.0,0.0,0.0,0.0,0.0,0.0,0.0,0.0,0.0,0.0,0.0,0.0,0.0,0.0,0.0,0.0,0.0,0.0,0.0,0.0,0.0,0.0,0.0,0.0,0.0,0.0,0.0,0.0,0.0,0.0,0.0,0.0,0.0,0.0,0.0,0.0,0.0,0.0,0.0,0.0,0.0,0.0,0.0,0.0,0.0,0.0,0.0,0.0,0.0,0.0,0.0,0.0,0.0,0.0,0.0,0.0,0.0,0.0,0.0,0.0,0.0,0.0,0.0,0.0,0.0,0.0,0.0,0.0,0.0,0.0,0.0,0.0,0.0,0.0,0.0,0.0,0.0,0.0,0.0,0.0,0.0,0.0,0.0,0.0,0.0,0.0,0.0,0.0,0.0,0.0,0.0,0.0,0.0,0.0,0.0,0.0,0.0,0.0,0.0,0.0,0.0,0.0,0.0,0.0,0.0,0.0,0.0,0.0,0.0,0.0,0.0,0.0,0.0,0.0,0.0,0.0,0.0,0.0,0.0,0.0,0.0,0.0,0.0,0.0,0.0,0.0,0.0,0.0,0.0,0.0,0.0,0.0,0.0,0.0,0.0,0.0,0.0,0.0,0.0,0.0,0.0,0.0,0.0,0.0,0.0,0.0,0.0,0.0,0.0,0.0,0.0,0.0,0.0,0.0,0.0,0.0,0.0,0.0,0.0,0.0,0.0,0.0,0.0,0.0,0.0,0.0,0.0,0.0,0.0,0.0,0.0,0.0,0.0,0.0,0.0,0.0,0.0,0.0,0.0,0.0,0.0,0.0,0.0,0.0,0.0,0.0,0.0,0.0,0.0,0.0,0.0,0.0,0.0,0.0,0.0,0.0,0.0,0.0,0.0,0.0,0.0,0.0,0.0,0.0,0.0,0.0,0.0,0.0,0.0,0.0,0.0,0.0,0.0,0.0,0.0,0.0,0.0,0.0,0.0,0.0,0.0,0.0,0.0,0.0,0.0,0.0,0.0,0.0,0.0,0.0,0.0,0.0,0.0,0.0,0.0,0.0,0.0,0.0,0.0,0.0,0.0,0.0,0.0,0.0,0.0,0.0,0.0,0.0,0.0,0.0,0.0,0.0,0.0,0.0,0.0,0.0,0.0,0.0,0.0,0.0,0.0,0.0,0.0,0.0,0.0,0.0,0.0,0.0,0.0,0.0,0.0,0.0,0.0,0.0,0.0,0.0,0.0,0.0,0.0,0.0,0.0,0.0,0.0,0.0,0.0,0.0,0.0,0.0,0.0,0.0,0.0,0.0,0.0,0.0,0.0,0.0,0.0,0.0,0.0,0.0,0.0,0.0,0.0,0.0,0.0,0.0,0.0,0.0,0.0,0.0,0.0,0.0,0.0,0.0,0.0,0.0,0.0,0.0,0.0,0.0,0.0,0.0,0.0,0.0,0.0,0.0,0.0,0.0,0.0,0.0,0.0,0.0,0.0,0.0,0.0,0.0,0.0,0.0,0.0,0.0,0.0,0.0,0.0,0.0,0.0,0.0,0.0,0.0,0.0,0.0,0.0,0.0,0.0,0.0,0.0,0.0,0.0,0.0,0.0,0.0,0.0,0.0,0.0,0.0,0.0,0.0,0.0,0.0,0.0,0.0,0.0,0.0,0.0,0.0,0.0,0.0,0.0,0.0,0.0,0.0,0.0,0.0,0.0,0.0,0.0,0.0,0.0,0.0,0.0,0.0,0.0,0.0,0.0,0.0,0.0,0.0,0.0,0.0,0.0,0.0,0.0,0.0,0.0,0.0,0.0,0.0,0.0,0.0,0.0,0.0,0.0,0.0,0.0,0.0,0.0,0.0,0.0,0.0,0.0,0.0,0.0,0.0,0.0,0.0,0.0,0.0,0.0,0.0,0.0,0.0,0.0,0.0,0.0,0.0,0.0,0.0,0.0,0.0,0.0,0.0,0.0,0.0,0.0,0.0,0.0,0.0,0.0,0.0,0.0,0.0,0.0,0.0,0.0,0.0,0.0,0.0,0.0,0.0,0.0,0.0,0.0,0.0,0.0,0.0,0.0,0.0,0.0,0.0,0.0,0.0,0.0,0.0,0.0,0.0,0.0,0.0,0.0,0.0,0.0,0.0,0.0,0.0,0.0,0.0,0.0,0.0,0.0,0.0,0.0,0.0,0.0,0.0,0.0,0.0,0.0,0.0,0.0,0.0,0.0,0.0,0.0,0.0,0.0,0.0,0.0,0.0,0.0,0.0,0.0,0.0,0.0,0.0,0.0,0.0,0.0,0.0,0.0,0.0,0.0,0.0,0.0,0.0,0.0,0.0,0.0,0.0,0.0,0.0,0.0,0.0,0.0,0.0,0.0,0.0,0.0,0.0,0.0,0.0,0.0,0.0,0.0,0.0,0.0,0.0,0.0,0.0,0.0,0.0,0.0,0.0,0.0,0.0,0.0,0.0,0.0,0.0,0.0,0.0,0.0,0.0,0.0,0.0,0.0,0.0,0.0,0.0,0.0,0.0,0.0,0.0,0.0,0.0,0.0,0.0,0.0,0.0,0.0,0.0,0.0,0.0,0.0,0.0,0.0,0.0,0.0,0.0,0.0,3.795,3.6422,0.0,0.0,0.0,0.0,0.0,0.0,0.0,0.0,0.0,0.0,0.0,0.0,0.0,0.0,0.0,0.0,0.0,0.0,0.0,0.0,0.0,0.0,0.0,0.0,0.0,0.0,2.9308,2.9475,2.9716,3.001,0.0,0.0,0.0,0.0,2.8898,2.8399,2.8383,2.8888,2.9005,2.9792,3.1236,3.1388,3.0277,2.8116,0.0,0.0,0.0,0.0,0.0,0.0,0.0,0.0,0.0,0.0,0.0,0.0,0.0,0.0,0.0,0.0,0.0,0.0,0.0,0.0,0.0,0.0,0.0,0.0,0.0,0.0,0.0,0.0,0.0,0.0,0.0,0.0,0.0,0.0,0.0,0.0,0.0,0.0,0.0,0.0,0.0,0.0,0.0,0.0,0.0,0.0,0.0,0.0,0.0,0.0,0.0,0.0,0.0,0.0,0.0,0.0,0.0,0.0,0.0,0.0,0.0,0.0,0.0,0.0,0.0,0.0,0.0,0.0,0.0,0.0,4.0436,3.9029,0.0,0.0,0.0,0.0,0.0,0.0,0.0,0.0,0.0,0.0,0.0,0.0,0.0,0.0,0.0,0.0,0.0,0.0,0.0,0.0,0.0,0.0,0.0,2.7568,2.8608,3.0103,3.0321,3.0342,3.0234,3.0794,3.0798,3.0086,3.0467,3.0745,3.0875,3.0158,3.0213,3.1066,3.1847,3.3276,3.5262,3.5862,3.4021,3.0273,2.9989,0.0,0.0,0.0,0.0,0.0,0.0,0.0,0.0,0.0,0.0,0.0,0.0,0.0,0.0,0.0,0.0,0.0,0.0,0.0,0.0,0.0,0.0,0.0,0.0,0.0,0.0,0.0,0.0,0.0,0.0,0.0,0.0,0.0,0.0,0.0,0.0,0.0,0.0,0.0,0.0,0.0,0.0,0.0,0.0,0.0,0.0,0.0,0.0,0.0,0.0,0.0,0.0,0.0,0.0,0.0,0.0,0.0,0.0,0.0,0.0,0.0,0.0,0.0,4.4626,4.5196,4.5895,4.5765,4.6039,4.6405,4.3041,4.1933,4.2317,3.987,0.0,0.0,0.0,0.0,0.0,0.0,0.0,0.0,0.0,0.0,0.0,0.0,0.0,0.0,0.0,0.0,0.0,0.0,0.0,0.0,0.0,2.7623,2.8846,3.0937,3.1139,3.1139,3.1117,3.1215,3.1215,3.1095,3.0588,3.0582,3.1203,3.1016,3.1326,3.2191,3.3908,3.5525,3.707,3.703,3.6744,3.6201,3.4679,3.3186,3.1731,0.0,0.0,0.0,0.0,0.0,0.0,0.0,0.0,0.0,0.0,0.0,0.0,0.0,0.0,0.0,0.0,0.0,0.0,0.0,0.0,0.0,0.0,0.0,0.0,0.0,0.0,0.0,0.0,0.0,0.0,0.0,0.0,0.0,0.0,0.0,0.0,0.0,0.0,0.0,0.0,0.0,3.8266,3.9654,0.0,0.0,0.0,0.0,0.0,0.0,0.0,0.0,0.0,0.0,0.0,0.0,0.0,4.3477,4.2921,4.5538,4.688,4.6978,4.8255,4.9237,4.9908,4.9286,4.9365,4.9987,4.884,0.0,4.4366,4.3538,0.0,0.0,0.0,0.0,0.0,0.0,0.0,0.0,0.0,0.0,0.0,0.0,0.0,0.0,0.0,0.0,0.0,0.0,0.0,0.0,0.0,2.9214,3.087,3.2674,3.3653,3.3792,3.2889,3.3288,3.2906,3.1468,3.1214,3.1401,3.2067,3.1972,3.3046,3.5439,3.7469,3.901,4.0038,4.0371,4.0339,4.0005,3.9255,3.7096,3.3918,3.265,0.0,0.0,0.0,0.0,0.0,0.0,0.0,0.0,0.0,0.0,0.0,0.0,0.0,0.0,0.0,0.0,0.0,0.0,0.0,0.0,0.0,0.0,0.0,0.0,0.0,0.0,0.0,0.0,0.0,0.0,0.0,0.0,0.0,0.0,0.0,0.0,0.0,0.0,0.0,3.8051,3.929,3.9154,3.9424,3.9013,0.0,0.0,0.0,0.0,0.0,0.0,0.0,0.0,0.0,4.3681,4.4663,4.5393,4.5889,4.7621,4.8928,4.9756,5.0367,5.1113,5.1914,5.1404,5.1385,5.1756,5.1442,5.0246,4.8428,4.6799,4.5124,4.349,0.0,0.0,0.0,0.0,4.1083,4.0961,0.0,0.0,0.0,0.0,0.0,0.0,0.0,0.0,0.0,0.0,0.0,0.0,2.8932,3.092,3.2811,3.4474,3.5703,3.5827,3.4424,3.476,3.4096,3.2,3.1865,3.214,3.279,3.3448,3.5439,3.8863,4.0605,4.1844,4.2627,4.3078,4.3045,4.2611,4.2522,4.0275,3.647,3.5149,3.3451,3.1571,0.0,0.0,0.0,0.0,0.0,0.0,0.0,0.0,0.0,0.0,0.0,0.0,0.0,0.0,0.0,0.0,0.0,0.0,0.0,0.0,0.0,0.0,0.0,0.0,0.0,0.0,0.0,0.0,0.0,0.0,0.0,0.0,0.0,0.0,0.0,0.0,0.0,3.9309,4.0227,3.9307,4.0647,4.0829,0.0,0.0,0.0,0.0,0.0,0.0,4.4507,4.4062,4.4587,4.6405,4.7076,4.7896,4.8945,4.9809,5.076,5.1878,5.186,5.223,5.2903,5.2676,5.2676,5.2782,5.2782,5.2499,5.1796,4.9493,4.7554,4.5962,4.4987,4.3717,4.2574,4.3412,4.3749,4.3934,0.0,0.0,0.0,0.0,0.0,0.0,0.0,0.0,0.0,0.0,0.0,2.8437,3.054,3.2131,3.3907,3.6085,3.6353,3.6068,3.5291,3.4605,3.3885,3.306,3.2361,3.2328,3.306,3.582,3.8723,4.1703,4.2372,4.3156,4.3989,4.386,4.386,4.3989,4.3667,4.239,4.0362,3.8151,3.667,3.5503,3.1951,0.0,0.0,0.0,0.0,0.0,0.0,0.0,0.0,0.0,0.0,0.0,0.0,0.0,0.0,0.0,0.0,0.0,0.0,0.0,0.0,0.0,0.0,0.0,0.0,0.0,0.0,0.0,0.0,0.0,0.0,0.0,0.0,0.0,0.0,0.0,0.0,0.0,0.0,4.2409,4.3948,0.0,0.0,0.0,0.0,4.2903,4.3494,4.4867,4.7094,4.7348,4.8354,5.0358,5.1279,5.1715,5.1631,5.2367,5.2769,5.2853,5.2818,5.287,5.2903,5.3076,5.3144,5.3179,5.3298,5.3332,5.3146,5.1312,4.927,4.7259,4.6686,4.5551,4.4395,4.5399,4.5739,4.5886,0.0,0.0,0.0,0.0,0.0,0.0,0.0,0.0,2.4105,2.4689,2.7699,3.0306,3.1543,3.4286,3.6562,3.7816,3.8882,3.8941,3.7631,3.6491,3.5475,3.4577,3.3115,3.3516,3.6076,3.8587,4.0766,4.2618,4.3287,4.3788,4.4097,4.4039,4.4039,4.4097,4.3981,4.3435,4.2486,4.0545,3.8897,3.7392,3.515,3.2909,0.0,0.0,0.0,0.0,0.0,0.0,0.0,0.0,0.0,0.0,0.0,0.0,0.0,0.0,0.0,0.0,0.0,0.0,0.0,0.0,0.0,0.0,0.0,0.0,0.0,0.0,0.0,0.0,0.0,0.0,0.0,0.0,0.0,0.0,0.0,0.0,0.0,4.3769,4.5206,0.0,4.4299,4.4739,4.5245,4.5534,4.6625,4.7845,4.9255,4.9842,5.0532,5.1393,5.1745,5.2087,5.2498,5.2786,5.3142,5.3617,5.3484,5.3484,5.3617,5.3416,5.3467,5.3717,5.3634,5.3667,5.3748,5.3186,5.1815,5.0031,5.007,4.9138,4.787,4.8329,4.8472,4.8535,0.0,0.0,0.0,0.0,0.0,0.0,0.0,0.0,2.4759,2.6084,2.9067,3.1729,3.3498,3.6116,3.8164,3.9159,4.0257,4.0206,3.8595,3.7513,3.626,3.4785,3.4054,3.5385,3.8991,4.0765,4.2277,4.3614,4.4119,4.4298,4.4286,4.4298,4.4298,4.4286,4.4212,4.4051,4.3752,4.2555,4.1132,3.9499,3.7834,3.5792,3.3589,0.0,0.0,0.0,0.0,0.0,0.0,0.0,0.0,0.0,0.0,0.0,0.0,0.0,0.0,0.0,0.0,0.0,0.0,0.0,0.0,0.0,0.0,0.0,0.0,0.0,0.0,0.0,0.0,0.0,0.0,0.0,0.0,0.0,0.0,4.3777,4.5454,4.5004,4.6801,4.7619,4.6493,4.7219,4.7988,4.8571,4.9447,5.0419,5.1551,5.1887,5.2309,5.2885,5.2726,5.2814,5.3263,5.3263,5.3502,5.398,5.3849,5.3882,5.398,5.3782,5.3815,5.4078,5.4013,5.4045,5.4175,5.435,5.3547,5.2193,5.2152,5.1352,5.0228,5.0115,5.0397,5.0876,0.0,0.0,0.0,0.0,0.0,0.0,0.0,2.4163,2.5581,2.933,3.0642,3.2645,3.6372,3.7449,3.8514,3.9977,4.0213,3.9627,3.8041,3.7404,3.6081,3.3815,3.5266,3.786,4.1552,4.2244,4.3289,4.4803,4.4803,4.4737,4.4598,4.4737,4.4737,4.4615,4.4395,4.4293,4.431,4.4167,4.3361,4.1993,3.9872,3.8548,3.7527,0.0,0.0,0.0,0.0,0.0,0.0,0.0,0.0,0.0,0.0,0.0,0.0,0.0,0.0,0.0,0.0,0.0,0.0,0.0,0.0,0.0,0.0,0.0,0.0,0.0,0.0,0.0,0.0,0.0,0.0,0.0,0.0,0.0,4.2596,4.451,4.605,4.6304,4.8851,5.0338,4.9654,5.0919,5.1822,5.1822,5.1839,5.2472,5.391,5.3455,5.3729,5.5038,5.4503,5.4175,5.4047,5.403,5.403,5.4047,5.403,5.403,5.4047,5.4175,5.4257,5.4257,5.4448,5.4512,5.4543,5.4717,5.4343,5.3545,5.2753,5.199,5.1275,5.0689,5.1453,5.2736,0.0,0.0,0.0,0.0,0.0,0.0,2.372,2.4481,2.5714,2.7946,3.0437,3.2983,3.5639,3.7584,3.9073,4.0028,4.0121,3.9798,3.889,3.7653,3.6718,3.6149,3.8231,4.0343,4.2347,4.3228,4.4021,4.4803,4.4803,4.4737,4.4598,4.4737,4.4776,4.472,4.4692,4.4592,4.4435,4.431,4.398,4.3435,4.2054,4.0621,3.9165,0.0,0.0,0.0,0.0,0.0,0.0,0.0,0.0,0.0,0.0,0.0,0.0,0.0,0.0,0.0,0.0,0.0,0.0,0.0,0.0,0.0,0.0,0.0,0.0,0.0,0.0,0.0,0.0,0.0,0.0,0.0,4.3339,4.4666,4.4343,4.6254,4.8126,4.9261,5.0116,5.0779,5.1261,5.172,5.1991,5.2066,5.263,5.3146,5.3559,5.406,5.4422,5.466,5.4755,5.4911,5.5176,5.4787,5.4851,5.5386,5.4851,5.4868,5.5369,5.4956,5.5008,5.5415,5.5019,5.4869,5.4869,5.5035,5.4702,5.4092,5.3765,5.3148,5.2462,5.2442,5.2758,5.3036,0.0,0.0,0.0,0.0,0.0,0.0,2.3915,2.443,2.5695,2.8557,3.0578,3.2975,3.6208,3.7466,3.8481,3.9554,3.9417,3.8814,3.7763,3.6622,3.6769,3.8539,3.9945,4.1506,4.3245,4.4121,4.4694,4.4951,4.4951,4.4913,4.4776,4.4896,4.5084,4.5235,4.4956,4.4862,4.4993,4.4587,4.4327,4.4167,4.3826,4.2862,4.1519,4.0988,4.0059,3.881,3.7058,3.6687,3.6704,3.4488,0.0,0.0,0.0,0.0,0.0,0.0,0.0,0.0,0.0,0.0,0.0,0.0,0.0,0.0,0.0,0.0,0.0,0.0,0.0,0.0,0.0,0.0,0.0,0.0,4.5996,4.7341,4.7707,4.877,4.9953,5.1137,5.1565,5.2094,5.2943,5.3122,5.3153,5.3166,5.3721,5.4181,5.4416,5.5053,5.531,5.5181,5.5386,5.5438,5.534,5.5033,5.5112,5.5515,5.5095,5.5286,5.6015,5.5309,5.5396,5.5998,5.5353,5.5096,5.5096,5.5336,5.5191,5.4857,0.0,0.0,0.0,0.0,5.3213,5.2925,0.0,0.0,0.0,0.0,0.0,0.0,2.4246,2.4309,2.5704,3.0179,3.0895,3.2685,3.7226,3.7131,3.7341,3.8845,3.8408,3.7464,3.6101,3.5598,3.7018,4.0775,4.1016,4.2045,4.4138,4.4824,4.5194,4.5194,4.5194,4.5147,4.5142,4.526,4.5538,4.5937,4.5314,4.5314,4.5681,4.5021,4.4632,4.4524,4.5163,4.4809,4.3885,4.375,4.3234,4.2281,4.0203,3.9473,3.921,3.6992,0.0,0.0,0.0,0.0,0.0,0.0,0.0,0.0,0.0,0.0,0.0,0.0,0.0,0.0,0.0,0.0,0.0,0.0,0.0,0.0,0.0,0.0,0.0,0.0,4.8761,5.0558,5.1581,5.1569,5.1674,5.23,5.2959,5.3701,5.4474,5.4686,5.4717,5.4575,5.4807,5.5212,5.5764,5.606,0.0,0.0,0.0,5.5889,5.5113,5.5057,5.5057,5.5144,5.5057,5.5423,5.6189,5.5419,5.5488,5.6203,5.5549,5.5259,5.5319,5.5601,5.5764,5.5722,5.5023,5.4373,5.3847,5.3786,5.3353,5.291,0.0,0.0,0.0,0.0,0.0,0.0,2.4263,2.4962,2.6585,3.003,3.0651,3.2226,3.6114,3.6511,3.711,3.8705,3.8092,3.7862,3.8462,3.9034,4.0273,4.2236,4.2946,4.3714,4.4647,4.491,4.5032,4.5032,4.5032,4.534,4.5894,4.6014,4.6128,4.6244,4.6567,4.6476,4.601,4.562,4.5454,4.5426,4.5399,4.4796,4.4031,4.5136,4.5028,4.4095,4.3072,4.3059,4.3238,4.101,4.0342,4.0193,3.9067,3.7755,0.0,0.0,0.0,0.0,0.0,0.0,0.0,0.0,0.0,0.0,0.0,0.0,0.0,0.0,0.0,0.0,0.0,0.0,0.0,4.8325,5.0213,5.1684,5.2393,5.3084,5.3478,5.3329,5.338,5.3763,5.4648,5.4637,5.4669,5.49,5.4855,5.4925,5.5139,5.5933,5.6016,5.5235,5.6069,5.6331,5.5897,5.5392,5.5501,5.613,5.5484,0.0,5.634,5.5709,5.5792,5.6475,5.5865,5.566,5.5786,5.6011,5.6235,5.6374,5.5844,5.5571,5.5387,5.4906,5.4723,5.4634,0.0,0.0,0.0,0.0,0.0,0.0,2.4026,2.4715,2.6059,2.8788,2.9646,3.1153,3.416,3.4257,3.4565,3.5756,3.5515,3.6226,3.8414,3.9238,4.0696,4.3053,4.3574,4.4109,4.4803,4.4565,4.4646,4.5005,4.4683,4.513,4.621,4.6282,4.6443,4.6764,4.7005,4.6652,4.5903,4.6029,4.5718,4.5213,4.5732,4.5173,4.4115,4.5127,4.5435,4.5208,4.4009,4.4075,4.4406,4.2585,4.1931,4.172,4.0629,3.977,3.8774,0.0,0.0,0.0,0.0,0.0,0.0,0.0,0.0,0.0,0.0,0.0,0.0,0.0,0.0,4.2438,4.4552,0.0,4.8674,5.1181,5.2294,5.3119,5.3976,5.4371,5.4356,5.3805,5.4027,5.4533,5.5407,5.5112,5.5056,5.5549,5.5327,5.5131,5.5096,5.5981,5.6129,5.5287,5.612,5.633,5.5811,5.5517,5.5576,5.6052,5.5648,5.5859,5.6643,5.5989,5.6071,5.6716,5.6244,5.6077,5.6189,5.641,5.6573,5.6662,5.6429,5.6115,5.5669,5.4999,5.4774,5.4781,0.0,0.0,0.0,0.0,0.0,0.0,0.0,2.4279,2.533,2.7494,2.8457,2.9769,3.1962,3.1774,3.1772,3.2503,3.3384,3.5029,3.7786,3.8849,4.0667,4.3559,4.3739,4.4071,4.4648,4.4045,4.4092,4.4896,4.4126,4.4685,4.6471,4.6323,4.6696,4.7426,4.7406,4.692,4.6189,4.6389,4.5929,4.5094,4.5951,4.5417,4.4193,4.4573,4.5066,4.5385,4.4221,4.3926,4.3893,4.2837,4.2307,4.1955,4.1077,4.1077,4.0928,3.846,3.8377,0.0,0.0,0.0,0.0,0.0,0.0,0.0,0.0,3.946,4.0512,4.1778,4.3271,4.5172,4.7857,4.9274,5.0932,5.3678,5.4114,5.4446,5.5361,5.5252,5.4856,5.4294,5.4687,5.5336,5.6168,5.5597,5.5471,5.6278,5.5827,5.546,5.5348,5.6204,5.6352,5.5554,5.6287,5.6292,5.5525,5.5507,5.5566,5.5706,5.5706,5.6041,5.6699,5.6162,5.6244,5.6799,5.6585,5.6492,5.6519,5.6742,5.6873,5.6925,5.6925,5.642,5.5689,5.5206,5.49,5.4806,0.0,0.0,0.0,0.0,0.0,0.0,0.0,0.0,2.5392,2.7147,2.7517,2.8238,2.9885,3.0179,3.0615,3.1402,3.4646,3.7087,3.8101,4.0177,4.2172,4.3954,4.4066,4.41,4.4184,4.3474,4.3597,4.4558,4.3179,4.4079,4.7079,4.6424,4.6885,4.8275,4.8612,4.8433,4.7764,4.6887,4.652,4.6498,4.5799,4.5021,4.427,4.4081,4.3959,4.3926,4.4406,4.3363,4.1856,4.2324,4.1674,4.084,4.1922,4.1889,4.1226,4.0282,3.9222,3.8006,3.6488,3.6355,3.7134,3.9042,3.9335,4.0178,0.0,4.4209,4.4155,4.6292,4.807,4.9367,4.9849,5.1825,5.352,5.4011,5.4793,5.5343,5.546,5.5478,5.5413,5.5325,5.5139,5.5349,5.6287,5.5567,5.5518,5.6728,5.6006,5.5607,5.5804,5.6604,5.6617,5.5713,5.6435,5.6429,5.5525,5.5507,5.5566,5.5706,5.5706,5.5799,5.6014,5.5925,5.6113,5.647,5.6662,5.6821,5.6951,5.6977,5.713,5.7313,5.7313,5.6921,5.6357,5.6749,5.6532,5.6128,0.0,0.0,0.0,0.0,0.0,0.0,0.0,0.0,0.0,2.5628,2.6229,2.7014,2.8126,2.8834,2.9378,2.9745,3.2885,3.5539,3.7221,3.9886,4.2128,4.3752,4.3877,4.3935,4.3935,4.3738,4.3836,4.4281,4.3726,4.4615,4.6794,4.6472,4.6912,4.7949,4.8478,4.8096,4.7083,4.7376,4.6857,4.5866,4.5771,4.5059,4.4039,4.3939,4.3232,4.2319,4.222,4.1839,0.0,4.1309,4.058,4.0011,4.1425,4.0784,3.946,3.9206,3.8692,3.8188,3.8118,3.8321,3.874,3.9665,4.0771,4.2198,4.4262,4.467,4.5356,4.7907,4.932,5.0466,5.1563,5.2933,5.4107,5.4811,5.5144,5.5354,5.5478,5.5507,5.5507,5.5507,5.5389,5.5639,5.6591,5.5857,5.5746,5.6835,5.6035,5.5566,5.5666,5.5994,5.603,5.5695,5.6041,5.6041,5.5735,5.5735,5.5822,5.5982,5.5982,5.6011,5.6095,5.6245,5.6474,5.6742,5.6873,5.7003,5.7112,5.7188,5.7289,5.7406,5.7504,5.7382,5.7222,5.7377,5.6952,5.6441,0.0,0.0,0.0,0.0,0.0,0.0,0.0,0.0,0.0,0.0,2.5207,2.6089,2.6983,2.7885,2.8452,2.8597,3.1318,3.3989,3.6287,3.9093,4.1435,4.3183,4.3399,4.3489,4.3565,4.37,4.3889,4.4177,4.4077,4.4888,4.6589,4.6418,4.6868,4.779,4.8201,4.7835,4.6946,4.7408,4.6774,4.5507,4.564,4.495,4.3855,4.4038,4.2958,4.1274,4.0834,4.0453,4.0122,3.9626,3.899,3.8586,3.9603,3.899,3.7914,3.7914,3.779,3.7893,3.8711,3.9277,3.9809,4.0442,4.2057,4.3647,4.4343,4.5135,4.6306,4.8515,4.997,5.1246,5.2602,5.3613,5.4545,5.5361,5.5383,5.5354,5.5519,5.5566,5.5566,5.5625,5.5596,5.5865,5.6634,5.6194,5.62,5.6952,5.6388,5.5924,5.5742,5.5771,5.5782,5.5839,5.6034,5.6151,5.6237,5.6449,5.6659,5.6819,5.6606,5.6527,5.6583,5.6626,5.6768,5.6984,5.7079,5.7181,5.7282,5.7388,5.748,5.751,5.7649,5.7664,5.7574,5.7491,5.7055,5.6593,0.0,0.0,0.0,0.0,0.0,0.0,0.0,0.0,0.0,0.0,0.0,0.0,0.0,2.7491,2.805,2.8393,3.0927,3.3447,3.5678,3.7962,4.022,4.2348,4.257,4.2726,4.293,4.293,4.3395,4.4377,4.3685,4.4504,4.6775,4.6269,4.6781,4.8194,4.8195,4.829,4.8333,4.6724,4.6138,4.619,4.5277,4.4411,4.3711,4.439,4.3224,4.1214,4.1243,3.9528,3.7209,3.7065,3.6604,3.6108,3.6158,3.6622,3.7135,3.7135,3.6812,3.6623,3.735,3.8268,3.9554,4.1843,4.3059,4.4089,4.5674,4.6764,4.7665,4.8438,5.0643,5.2483,5.2677,5.4062,5.5242,5.546,5.5478,5.5537,5.5677,5.5677,5.5735,5.5861,5.5764,5.5839,5.6205,5.6604,5.697,5.7277,5.7253,5.7,5.6409,5.6373,5.6318,5.6197,5.689,5.7178,5.7051,5.7842,5.8302,5.843,5.7637,5.7366,5.7553,5.7021,5.6873,5.701,5.7264,5.7388,5.7388,5.7553,5.7673,5.7792,5.795,5.7606,5.7037,5.7091,5.6982,5.6693,0.0,0.0,0.0,0.0,0.0,0.0,0.0,0.0,0.0,0.0,0.0,0.0,0.0,0.0,0.0,0.0,3.0432,3.226,3.3889,3.6559,3.884,4.0606,4.1693,4.2365,4.2571,4.3119,4.3438,4.3397,4.3642,4.4164,4.4931,4.4843,4.5269,4.6158,4.6749,4.6765,4.6367,4.6287,4.5726,4.4882,4.4572,4.3984,4.3248,4.3048,4.1884,4.0139,0.0,3.7305,3.6084,3.5158,3.4638,3.4523,3.509,3.4767,3.417,3.417,3.5174,3.6534,3.7869,3.9597,4.1422,4.2904,4.4242,4.5488,4.6736,4.7654,4.8495,4.9453,5.0357,5.1009,5.1146,5.259,5.3772,5.3847,5.4852,5.5607,5.5549,5.5706,5.5775,5.5666,5.5666,5.5735,5.5868,5.6011,5.6228,5.656,5.644,5.6269,5.6077,5.606,5.6106,5.6197,5.6428,5.6847,5.742,5.7687,5.8107,5.8634,5.8481,5.8283,5.7981,5.7879,5.7644,5.7282,5.7437,5.7528,5.7534,5.7673,5.7815,5.795,5.8065,5.7681,5.6999,5.6488,5.5929,5.5533,0.0,0.0,0.0,0.0,0.0,0.0,0.0,0.0,0.0,0.0,0.0,0.0,0.0,0.0,0.0,0.0,0.0,3.1009,3.2435,3.4808,3.681,3.8303,3.9612,4.0356,4.0574,4.1372,4.1754,4.1718,4.2766,4.3412,4.3654,4.4106,4.4496,4.4903,4.5554,4.5734,4.5571,4.5538,4.503,4.4128,4.3359,4.2591,4.1825,4.118,4.0181,0.0,3.6571,3.543,3.4741,3.3301,3.2994,3.3232,3.3274,3.3021,3.2818,3.3348,3.4991,3.7059,3.8899,4.075,4.2469,4.3752,4.498,4.6102,4.6906,4.7694,4.8494,4.9232,4.9458,4.9552,4.9644,5.1057,5.2166,5.1868,5.35,5.4792,5.4752,5.5182,5.5532,5.5631,5.5782,5.5897,5.5897,5.5897,5.5982,5.6197,5.662,5.6645,5.6095,5.6354,5.656,5.669,5.6957,5.753,5.8399,5.8417,5.8552,5.8823,5.9335,5.9096,5.8193,5.8376,5.8094,5.7412,5.7601,5.7673,5.7697,5.7881,5.7997,5.8106,5.8246,5.7879,5.717,5.6675,5.6031,5.5476,0.0,0.0,0.0,0.0,0.0,0.0,0.0,0.0,0.0,0.0,0.0,0.0,0.0,0.0,0.0,0.0,0.0,0.0,3.1266,3.2745,3.4193,3.5588,3.6486,3.7012,3.727,3.7883,3.8636,3.947,4.1008,4.2075,4.2728,4.3746,4.4168,4.4136,4.4414,4.4983,4.5635,4.4301,4.3809,4.3753,4.1691,4.0389,3.9622,3.91,3.8313,3.7286,3.5257,3.4063,3.3188,3.1642,3.1761,3.2341,3.1044,3.1637,3.3116,3.4591,3.6261,3.8078,4.0232,4.1593,4.2814,4.4419,4.5416,4.6033,4.6306,4.7117,4.7779,4.783,4.8031,4.8146,4.8111,4.9556,5.0522,4.9802,5.1708,5.3328,5.3503,5.4277,5.5132,5.5801,5.6077,5.6197,5.6197,5.6197,5.6197,5.6197,5.769,5.7943,5.6543,5.7186,5.7624,5.7678,5.8345,5.9048,5.9844,5.9844,5.9574,5.9038,6.0041,5.9709,5.822,5.8504,5.8151,5.7455,5.7697,5.7815,5.7839,5.8106,5.8219,5.8242,5.8443,5.8113,5.7511,5.7593,5.717,5.6444,0.0,0.0,0.0,0.0,0.0,0.0,0.0,0.0,0.0,0.0,0.0,0.0,0.0,0.0,0.0,0.0,0.0,0.0,2.9576,3.0911,3.2366,3.3891,3.5076,3.6075,3.6754,3.6971,3.7265,3.7744,3.8166,3.8479,3.8776,3.9689,3.9798,3.9337,4.0543,4.0971,4.0788,4.0434,4.0303,4.0236,3.9305,3.9079,3.9289,3.8848,3.8474,3.7897,3.588,3.4642,3.3665,3.198,3.2308,3.3495,3.3677,3.4084,3.4798,3.6263,3.7911,3.9522,4.0649,4.2449,4.4162,4.4783,4.5958,4.7016,4.7268,4.8021,4.8339,4.7224,4.6691,4.6264,4.5732,4.7439,4.9082,4.9494,5.2192,5.4405,5.4881,5.5472,5.5808,5.5775,5.6011,5.6123,5.5993,5.6123,5.6197,5.6197,5.6692,5.7079,5.7275,5.7499,5.7846,5.8388,5.8602,5.8874,5.922,5.9332,5.9346,5.9295,5.9592,5.9274,5.8504,5.868,5.8367,5.7697,5.7881,5.7997,5.8088,5.8174,5.8353,5.859,5.8635,5.8278,5.7731,5.7732,5.7247,5.665,0.0,0.0,0.0,0.0,0.0,0.0,0.0,0.0,0.0,0.0,0.0,0.0,0.0,0.0,0.0,0.0,0.0,0.0,0.0,2.9708,3.087,3.2014,3.3119,3.3996,3.4572,3.4572,3.4815,3.5302,3.604,3.6596,3.6968,3.823,3.8433,3.7772,3.8728,3.9008,3.8808,3.8533,3.8494,0.0,0.0,3.766,3.7705,3.7515,3.7425,3.7127,3.5441,3.4592,3.4227,3.3961,3.4235,3.4861,3.5894,3.634,3.6763,3.8302,3.9702,4.0942,4.1752,4.3544,4.5213,4.5363,4.6334,4.7233,4.7114,4.7306,4.7182,4.6066,4.5115,4.4244,4.3476,4.5558,4.7428,4.7559,5.0919,5.3764,5.4413,5.5172,5.5677,5.57,5.6039,5.6207,5.6049,5.6179,5.629,5.629,5.6694,5.7114,5.7588,5.7899,5.8463,5.9288,5.9002,5.8747,5.8563,5.9024,5.9159,5.8879,5.9408,5.9284,5.8605,5.8854,5.8555,5.7815,5.7997,5.8129,5.8197,5.829,5.8486,5.8716,5.8758,5.8623,5.8427,5.8446,5.8166,5.7847,0.0,0.0,0.0,0.0,0.0,0.0,0.0,0.0,0.0,0.0,0.0,0.0,0.0,0.0,0.0,0.0,0.0,0.0,0.0,0.0,2.9871,3.0556,3.1177,3.1649,3.1896,3.194,3.2213,3.2833,3.4298,3.5307,3.5938,3.7545,3.7935,3.728,3.7543,3.7773,3.7953,3.7356,3.7262,3.747,3.6818,3.6194,3.5678,0.0,3.6088,3.6018,3.4826,3.4478,3.489,3.6549,3.6724,3.6512,3.7903,3.8514,3.8987,4.0494,4.1492,4.2265,4.3014,4.4445,4.5756,4.5784,4.6431,4.6914,4.6309,4.5812,4.5225,4.4396,4.3377,4.2389,4.1582,4.388,4.5775,4.5466,4.9134,5.2355,5.3247,5.4404,5.5269,5.5722,5.6134,5.6346,5.6253,5.6318,5.6401,5.6401,5.7053,5.7535,5.7721,5.8363,5.9216,6.0264,5.9593,5.8878,5.8188,5.8907,5.8852,5.8101,5.9158,5.924,5.8492,5.8853,5.8564,5.7839,5.8088,5.8219,5.8242,5.8425,5.8596,5.8739,5.886,5.904,5.9215,5.9272,5.929,5.929,0.0,0.0,0.0,0.0,0.0,0.0,0.0,0.0,0.0,0.0,2.713,2.7046,0.0,0.0,0.0,0.0,0.0,0.0,0.0,0.0,0.0,3.0881,3.067,3.0814,3.1423,3.1524,3.1743,3.2022,3.2307,3.256,3.281,3.3661,3.3807,3.3419,3.3975,3.4496,3.4844,3.4183,3.4281,3.4936,3.4922,3.4946,3.5059,3.5846,0.0,0.0,3.6195,3.563,3.5556,3.7606,3.8471,3.8931,4.0343,4.1001,4.142,4.2328,4.2858,4.3168,4.3314,4.4145,4.5018,4.5128,4.5795,4.6292,4.5688,4.5105,4.4133,4.2122,4.1731,4.1471,4.0661,4.2589,4.4887,4.6713,4.9319,5.1886,5.4056,5.5161,5.5833,5.6077,5.629,5.6401,5.6373,5.6401,5.6401,5.6401,5.6617,5.7288,5.8452,5.878,5.9701,6.1296,6.0672,5.9962,5.9159,5.8768,5.8228,5.7531,5.7751,5.7881,5.7922,5.8011,5.8009,5.7973,5.8129,5.8264,5.8371,5.8465,5.8679,5.8964,5.8983,5.9101,5.929,5.9309,5.929,5.929,0.0,0.0,0.0,0.0,0.0,0.0,0.0,2.6612,2.7057,2.7783,2.794,2.8118,2.8446,2.8653,2.8898,0.0,0.0,0.0,0.0,0.0,0.0,0.0,0.0,0.0,3.1649,3.2079,3.2317,3.2422,0.0,3.3051,3.2809,3.4001,3.409,3.3245,3.3696,3.3851,3.3693,3.3205,3.3204,3.3646,3.4506,3.4916,3.5138,0.0,0.0,0.0,3.5991,3.5762,3.6134,3.7241,3.8307,3.9505,4.1283,4.1976,4.2214,4.2819,4.3373,4.39,4.4446,4.5314,4.6118,4.6157,4.658,4.6652,4.5156,4.4042,4.2878,4.1405,4.0988,4.0766,4.0377,4.2274,4.4419,4.6038,4.8665,5.1335,5.3737,5.4922,5.5699,5.6144,5.6318,5.6401,5.6401,5.6401,5.6401,5.6401,5.6465,5.6992,5.8172,5.9237,6.023,6.1042,6.0422,5.969,5.8877,5.8159,5.7663,5.7388,5.7461,5.7601,5.7792,5.795,5.8042,5.8111,5.829,5.8422,5.8569,5.8675,5.8862,5.9101,5.9101,5.9177,5.9309,5.9383,5.9346,5.9309,0.0,0.0,0.0,0.0,0.0,0.0,0.0,2.638,2.6987,2.8164,2.9109,2.9808,3.0111,2.9673,2.9638,0.0,0.0,0.0,0.0,0.0,0.0,0.0,0.0,0.0,3.1879,0.0,0.0,3.3035,3.3821,0.0,0.0,0.0,0.0,0.0,3.404,3.3834,3.3385,3.2986,3.287,0.0,0.0,3.4949,3.5162,0.0,0.0,0.0,0.0,3.5754,3.6234,3.6728,3.7515,3.8629,4.0724,4.175,4.2286,4.2629,4.3305,4.4207,4.5334,4.6311,4.7045,4.7182,4.7311,4.6852,4.4768,4.3187,4.1895,4.0977,4.0508,4.0246,4.0246,4.1988,4.3827,4.5088,4.7537,5.0272,5.3007,5.4127,5.5035,5.6111,5.6176,5.6204,5.6383,5.6401,5.6401,5.6401,5.6437,5.6859,5.7801,5.9564,6.0566,6.0648,6.0141,5.947,5.8655,5.8039,5.7608,5.7388,5.7717,5.7837,5.7792,5.8084,5.8197,5.8219,5.8443,5.8596,5.8716,5.886,5.9021,5.9215,5.9234,5.9253,5.9327,5.9457,5.942,5.9309,0.0,0.0,0.0,0.0,0.0,0.0,0.0,2.696,2.7995,2.8648,3.0394,3.1626,3.1839,3.0801,3.0037,0.0,0.0,0.0,0.0,0.0,0.0,0.0,0.0,0.0,0.0,0.0,0.0,3.3192,3.3142,0.0,0.0,0.0,0.0,0.0,0.0,3.3218,3.3385,3.286,0.0,0.0,0.0,0.0,0.0,0.0,0.0,0.0,0.0,3.6136,3.5394,3.6966,3.6635,3.5893,3.7797,4.0005,4.1922,4.1822,4.259,4.3742,4.5062,4.572,4.6226,4.6988,4.6816,4.6045,4.4647,4.312,4.1602,4.0135,3.9995,4.0117,4.0117,4.1046,4.258,4.4912,4.6105,4.8144,5.2199,5.282,5.3709,5.6106,5.5758,5.5598,5.6329,5.6401,5.6401,5.6401,5.6626,5.7127,5.7945,5.9537,6.0529,6.0756,6.0711,6.0303,5.9506,5.9416,5.8714,5.7406,5.8275,5.8385,5.7792,5.8084,5.8197,5.8219,5.8529,5.8696,5.8716,5.8904,5.9062,5.9215,5.9272,5.929,5.9327,5.9457,5.942,5.929,0.0,0.0,0.0,0.0,0.0,0.0,2.6158,2.7135,2.8266,2.9582,3.115,3.2332,3.2762,3.206,3.1578,3.1688,0.0,0.0,0.0,0.0,0.0,0.0,0.0,0.0,0.0,0.0,3.3733,3.433,3.3999,0.0,0.0,0.0,0.0,0.0,0.0,3.3126,3.285,3.2509,0.0,0.0,0.0,0.0,0.0,0.0,0.0,0.0,0.0,0.0,3.5126,3.5981,3.5838,3.5407,3.5859,3.7375,3.9285,4.0735,4.1774,4.3048,4.5571,4.6404,4.6748,4.7554,4.6965,4.5833,4.4413,4.2609,4.1092,4.0654,4.0313,4.0257,4.0794,4.1668,4.3007,4.5087,4.6047,4.7658,5.0905,5.1775,5.2798,5.4715,5.5116,5.5526,5.6311,5.6401,5.641,5.6519,5.6689,5.6991,5.7375,5.8536,5.9465,6.0068,6.0086,5.9705,5.8891,5.8891,5.8413,5.7528,5.7905,5.8055,5.8042,5.8242,5.8353,5.8381,5.8614,5.876,5.8884,5.8983,5.9101,5.9253,5.929,5.929,5.9327,5.9457,5.942,5.9252,0.0,0.0,0.0,0.0,0.0,2.5181,2.6331,2.7143,2.8283,3.0086,3.1308,3.2305,3.3188,3.2654,3.249,3.3024,3.2416,0.0,0.0,0.0,0.0,0.0,0.0,0.0,0.0,0.0,3.4182,3.5064,3.4513,3.4399,0.0,0.0,3.4284,3.3436,0.0,0.0,0.0,0.0,0.0,0.0,0.0,0.0,0.0,0.0,0.0,0.0,0.0,0.0,0.0,0.0,0.0,3.5226,3.4792,3.5424,3.6828,3.9304,4.0782,4.2276,4.5209,4.6278,4.6809,4.7585,4.6749,4.5422,4.43,4.2457,4.1044,4.1099,4.0926,4.0976,4.1648,4.2339,4.3306,4.4845,4.5563,4.6897,4.9726,5.0417,5.1405,5.3439,5.376,5.4313,5.558,5.6169,5.6492,5.66,5.6768,5.6899,5.6984,5.7655,5.842,5.9216,5.9253,5.8981,5.8402,5.8402,5.8087,5.7504,5.779,5.7854,5.7671,5.8194,5.8307,5.8135,5.8586,5.8864,5.9004,5.9063,5.9196,5.9364,5.9383,5.9401,5.9401,5.9546,5.9492,5.9287,0.0,0.0,0.0,0.0,0.0,0.0,2.6152,2.697,2.8131,2.986,3.064,3.1604,3.3147,3.2485,3.2289,3.3215,3.239,0.0,0.0,0.0,0.0,0.0,0.0,0.0,0.0,0.0,3.3853,3.4994,3.4252,3.4266,3.4979,3.4602,3.4414,3.4375,0.0,0.0,0.0,0.0,0.0,0.0,0.0,0.0,0.0,0.0,0.0,0.0,0.0,0.0,0.0,0.0,0.0,0.0,0.0,3.4497,3.503,3.7505,3.9556,4.1456,4.3568,4.4899,4.5918,4.6804,4.5898,4.4671,4.4214,4.2894,4.1663,4.1202,4.1777,4.2422,4.2562,4.2689,4.3089,4.3983,4.4221,4.5473,4.8739,4.8645,4.9412,5.2554,5.1512,5.1476,5.3787,5.5607,5.66,5.66,5.6847,5.7003,5.7003,5.713,5.7587,5.8383,5.842,5.8402,5.8402,5.8402,5.8003,5.7206,5.828,5.7966,5.6452,5.7784,5.7968,5.727,5.8469,5.8984,5.9004,5.9215,5.9383,5.9493,5.9563,5.9598,5.9616,5.974,5.9704,5.9466,0.0,0.0,0.0,0.0,0.0,0.0,0.0,2.6956,2.8232,2.9776,3.1303,3.2422,3.2898,3.2701,3.2637,3.2911,3.2486,0.0,0.0,0.0,0.0,0.0,0.0,0.0,0.0,0.0,3.3768,3.5149,3.4576,3.4718,3.5483,3.5347,3.4677,3.3594,3.3926,3.3718,0.0,0.0,0.0,0.0,0.0,0.0,3.6383,0.0,0.0,0.0,0.0,0.0,0.0,0.0,0.0,0.0,0.0,0.0,0.0,3.6266,3.791,3.9735,4.2091,4.3362,4.4204,4.5134,4.4285,4.3214,4.3159,4.2121,4.1343,4.1875,4.2283,4.2737,4.3378,4.3968,4.4695,4.5647,4.5823,4.6489,4.8265,4.8758,4.9555,5.1213,5.2917,5.4466,5.5669,5.6454,5.6873,5.6873,5.7054,5.7156,5.7156,5.7181,5.7315,5.7569,5.8188,5.8257,5.7713,5.8358,5.833,5.7625,5.8066,5.8084,5.7784,5.8267,5.8378,5.8241,5.8728,5.8644,5.8219,5.8934,5.8972,5.8538,5.8574,5.8967,5.9471,5.901,5.9142,5.9408,0.0,0.0,0.0,0.0,0.0,0.0,0.0,2.6985,2.8266,2.9302,3.0994,3.2267,3.2761,3.2613,3.2559,3.2901,3.2772,0.0,0.0,0.0,0.0,0.0,0.0,0.0,3.2704,3.3082,3.3874,3.5078,3.4534,3.4679,3.5382,3.5228,3.4484,3.3364,3.4028,3.397,0.0,0.0,0.0,0.0,0.0,0.0,3.6616,0.0,0.0,0.0,0.0,0.0,0.0,0.0,0.0,0.0,0.0,0.0,0.0,0.0,3.6672,3.8387,4.0215,4.1513,4.2513,4.3101,4.2468,4.1793,4.2176,4.1283,4.0756,4.2137,4.2707,4.3261,4.4179,4.4764,4.5328,4.6,4.6141,4.6649,4.7944,4.8812,4.9752,5.0938,5.3394,5.5175,5.5668,5.6453,5.6951,5.7003,5.7112,5.7188,5.7188,5.7188,5.7188,5.7188,5.7822,5.794,5.748,5.7753,5.768,5.7264,5.7111,5.7124,5.7361,5.7827,5.8106,5.8273,5.875,5.8534,0.0,5.8522,5.8352,5.7692,5.7709,5.8306,5.9032,5.8287,5.8736,5.9473,0.0,0.0,0.0,0.0,0.0,0.0,0.0,2.7161,2.8279,2.8741,3.0086,3.1464,3.2627,3.2226,3.2179,3.2955,0.0,0.0,0.0,0.0,0.0,0.0,0.0,0.0,3.2723,3.3375,3.4108,3.4962,3.4362,3.4348,3.4915,3.454,3.4079,3.364,3.4122,3.4262,3.4083,3.442,3.4986,3.5688,3.5894,3.6258,0.0,0.0,0.0,0.0,0.0,0.0,0.0,0.0,0.0,0.0,0.0,0.0,0.0,0.0,0.0,0.0,0.0,3.9486,4.0768,4.0768,4.0502,4.0457,4.1255,4.0531,0.0,4.2072,4.3112,4.3993,4.4979,4.5185,4.5216,4.5282,4.5458,4.6123,4.7684,4.8817,5.0084,5.1672,5.3189,5.4195,5.4361,5.5861,5.6873,5.6984,5.713,5.7188,5.7188,5.7188,5.7188,5.7213,5.7338,5.7443,5.751,5.6781,5.6398,5.6348,5.5738,5.5544,5.5746,5.6756,5.736,5.7643,5.8532,5.8501,5.7829,5.7959,5.7579,5.6914,5.6962,5.7609,5.8391,5.7583,5.8407,5.9639,0.0,0.0,0.0,0.0,0.0,0.0,0.0,0.0,0.0,0.0,3.0686,3.1613,3.2065,3.1971,3.1981,0.0,0.0,0.0,0.0,0.0,0.0,0.0,0.0,0.0,3.2981,3.3546,3.4363,3.536,3.5511,3.5424,3.5152,3.5661,3.5143,3.3842,3.4591,3.4825,3.4699,3.4943,3.5242,3.5554,3.5703,3.5926,0.0,0.0,0.0,0.0,3.6218,3.5641,0.0,0.0,0.0,0.0,0.0,0.0,0.0,0.0,3.6761,3.707,3.6812,0.0,3.8495,3.861,3.9101,3.9675,0.0,4.0786,4.1871,4.2944,4.3931,4.4845,4.5645,4.586,4.5789,4.537,4.59,4.6495,4.7009,4.9495,5.1826,5.3296,5.4496,5.5243,5.5287,5.6297,5.7003,5.7138,5.7163,5.7188,5.7188,5.7188,5.7257,5.7356,5.7461,5.7285,5.6684,5.6712,5.6401,5.5778,5.5797,5.6163,5.6851,5.723,5.7862,5.8542,5.8216,5.766,5.6986,5.7133,5.6698,5.5928,5.5963,5.6967,5.8251,5.6779,5.7802,5.9563,0.0,0.0,0.0,0.0,0.0,0.0,0.0,0.0,0.0,0.0,0.0,0.0,0.0,0.0,0.0,0.0,0.0,0.0,0.0,0.0,0.0,0.0,0.0,3.2586,3.3237,3.3868,3.451,3.5076,3.5659,3.5605,3.4943,3.586,3.5509,3.422,3.4681,3.4884,3.4817,3.5082,3.5326,3.5504,3.5638,0.0,0.0,0.0,0.0,0.0,3.6556,3.6216,0.0,3.6513,3.6318,3.5888,0.0,0.0,0.0,0.0,3.6959,3.702,3.6452,3.7183,3.8043,3.787,3.8615,3.9501,3.9826,4.0494,4.1386,4.2608,4.3325,4.3993,4.481,4.5649,4.6,4.5405,4.6642,4.7973,4.8912,5.0644,5.2498,5.4331,5.507,5.5595,5.6111,5.6621,5.7003,5.7206,5.7188,5.7188,5.7188,5.7188,5.7213,5.7307,5.7504,5.7242,5.6505,5.6346,5.6033,5.5614,5.5398,5.5987,5.7193,5.7346,5.7959,5.8905,5.8124,5.7417,5.6778,5.6456,5.5817,5.5047,5.5081,5.6182,5.7565,5.5988,5.7262,5.941,0.0,0.0,0.0,0.0,0.0,0.0,0.0,0.0,0.0,0.0,0.0,0.0,0.0,0.0,0.0,0.0,0.0,0.0,0.0,0.0,0.0,0.0,3.2395,3.2722,3.3522,3.4158,3.4574,3.4768,3.5509,3.5453,3.4705,3.5573,3.5427,3.4441,3.4592,3.4664,3.4731,3.4997,3.5228,3.5424,3.5589,0.0,0.0,0.0,0.0,0.0,0.0,0.0,0.0,3.7711,3.7454,3.695,3.7342,0.0,0.0,0.0,0.0,0.0,3.6818,3.7794,3.8698,3.7797,3.8567,3.9717,4.0356,4.0422,4.0756,4.2092,4.2645,4.3095,4.3738,4.5135,4.6,4.5405,4.7267,4.9494,5.1594,5.1976,5.2832,5.4955,5.5312,5.5732,5.6534,5.6749,5.6925,5.7163,5.7188,5.7188,5.7188,5.708,5.7032,5.705,5.717,5.6901,5.6232,5.5801,5.5464,5.5225,5.4696,5.5336,5.699,5.7101,5.7754,5.8741,5.7976,5.7248,5.6625,5.5762,5.5011,5.4409,5.4455,5.5429,5.6668,5.5422,5.6854,5.916,0.0,0.0,0.0,0.0,0.0,0.0,0.0,0.0,0.0,0.0,0.0,0.0,0.0,0.0,0.0,0.0,0.0,0.0,0.0,0.0,0.0,3.3664,3.3309,3.3434,3.4139,3.4048,3.4539,3.5624,3.5923,3.5718,3.5115,3.5362,3.5031,3.4169,3.4356,3.4549,3.4698,3.4765,3.485,3.5001,3.5213,0.0,0.0,0.0,0.0,0.0,0.0,0.0,0.0,3.7552,3.7454,3.7046,3.7951,0.0,0.0,0.0,0.0,0.0,3.806,3.9248,3.988,3.753,3.8567,4.0226,4.0451,4.2037,4.3348,4.3103,4.4237,4.5142,4.4634,4.5435,4.6,4.5405,4.6897,4.9208,5.2279,5.326,5.4019,5.5098,5.5902,5.6232,5.5816,5.6503,5.7028,5.7206,5.7188,5.7188,5.7188,5.6536,5.6242,5.6358,5.5829,5.524,5.4568,5.5255,5.4913,5.3573,5.3635,5.4533,5.6106,5.6368,5.6956,5.7783,5.7078,5.6388,5.5655,5.49,5.4521,5.439,5.4407,5.5059,5.5952,5.5724,5.6937,5.8637,0.0,0.0,0.0,0.0,0.0,0.0,0.0,0.0,0.0,0.0,0.0,0.0,0.0,0.0,0.0,0.0,0.0,0.0,0.0,0.0,3.468,3.4395,3.4227,3.4353,3.4947,3.4505,3.478,3.5788,3.6326,3.621,3.5531,3.5418,3.5059,3.4479,3.432,3.4346,3.4563,3.4664,3.4783,3.4902,0.0,0.0,0.0,0.0,0.0,0.0,0.0,0.0,0.0,0.0,3.7348,3.7559,3.821,0.0,0.0,0.0,0.0,0.0,3.7944,3.8505,3.8942,3.8162,3.9821,4.1605,4.1656,4.2697,4.3407,4.2681,4.3301,4.3872,4.3506,4.4631,4.6119,4.7643,4.8225,4.9508,5.2493,5.2814,5.3393,5.5097,5.5687,5.6052,5.6341,5.676,5.7054,5.7206,5.679,5.6536,5.6536,5.5867,5.548,5.5547,5.5395,5.4943,5.4224,5.4701,5.4583,5.3849,5.4018,5.4991,5.6604,5.6327,5.675,5.7637,5.6425,5.577,5.5484,5.473,5.4409,5.4409,5.4409,5.4931,5.5811,5.6747,5.741,5.7919,0.0,0.0,0.0,0.0,0.0,0.0,0.0,0.0,0.0,0.0,0.0,0.0,0.0,0.0,0.0,0.0,0.0,0.0,0.0,0.0,3.4788,3.4788,3.4788,3.4917,3.5206,3.4751,3.4851,3.5589,3.6357,3.6413,3.5861,3.5596,3.523,3.4789,3.4347,3.4264,3.4414,3.4563,3.4683,3.4802,0.0,0.0,0.0,0.0,0.0,0.0,0.0,0.0,0.0,0.0,0.0,0.0,0.0,0.0,0.0,3.8259,3.8038,3.7763,3.7669,3.7911,3.8353,3.9032,4.0544,4.2074,4.28,4.3065,4.3019,4.2612,4.2902,4.3141,4.2967,4.4445,4.659,4.9379,4.9508,5.0104,5.2539,5.2376,5.283,5.5123,5.5426,5.5861,5.6887,5.7028,5.7015,5.6935,5.6337,5.5993,5.5993,5.5347,5.4978,5.4984,5.5053,5.4714,5.3932,5.4041,5.4124,5.4148,5.4294,5.5154,5.6644,5.6103,5.6322,5.7077,5.5828,5.5266,5.5203,5.462,5.4392,5.4409,5.4409,5.5028,5.6061,5.7406,5.7867,5.7872,0.0,0.0,0.0,0.0,0.0,0.0,0.0,0.0,0.0,0.0,0.0,0.0,0.0,0.0,0.0,0.0,0.0,0.0,0.0,0.0,3.4788,3.4788,3.4788,3.4648,3.4396,3.4265,3.4455,3.4948,3.5589,3.5945,3.6051,3.5818,3.5353,3.4796,3.4499,3.438,3.4414,3.4414,3.4414,3.4467,3.4769,0.0,0.0,0.0,0.0,0.0,0.0,0.0,0.0,0.0,0.0,0.0,0.0,0.0,3.6502,3.6761,3.6832,3.7009,3.7911,3.8844,3.9604,3.9774,3.9631,4.0218,4.3141,4.3366,4.3151,4.3975,4.487,4.5343,4.4662,4.6137,4.7788,4.8909,4.9724,5.0827,5.2654,5.2858,5.3463,5.5176,5.5504,5.5965,5.6912,5.7112,5.688,5.6138,5.6029,5.5993,5.5993,5.5305,5.4943,5.4984,5.4433,5.3762,5.309,5.3216,5.3322,5.3371,5.3512,5.4094,5.5064,5.5073,5.5131,5.5207,5.521,5.482,5.4202,5.429,5.4342,5.4409,5.4409,5.5385,5.683,5.7011,5.8042,5.9264,0.0,0.0,0.0,0.0,0.0,0.0,0.0,0.0,0.0,0.0,0.0,0.0,0.0,0.0,0.0,0.0,0.0,0.0,0.0,3.3522,3.3892,3.4233,3.4769,3.4601,3.3567,3.4405,3.5212,3.6011,3.635,3.6262,3.5653,3.556,3.5067,3.4239,3.4209,3.4196,3.423,3.4346,3.4414,3.4414,3.4683,3.4736,0.0,0.0,0.0,0.0,0.0,0.0,0.0,0.0,3.6329,3.6658,3.739,3.7053,3.6537,3.7147,3.74,3.7442,3.717,3.8029,3.8958,3.873,3.8255,3.8832,4.2466,4.3236,4.3291,4.3592,4.451,4.5187,4.4988,4.6705,4.8358,4.8901,5.0075,5.1365,5.2725,5.2911,5.3355,5.4568,5.4771,5.5135,5.6045,5.583,5.593,5.6555,5.5347,5.478,5.5287,5.4616,5.3997,5.3517,5.3918,5.3756,5.2999,5.3124,5.323,5.33,5.3359,5.3904,5.488,5.442,5.4517,5.5098,5.469,5.4408,5.4218,5.4323,5.4375,5.4409,5.4409,5.5423,5.6905,5.6974,5.8097,5.9525,0.0,0.0,0.0,0.0,0.0,0.0,0.0,0.0,0.0,0.0,0.0,0.0,0.0,0.0,0.0,0.0,0.0,0.0,3.2789,3.2993,3.3278,3.371,3.4399,3.4383,3.355,3.461,3.5487,3.6045,3.6483,3.624,3.5337,3.5249,3.4854,3.4168,3.3993,3.3927,3.3994,3.4076,3.4143,3.4224,3.4543,3.4783,0.0,0.0,0.0,0.0,0.0,0.0,0.0,0.0,3.5908,3.6242,3.7302,3.7075,3.6554,3.7196,3.7492,3.7501,3.707,3.7611,3.8254,3.8166,3.7787,3.8293,4.1837,4.262,4.2864,4.379,4.4597,4.5369,4.6,4.7417,4.8686,4.9255,5.0457,5.1554,5.2363,5.2485,5.2848,5.3747,5.3913,5.4276,5.5176,5.4882,5.4993,5.583,5.4502,5.3899,5.449,5.4036,5.3525,5.2963,5.3672,5.3715,5.2934,5.3082,5.3191,5.33,5.33,5.3715,5.451,5.3955,5.4108,5.4726,5.4279,5.4128,5.4235,5.4323,5.4375,5.4409,5.4409,5.5254,5.653,5.6845,5.7893,5.9077,0.0,0.0,0.0,0.0,0.0,0.0,0.0,0.0,0.0,0.0,0.0,0.0,0.0,0.0,0.0,0.0,0.0,0.0,3.2169,3.2762,3.3135,3.3293,3.3683,3.4085,3.4451,3.4931,3.4983,3.4606,3.5619,3.5794,3.5212,3.4932,3.4789,3.4768,3.3902,3.3587,3.3703,3.3554,3.3573,3.3747,3.442,3.4783,3.4935,0.0,0.0,0.0,0.0,0.0,0.0,0.0,3.5431,3.6517,3.614,3.6136,3.634,3.6614,3.6675,3.6917,3.7902,3.7844,3.7702,3.8497,3.8348,3.871,4.1402,4.1447,4.1774,4.4777,4.5615,4.6299,4.7972,4.8399,4.8844,4.991,5.0775,5.135,5.1479,5.1632,5.1993,5.2804,5.3021,5.3451,5.4403,5.4475,5.4208,5.3556,5.3508,5.3556,5.3693,5.3693,5.3693,5.3693,5.3756,5.3472,5.2783,5.2915,5.3088,5.3297,5.33,5.3439,5.3714,5.3774,5.3813,5.3813,5.3944,5.4055,5.4109,5.4235,5.4342,5.4409,5.4409,5.4897,5.5687,5.6568,5.7394,5.7976,0.0,0.0,0.0,0.0,0.0,0.0,0.0,0.0,0.0,0.0,0.0,0.0,0.0,0.0,0.0,0.0,0.0,0.0,3.1771,3.1935,3.1995,3.191,3.3193,3.3611,3.3038,3.385,3.4871,3.6086,3.6358,3.6182,3.5557,3.5182,3.4827,3.449,3.38,3.3536,3.3554,3.3536,3.3242,3.2972,3.4296,3.4604,3.4322,0.0,0.0,0.0,0.0,0.0,0.0,0.0,0.0,0.0,3.6416,3.591,3.4994,3.627,3.6299,3.5932,3.6008,3.7103,3.8229,3.8034,3.8875,4.0239,4.2124,4.2505,4.3042,4.5225,4.5327,4.5376,4.6479,4.7604,4.8539,4.9111,5.038,5.135,5.1479,5.1632,5.1779,5.2029,5.2097,5.2452,5.3282,5.2946,5.3057,5.3986,5.3207,5.293,5.3538,5.3646,5.344,5.2878,5.3466,5.3431,5.2654,5.2893,5.3042,5.3088,5.3235,5.3439,5.3714,5.3715,5.3754,5.3813,5.3944,5.4,5.4037,5.4128,5.4235,5.4324,5.4324,5.4846,5.563,5.5893,5.653,5.7206,0.0,0.0,0.0,0.0,0.0,0.0,0.0,0.0,0.0,0.0,3.1522,3.1706,0.0,0.0,0.0,0.0,0.0,0.0,3.1463,3.1519,3.1664,3.1889,3.2798,3.3223,3.299,3.4058,3.5124,3.6175,3.5957,3.5424,3.459,3.4671,3.4421,3.3907,3.3645,3.3391,3.3176,3.3126,3.2748,3.2349,3.3548,3.403,3.4011,0.0,0.0,0.0,0.0,0.0,0.0,0.0,0.0,0.0,3.6238,3.5774,3.4924,3.6496,3.6296,3.5752,3.6456,3.7311,3.8145,3.8782,3.9851,4.129,4.3288,4.389,4.4423,4.584,4.5554,4.5422,4.6611,4.7387,4.8084,4.8682,4.9878,5.0769,5.0846,5.1292,5.1607,5.1538,5.164,5.1886,5.2394,5.2051,5.2126,5.2895,5.2504,5.2341,5.2598,5.2994,5.3005,5.2516,5.3002,5.3053,5.259,5.2765,5.2893,5.2999,5.313,5.3316,5.3538,5.3656,5.3734,5.3813,5.3944,5.4019,5.4055,5.4128,5.42,5.4236,5.4272,5.4624,5.5109,5.5428,5.5896,5.6327,0.0,0.0,3.0773,3.0986,0.0,0.0,0.0,0.0,0.0,0.0,3.1743,3.195,0.0,0.0,0.0,3.2137,3.1689,3.1348,3.1357,3.143,3.1824,3.2648,3.2602,3.3054,3.4119,3.5129,3.5581,3.5484,3.486,3.4043,3.3044,3.3786,3.383,3.3258,3.3365,3.3179,3.2737,3.2608,3.2261,3.1876,3.2564,3.3275,3.3878,3.343,0.0,0.0,0.0,0.0,0.0,0.0,0.0,0.0,3.5664,3.5629,3.5554,3.6906,3.6489,3.6046,3.8146,3.7965,3.7792,4.021,4.1156,4.2157,4.4633,4.53,4.5604,4.6355,4.6003,4.6048,4.7577,4.7492,4.7498,4.8498,4.9307,4.9818,4.9889,5.0758,5.1347,5.1226,5.1503,5.1637,5.1494,5.1547,5.1361,5.0796,5.1527,5.1753,5.1208,5.2027,5.2462,5.2389,5.2462,5.2526,5.2586,5.2586,5.2721,5.2959,5.2999,5.3088,5.3297,5.3484,5.3585,5.3682,5.387,5.4019,5.4073,5.42,5.4182,5.4091,5.4236,5.429,5.4365,5.5113,5.5375,5.5358,0.0,0.0,3.0949,3.0986,0.0,0.0,0.0,0.0,0.0,0.0,0.0,0.0,0.0,0.0,0.0,3.1725,3.0863,3.0717,3.1647,3.1432,3.1446,3.1838,3.301,3.4425,3.6068,3.5389,3.5368,3.6101,3.5501,3.4724,3.3858,3.4172,3.4066,3.3576,3.308,3.2901,3.2941,3.291,3.2528,3.2074,3.3364,3.3724,3.3461,3.359,3.3472,0.0,0.0,0.0,0.0,0.0,0.0,0.0,3.4924,3.4833,3.4581,3.5561,3.5645,3.5591,3.6295,3.7199,3.8432,4.0321,4.2426,4.4218,4.502,4.522,4.5325,4.5604,4.5544,4.5606,4.6048,4.6621,4.7169,4.7481,4.8369,4.9245,4.9818,5.0262,5.0563,5.052,5.1215,5.1191,4.9935,5.0388,5.049,4.9847,5.0629,5.0878,5.024,5.1674,5.2208,5.1574,5.208,5.2405,5.2526,5.2526,5.2577,5.2698,5.2893,5.3085,5.3214,5.2676,5.2519,5.2673,5.3437,5.3773,5.3792,5.387,5.3945,5.4019,5.4037,5.4092,5.4164,5.4332,5.4371,5.4335,0.0,0.0,0.0,0.0,0.0,0.0,0.0,0.0,0.0,0.0,0.0,0.0,0.0,3.14,0.0,0.0,3.0535,3.0339,3.0894,3.1104,3.1575,3.2374,3.3798,3.4812,3.5353,3.4982,3.4829,3.4922,3.469,3.4176,3.3467,3.4191,3.4105,3.3363,3.3348,3.3189,3.3004,3.3004,3.2606,3.2105,3.328,3.3565,3.3269,3.3216,3.302,3.2835,3.2747,0.0,0.0,0.0,0.0,0.0,0.0,0.0,3.4246,3.4984,3.508,3.5224,3.6425,3.7171,3.8188,4.0785,4.3132,4.4886,4.514,4.5203,4.5247,4.5371,4.5397,4.545,4.5641,4.6117,4.6481,4.6609,4.746,4.8428,4.9254,4.9495,4.988,5.0675,5.0926,5.0681,4.9862,5.0214,5.0222,4.9549,5.0018,5.0165,4.982,5.1089,5.1605,5.1125,5.1878,5.2335,5.2405,5.2095,5.1987,5.2081,5.2233,5.2385,5.2538,5.271,5.2813,5.291,5.3451,5.3453,5.3121,5.3664,5.3628,5.3293,5.3796,5.3963,5.3963,5.4037,5.3982,5.3907,0.0,0.0,0.0,0.0,0.0,0.0,0.0,0.0,0.0,0.0,0.0,0.0,0.0,3.1281,3.1083,0.0,0.0,0.0,3.0214,3.0957,3.2018,3.3389,3.4423,3.466,3.4068,3.4509,3.4344,3.3445,3.3539,3.3328,3.2815,3.4032,3.4056,3.3127,3.3627,3.3526,3.2966,3.292,3.261,3.2137,3.2867,3.3166,3.3077,3.2408,3.239,3.2667,3.2057,3.2241,3.2816,3.3005,0.0,0.0,0.0,0.0,3.4018,3.4626,3.4646,3.4882,3.6725,3.7218,3.7973,4.1241,4.3318,4.4661,4.5052,4.514,4.5194,4.5353,4.5423,4.5502,4.5693,4.577,4.5821,4.5947,4.664,4.7493,4.8436,4.8567,4.9119,5.0486,5.0427,5.0165,4.9898,5.0211,5.012,4.9311,4.9528,4.9585,4.932,5.0461,5.1025,5.077,5.1633,5.2094,5.2136,5.1416,5.1149,5.126,5.1278,5.1391,5.1606,5.2706,5.3217,5.3256,5.3374,5.3007,5.2415,5.3348,5.3181,5.2472,5.3404,5.3739,5.3756,5.3721,5.372,5.3755,0.0,0.0,0.0,0.0,0.0,0.0,0.0,0.0,0.0,0.0,3.189,3.164,3.0801,3.041,2.9959,2.9389,2.9077,2.9505,3.0949,0.0,0.0,3.402,3.4016,3.4212,3.4661,3.466,3.432,3.3656,3.3275,3.3109,3.3145,3.3787,3.3871,3.3438,3.3358,3.3092,3.2736,3.2602,3.2512,3.2452,3.2557,3.2617,3.2482,3.1255,3.115,3.1671,3.1291,3.1634,3.2373,3.2788,3.2672,0.0,0.0,0.0,3.3183,3.385,3.4173,3.4423,3.4832,3.6638,3.8949,4.1339,4.2766,4.3796,4.465,4.4858,4.4968,4.531,4.5485,4.5554,4.5476,4.5641,4.5812,4.5821,4.6035,4.6492,4.7458,4.7681,4.7826,4.8063,4.9283,4.9614,4.8261,4.9447,4.9766,4.8384,4.9159,4.9145,4.7847,5.0001,5.0954,5.0226,5.0895,5.1329,5.1425,5.0539,5.0163,5.0297,5.0402,5.0514,5.0623,5.1593,5.2103,5.2204,5.2269,5.2255,5.2145,5.2471,5.2509,5.2338,5.2584,5.3027,5.3447,5.2783,5.2968,5.3539,0.0,0.0,0.0,0.0,0.0,0.0,0.0,0.0,0.0,0.0,0.0,3.1995,3.1495,3.0657,2.9938,2.9533,2.8762,2.9062,3.0792,3.0997,3.1962,3.3966,3.3305,3.3264,3.4061,3.3725,3.3264,3.2761,3.2622,3.2851,3.3376,3.3737,3.3947,3.4054,3.3695,3.3591,3.3651,3.2856,3.2721,3.3066,3.3066,3.3066,3.2916,3.1555,3.1523,3.2074,3.1276,3.1326,3.1816,3.2155,3.2217,3.2246,3.2768,0.0,0.0,0.0,3.38,3.3917,3.4939,3.6762,3.8937,4.1226,4.2534,4.3523,4.4433,4.4703,4.4886,4.5123,4.5336,4.5485,4.5528,4.5607,4.5718,4.5795,4.5922,4.6353,4.7367,4.7111,4.7163,4.8144,4.8536,4.8614,4.8342,4.9143,4.9397,4.8692,4.881,4.8608,4.7927,4.9059,4.9541,4.9113,4.9888,5.0348,5.0393,4.9618,4.9288,4.942,4.9028,4.9389,5.0332,5.0329,5.0655,5.1234,5.184,5.1827,5.144,5.1598,5.1875,5.2201,5.2338,5.2797,5.3345,5.3073,5.3145,5.338,0.0,0.0,0.0,0.0,0.0,0.0,0.0,0.0,0.0,0.0,0.0,3.1922,3.1652,0.0,0.0,0.0,2.8292,2.8591,3.0432,3.0337,3.1191,3.3378,3.2475,3.2246,3.3027,3.2623,3.2236,3.1871,3.1872,3.2392,3.3366,3.3562,3.391,3.4344,3.3969,3.3909,3.4027,3.2811,3.2676,3.3245,3.3275,3.3275,3.314,3.2123,3.2242,3.2735,3.1442,3.125,3.1597,3.1576,3.1565,3.1624,3.2035,3.2497,0.0,0.0,0.0,3.3043,3.4529,3.6133,3.7959,4.0267,4.1747,4.2918,4.3984,4.4332,4.4538,4.4862,4.514,4.5336,4.5459,4.5537,4.5641,4.577,4.5871,4.6257,4.7111,4.6639,4.6685,4.797,4.7776,4.7847,4.8579,4.8912,4.9061,4.8983,4.8544,4.8166,4.7959,4.8326,4.8506,4.8398,4.9081,4.9428,4.9405,4.8704,4.8413,4.8522,4.7946,4.8354,4.9622,4.9331,4.945,4.9974,5.1026,5.1086,5.0533,5.0689,5.1001,5.1434,5.1573,5.2051,5.2631,5.2751,5.286,5.2959,0.0,0.0,0.0,0.0,0.0,0.0,0.0,0.0,0.0,0.0,0.0,3.079,3.0359,2.9331,2.8266,2.7244,2.7271,2.8126,3.0009,3.0355,3.1024,3.222,3.1505,0.0,3.1767,3.1634,3.1541,3.1539,3.1222,3.1741,3.3044,3.3174,3.348,3.3925,3.3849,3.3517,3.3015,3.2189,3.209,3.2557,3.269,3.2676,3.2527,3.2452,3.2871,3.3246,3.1596,3.15,3.2029,3.1161,3.0532,3.0247,3.1016,3.0965,3.0712,0.0,0.0,0.0,3.2357,3.3902,3.5787,3.802,3.9863,4.1536,4.3094,4.3487,4.3745,4.464,4.4923,4.5059,4.5194,4.5432,4.5641,4.577,4.5812,4.5914,4.6224,4.6232,4.6232,4.6302,4.6958,4.7696,4.8451,4.8692,4.8786,4.8725,4.8389,4.7923,4.7304,4.8173,4.8698,4.868,4.8734,4.869,4.856,4.7769,4.7439,4.7565,4.7529,4.7629,4.7862,4.8714,4.8722,4.8086,4.9233,4.9643,4.9488,4.9687,4.9685,4.9543,4.9761,5.0199,5.0771,5.0892,5.1346,5.1974,0.0,0.0,0.0,0.0,0.0,0.0,0.0,0.0,0.0,0.0,0.0,0.0,0.0,2.9312,2.8224,2.7911,2.7414,2.7871,2.9665,2.9275,3.0032,3.2414,3.1249,3.0984,3.1849,3.1766,3.1416,3.0853,3.1386,3.1647,3.1665,3.2701,3.3006,3.271,3.3107,3.3152,3.2849,3.1617,3.1242,3.1511,3.1905,3.2357,3.2762,3.2238,3.3065,3.4243,3.2431,3.1717,3.1712,3.1893,3.1087,3.0137,3.0952,3.1522,3.1854,3.1854,3.1801,3.1841,3.2279,3.3604,3.5289,3.7111,3.9222,4.1151,4.2202,4.2945,4.3504,4.383,4.4099,4.4304,4.4358,4.4964,4.5528,4.5641,4.5744,4.5871,4.6048,4.6147,4.6196,4.6196,4.6442,4.6958,4.7731,4.7945,4.802,4.8003,4.7977,4.7607,4.6854,4.7316,4.7613,4.7613,4.768,4.7702,4.7658,4.7389,4.7294,4.7363,4.7363,4.7428,4.7572,4.7925,4.7928,4.7675,4.8174,4.8446,4.8508,4.857,4.9192,5.0008,4.9557,5.014,5.1247,5.1307,5.1143,5.1082,0.0,0.0,0.0,0.0,0.0,3.1757,3.1154,0.0,0.0,0.0,0.0,0.0,0.0,0.0,2.8584,2.8348,2.7944,2.8113,2.9054,2.8557,2.9345,3.1853,3.0816,3.0751,3.1901,3.1727,3.1311,3.0664,3.1235,3.1262,3.0819,3.1845,3.2045,3.1564,3.1896,3.2253,3.2516,3.1367,3.0867,3.097,3.1794,3.2293,3.2578,3.2718,3.3517,3.4395,3.3064,3.2376,3.2148,3.261,3.1998,3.1049,3.1173,3.1404,3.1638,3.1587,3.1445,3.143,3.1851,3.2945,3.436,3.5951,3.7819,3.9728,4.155,4.2274,4.2757,4.3291,4.3627,4.3763,4.3543,4.4292,4.513,4.558,4.5693,4.5812,4.5972,4.6073,4.6122,4.6073,4.6147,4.6512,4.7259,4.7202,4.7241,4.7505,4.74,4.7108,4.6625,4.6819,4.6957,4.6998,4.7088,4.7133,4.7133,4.7133,4.7178,4.7272,4.7272,4.732,4.7428,4.7428,4.7425,4.7421,4.7511,4.7681,4.7847,4.8161,4.8764,4.9455,4.9222,4.9625,5.0408,5.0936,5.0648,5.0208,0.0,3.3056,3.3399,3.285,3.2725,3.2402,3.1531,3.1368,3.126,3.0973,0.0,0.0,0.0,0.0,0.0,2.8314,2.8756,2.8803,2.8142,2.8348,2.9074,3.0417,3.0165,3.0576,3.1768,3.1427,3.1143,3.0992,3.0751,3.0618,3.0587,3.0603,3.0603,3.0577,3.0319,3.0853,3.1888,3.1357,3.104,3.0967,3.2319,3.2399,3.1951,3.3924,3.4316,3.3744,3.3533,3.3444,3.3391,3.3255,3.3134,3.2846,3.1609,3.0426,2.9646,3.0456,3.0403,3.0206,0.0,0.0,0.0,3.4435,3.5507,3.7169,4.1059,4.1398,4.1384,4.2993,4.3512,4.3469,4.2842,4.3494,4.4483,4.5597,4.5667,4.5693,4.5947,4.5998,4.5947,4.5838,4.6023,4.6445,4.7114,4.656,4.6512,4.7292,4.6766,4.6429,4.659,4.6708,4.6842,4.698,4.6998,4.6998,4.6998,4.6998,4.7066,4.7196,4.7196,4.7205,4.7298,4.728,4.7249,4.7178,4.7254,4.7363,4.7544,4.8392,4.8326,4.7772,4.8654,4.8551,4.8099,4.9661,4.9716,4.9349,3.2874,3.3141,3.3381,3.334,3.2953,3.2289,3.1336,3.0865,3.043,0.0,0.0,0.0,2.9959,2.9549,2.916,2.901,2.8851,2.8692,2.8603,2.8308,2.8742,3.0072,3.0137,3.0521,3.1348,3.1845,3.1616,3.0715,3.1113,3.0887,3.0024,3.0513,3.0695,3.0603,3.0618,3.0464,3.0181,2.9884,2.9704,2.9774,3.1119,3.2124,3.2888,3.3938,3.4912,3.5677,3.5227,3.4508,3.3923,3.486,3.3634,3.1688,3.154,3.0568,2.9685,3.058,3.1137,0.0,3.1167,0.0,0.0,0.0,0.0,0.0,3.7584,3.8706,3.9868,4.1482,4.2342,4.2949,4.335,4.4148,4.49,4.5319,4.5511,4.5632,4.5693,4.5795,4.5846,4.5795,4.5947,4.6085,4.6168,4.6112,4.611,4.6236,4.6069,4.6005,4.6172,4.6374,4.6566,4.6725,4.6708,4.6708,4.6708,4.6708,4.6731,4.6772,4.6772,4.6842,4.6939,4.6847,4.6847,4.6911,4.6824,4.6806,4.6893,4.7469,4.7587,4.7479,4.8311,4.8514,4.8532,5.0118,4.9474,4.8207,3.3108,3.3052,3.3141,3.3632,3.3169,3.2554,3.2119,0.0,3.1042,0.0,0.0,0.0,3.0497,0.0,3.0781,3.0068,3.0,2.9689,2.8923,2.8627,2.884,2.9616,2.9853,3.0376,3.1275,3.1863,3.1785,3.1011,3.1529,3.1144,2.9988,3.0654,3.0595,2.9989,3.031,2.9996,2.9195,2.9088,2.9006,2.9095,3.0597,3.1659,3.2497,3.3735,3.4758,3.5554,3.5657,3.5293,3.5003,3.6465,3.5166,3.2966,3.2905,3.1694,3.0503,3.153,3.1851,0.0,0.0,0.0,3.3093,3.335,0.0,0.0,3.7135,3.7936,3.8724,4.0624,4.1437,4.1863,4.2164,4.3056,4.3851,4.4038,4.5003,4.5782,4.5951,4.6039,4.623,4.6533,4.6769,4.6847,4.6778,4.6551,4.6428,4.6385,4.6089,4.5922,4.5998,4.6154,4.6259,4.635,4.6405,4.6429,4.6429,4.6429,4.6429,4.6429,4.6111,4.6018,4.6088,4.5729,4.5546,4.5523,4.59,4.6035,4.6012,4.6664,4.7012,4.7237,4.8066,4.8196,4.8093,4.9326,4.8675,4.7501,0.0,3.2879,3.2928,3.3716,3.3364,3.3097,0.0,0.0,0.0,0.0,3.1723,3.1515,0.0,0.0,0.0,0.0,3.1645,3.111,2.9179,2.917,0.0,0.0,0.0,0.0,3.1323,3.1747,3.1846,3.1678,3.1821,3.1398,3.0441,3.0813,3.041,2.9351,2.9738,2.9517,2.8842,2.8818,2.8778,2.8876,3.0488,3.127,3.1653,3.3548,3.436,3.4588,3.5533,3.5927,3.6187,3.7525,3.6855,3.5336,3.4744,3.3214,3.1836,3.2676,3.2507,0.0,0.0,0.0,0.0,3.4167,3.3564,0.0,3.781,3.7894,3.7728,3.9843,4.0431,4.0443,4.0087,4.1013,4.1907,4.2172,4.4126,4.5806,4.6357,4.6525,4.6835,4.7575,4.7865,4.801,4.7993,4.736,4.6978,4.7073,4.6384,4.5947,4.5922,4.5955,4.5963,4.5963,4.6087,4.6161,4.6161,4.6161,4.6137,4.6137,4.5453,4.5085,4.4979,4.4501,4.4097,4.3838,4.4805,4.5128,4.5091,4.5855,4.6495,4.7046,4.7742,4.7668,4.7178,4.789,4.7558,4.6972,3.2009,3.2587,3.3187,3.3469,3.3514,3.3623,0.0,0.0,0.0,0.0,0.0,0.0,0.0,0.0,0.0,0.0,3.1903,3.0823,2.9564,2.9412,0.0,0.0,0.0,0.0,0.0,3.2259,3.261,3.2163,3.152,3.142,3.1849,3.0379,3.0069,3.074,2.984,2.9294,2.9021,2.8865,2.9154,2.9781,3.0458,3.1651,3.3167,3.4207,3.5271,3.6275,3.6733,3.648,3.5921,3.5946,3.5783,3.5351,3.4107,3.3517,3.3083,3.2151,3.2576,3.3274,3.2949,3.2846,3.2959,3.3379,3.3345,0.0,3.3882,3.5107,3.6274,3.6961,3.8028,3.9022,3.9525,3.9938,4.0217,4.0373,4.2331,4.4316,4.5812,4.6618,4.713,4.7284,4.7442,4.7481,4.7386,4.6893,4.6571,4.649,4.597,4.5641,4.552,4.5727,4.5846,4.5846,4.5871,4.5871,4.5871,4.5871,4.5829,4.5709,4.557,4.512,4.4464,4.5041,4.4953,4.4347,4.4553,4.4647,4.4622,4.4678,4.5495,4.6702,4.6862,4.6779,4.6655,4.7426,4.6753,4.5758,3.195,3.2112,3.254,3.3409,0.0,0.0,0.0,0.0,0.0,0.0,0.0,0.0,0.0,0.0,0.0,0.0,0.0,0.0,0.0,0.0,2.9707,0.0,0.0,0.0,0.0,3.1429,3.2041,3.2813,3.1653,3.1397,3.1929,3.0847,3.0529,3.0823,3.0148,2.976,2.9627,2.9155,2.9132,2.9524,3.0225,3.1789,3.3777,3.443,3.553,3.6723,3.6892,3.6952,3.6873,3.6423,3.6111,3.5786,3.5162,3.441,3.3704,3.3262,3.3549,3.3895,3.3485,3.3392,3.3573,3.4078,3.3738,0.0,0.0,3.4922,3.5424,3.6365,3.7144,3.7808,3.8302,3.8711,3.8987,3.9142,4.1345,4.311,4.3233,4.5727,4.7469,4.7267,4.7557,4.7637,4.7381,4.6783,4.6291,4.5983,4.5657,4.5502,4.5511,4.5563,4.5607,4.5607,4.5537,4.5537,4.5607,4.5459,4.5216,4.4863,4.4785,4.4105,4.2971,4.3872,4.3803,4.3106,4.3915,4.4268,4.4302,4.4552,4.5174,4.6013,4.6087,4.5909,4.5712,4.636,4.5653,4.4544,3.1853,3.1659,3.1843,3.3179,0.0,0.0,0.0,0.0,0.0,0.0,0.0,0.0,0.0,3.4432,3.4426,0.0,0.0,0.0,3.1524,3.1134,3.0535,0.0,0.0,2.9792,0.0,0.0,3.1232,3.2976,3.1675,3.1219,3.1541,3.1206,3.0839,3.0495,3.0425,3.0267,2.999,2.9493,2.9297,2.9407,3.0169,3.1621,3.3435,3.4263,3.531,3.6398,3.6661,3.7235,3.7763,3.7195,3.6629,3.6126,3.5962,3.5187,3.4335,3.4376,3.4455,3.4406,3.396,3.3848,3.4043,3.4726,3.4248,3.3999,0.0,0.0,0.0,3.5974,3.6295,3.647,3.668,3.7126,3.754,3.7677,4.0074,4.1466,4.0144,4.3883,4.6709,4.6539,4.7257,4.7597,4.7181,4.633,4.5701,4.5441,4.5121,4.5087,4.5468,4.5423,4.5371,4.5371,4.522,4.5152,4.5094,4.4908,4.4477,4.3829,4.3698,4.297,4.1792,4.2629,4.2621,4.2023,4.3295,4.3877,4.3955,4.4436,4.4756,4.5007,4.5217,4.5155,4.4983,4.5225,4.461,4.3707,3.0714,3.142,3.2029,3.2404,0.0,0.0,0.0,0.0,0.0,0.0,0.0,3.6797,3.5936,3.6215,3.6337,3.6076,3.5279,3.4441,3.3602,3.2371,0.0,3.1893,3.0611,3.062,3.2219,0.0,0.0,3.1797,3.0935,3.0807,3.1412,3.0241,2.9954,3.0402,3.0402,3.0036,2.9402,2.9761,3.0296,3.0937,3.0804,3.0982,3.1542,3.3446,3.4541,3.527,3.6517,3.7122,3.7194,3.6533,3.6193,3.5826,3.456,3.4989,3.5606,3.3794,3.4222,3.5011,3.3868,3.3617,3.3752,3.3858,3.4433,3.4718,3.3656,0.0,3.485,3.3836,0.0,3.4594,3.4644,0.0,0.0,3.5094,3.7152,3.8474,3.7753,4.0495,4.2881,4.3664,4.5391,4.635,4.5947,4.4748,4.4245,4.4852,4.3888,4.3803,4.4991,4.5167,4.522,4.522,4.5086,4.4724,4.4074,4.4031,4.3638,4.2843,4.2722,4.2558,4.2413,4.3054,4.3305,4.321,4.3242,4.3299,4.3316,4.3244,4.3306,4.35,4.3997,4.4577,4.5094,4.4413,4.4052,4.387,3.0866,3.1205,3.1663,3.2318,0.0,0.0,0.0,0.0,0.0,0.0,0.0,3.6476,3.6121,3.5943,3.5798,3.5739,3.5412,3.471,3.3626,3.2997,0.0,3.1806,3.1072,3.1049,3.1792,0.0,0.0,3.1493,3.033,3.0139,3.0863,2.992,2.984,3.048,3.0919,3.111,3.1125,3.1353,3.1392,3.1306,3.1108,3.0872,3.0916,3.3239,3.4748,3.5775,3.6686,3.703,3.7058,3.6864,3.6089,3.5291,3.5597,3.5179,3.4514,3.4304,3.4403,3.438,3.3694,3.3831,3.4186,3.4213,3.4568,3.4748,3.4179,3.4246,3.4274,3.3727,0.0,0.0,0.0,0.0,0.0,0.0,3.6199,3.7059,3.5951,3.8448,4.0748,4.1728,4.2651,4.3171,4.3098,4.3339,4.3708,4.4123,4.3668,4.3824,4.4954,4.4978,4.4817,4.447,4.4319,4.3924,4.3253,4.3061,4.2643,4.1946,4.2241,4.2119,4.1675,4.2787,4.3244,4.3205,4.3558,4.3657,4.3526,4.3381,4.3381,4.3468,4.3595,4.3867,4.4089,4.3603,4.3176,4.2709,3.1336,3.1456,3.1693,3.2227,0.0,0.0,0.0,3.4785,3.5625,3.6398,3.6519,3.6469,3.6282,3.6305,3.6299,3.624,3.6243,3.5777,3.4695,3.4004,3.3398,3.2851,3.1838,3.1649,3.2363,3.1022,3.0625,0.0,3.0025,2.9713,3.0284,2.9765,2.982,3.0293,3.0998,3.1621,3.2208,3.2449,3.2424,3.2155,3.1931,3.1566,3.1401,3.3349,3.5118,3.6609,3.6933,3.703,3.6984,3.6916,3.5987,3.5083,3.6023,3.5253,3.4145,3.4802,3.4735,3.4341,3.3803,3.4064,3.4424,3.4276,3.4346,3.4436,3.4504,3.43,3.4137,3.4179,3.4401,0.0,0.0,0.0,3.4737,3.4642,0.0,3.6056,3.4824,3.6455,3.8242,3.94,4.0007,4.0447,4.0693,4.1546,4.2317,4.2928,4.2768,4.3127,4.4241,4.4433,4.4286,4.3778,4.3644,4.3233,4.2556,4.2117,4.16,4.1002,4.1548,4.1644,4.1338,4.2451,4.3053,4.327,4.366,4.3743,4.3595,4.3462,4.3372,4.3339,4.3235,4.3175,4.3187,4.3175,4.2841,4.2194,3.1804,3.2353,0.0,3.192,3.2458,3.3283,3.4248,3.4678,3.519,3.5923,3.7125,3.7686,3.7046,3.8294,3.9093,3.8919,3.8606,3.8289,3.8058,3.5774,3.505,3.6381,3.3329,3.2608,3.4854,3.2047,3.0707,3.0914,3.0097,2.9697,2.973,2.9697,2.9714,2.9762,3.03,3.0934,3.1662,3.2407,3.3294,3.4157,3.3641,3.3345,3.3266,3.3861,3.549,3.7449,3.7254,3.7089,3.6906,3.628,3.5807,3.5367,3.4767,3.5056,3.5515,3.4909,3.5245,3.5564,3.4406,3.4199,3.4151,3.3498,3.3534,3.3742,3.3726,3.4212,3.4734,3.4924,3.5375,3.5742,3.5742,3.5851,3.5734,0.0,3.5253,0.0,0.0,3.4188,3.4572,3.6161,3.7744,3.8898,3.9494,3.909,3.9403,4.097,4.0544,4.0917,4.2507,4.3323,4.3651,4.342,4.3293,4.2818,4.1948,4.1211,4.0544,3.9934,4.0368,4.1086,4.2061,4.2261,4.289,4.3835,4.3355,4.3143,4.3113,4.2976,4.2821,4.2648,4.2617,4.2632,4.2709,4.335,4.3423,4.3072,3.1497,3.2307,3.2856,3.2285,3.2514,3.3039,3.3932,3.4657,3.5519,3.6648,3.7681,3.8402,3.8637,3.9109,3.9393,3.9346,3.9235,3.8935,3.8431,3.6825,3.6349,3.7403,3.4595,3.3627,3.4961,3.3126,3.1919,3.1506,3.0826,3.069,3.1073,3.0245,3.0012,3.039,3.1074,3.1975,3.3035,3.368,3.4404,3.507,3.4043,3.4059,3.4762,3.5482,3.5909,3.6245,3.7191,3.7359,3.7088,3.6883,3.6299,3.5657,3.5889,3.5457,3.4979,3.5268,3.5234,3.5072,3.4817,3.5065,3.5099,3.4093,3.4222,3.4387,3.3381,3.3846,3.4444,3.4401,3.4967,3.5514,3.5641,3.5712,3.5527,0.0,0.0,3.4799,0.0,3.3184,3.3356,3.4472,3.6829,3.8068,3.7386,3.847,3.9623,4.0645,4.0627,4.1237,4.2755,4.3092,4.2762,4.1715,4.2114,4.1686,4.0331,4.0064,3.984,3.9633,3.9648,4.0413,4.1827,4.165,4.231,4.3522,4.2635,4.2241,4.2195,4.148,4.1347,4.1626,4.161,4.1741,4.1981,4.2299,4.2551,4.25,3.1921,3.253,3.302,3.2557,3.2645,3.3057,3.3841,3.4729,3.577,3.7111,3.8004,3.8776,3.9424,3.9787,3.9961,3.9961,3.9801,3.9404,3.8707,3.7727,3.7425,3.7976,3.6311,3.5766,3.6583,3.4694,3.3483,3.3015,3.1859,3.1334,3.1395,3.0623,3.0299,3.0357,3.0893,3.2064,3.3722,3.4154,3.5111,3.6169,3.5093,3.4959,3.5486,3.6292,3.6235,3.5827,3.6856,3.7184,3.7119,3.7043,3.6596,3.6104,3.6492,3.5983,3.5306,3.5828,3.5703,3.5419,3.533,3.5609,3.5687,3.4717,3.4736,3.483,3.4038,3.438,3.4946,3.521,3.5603,3.6103,3.6798,3.6305,3.5725,0.0,0.0,3.4071,0.0,3.2655,3.3001,3.3278,3.5233,3.6423,3.6091,3.7111,3.8349,3.9631,3.963,4.021,4.1682,4.2234,4.1911,4.0584,4.1283,4.1001,3.9669,3.9361,3.9245,3.9245,3.9341,4.0117,4.1446,4.1058,4.1756,4.3141,4.178,4.1468,4.1827,4.0809,4.0688,4.1167,4.1183,4.1259,4.1458,4.1803,4.1928,4.1804,3.3037,3.3032,3.3027,3.2683,3.2904,3.3316,3.3971,3.4865,3.596,3.7336,3.8144,3.8871,3.9534,4.0357,4.0833,4.0801,4.0353,3.979,3.9134,3.8544,3.8277,3.8373,3.8387,3.8748,3.9538,3.6734,3.526,3.526,3.3097,3.1618,3.0808,3.0875,3.0503,2.9746,2.9847,3.1298,3.3716,3.3838,3.5256,3.7399,3.6658,3.5979,3.5486,3.6245,3.6387,3.6205,3.6382,3.6676,3.6969,3.6754,3.6693,3.6693,3.6554,3.6492,3.6492,3.6492,3.66,3.6553,3.5933,3.5867,3.5814,3.5284,3.5026,3.5042,3.5482,3.5776,3.6232,3.7205,3.7259,3.7514,3.8952,3.7601,3.6348,0.0,0.0,0.0,3.143,3.2554,3.3261,3.2538,3.3155,3.4173,3.5548,3.5119,3.5704,3.7947,3.7652,3.7986,3.9468,4.0833,4.1078,4.0072,4.0798,4.0762,3.9853,3.9149,3.8805,3.8794,3.9373,4.0074,4.0905,4.045,4.115,4.2658,4.0821,4.0766,4.1917,4.0896,4.0779,4.1243,4.1227,4.1174,4.1169,4.1834,4.1646,4.1118,3.3157,3.3229,3.3346,3.3145,3.3187,3.3319,3.3477,3.5114,3.6629,3.7383,3.9089,4.0483,4.1214,4.1484,4.147,4.1039,4.0894,4.0687,4.0355,3.9313,3.945,4.1036,3.9216,3.883,4.0205,3.7519,3.6058,3.6011,3.3925,3.27,3.2305,3.1359,0.0,3.0422,2.9968,3.1228,3.369,3.3633,3.4795,3.6627,3.6045,3.5621,3.5438,3.5848,3.6004,3.6089,3.6857,3.7098,3.6969,3.6754,3.6693,3.6693,3.6554,3.6492,3.6492,3.6492,3.66,3.6693,3.669,3.6597,3.6381,3.589,3.563,3.5497,3.5512,3.604,3.6707,3.7452,3.8075,3.8325,3.7824,3.741,3.6674,3.5177,3.3778,3.2842,3.2682,3.2588,3.2691,3.3104,3.372,3.4096,3.4037,3.4824,3.5884,3.7124,3.7682,3.8605,4.0099,4.0612,4.0381,3.932,4.0522,4.0475,3.8965,3.8742,3.8644,3.8644,3.8614,3.9023,3.9816,3.9484,3.9893,4.0756,3.9615,3.9666,4.0463,3.9437,3.9629,4.0552,4.057,4.08,4.1117,4.1303,4.1411,4.1387,3.3508,3.3652,3.3964,3.3884,3.4435,3.4748,3.4376,3.5102,3.6206,3.7496,3.9049,4.0275,4.0992,4.1678,4.1869,4.1244,4.1273,4.1016,4.0283,4.0134,4.0484,4.1368,4.0544,4.049,4.1419,3.8999,3.7545,3.7143,3.4767,3.3129,3.2215,0.0,0.0,3.0154,2.9769,3.082,3.2928,3.3618,3.4927,3.646,3.6093,3.595,0.0,3.6019,3.6045,3.6074,3.6568,3.6793,3.6831,3.6662,3.6662,3.6693,3.6554,3.6492,3.6492,3.6492,3.66,3.6723,3.6831,3.68,3.6661,3.6486,3.6459,3.6507,3.6584,3.7048,3.7681,3.8473,3.8772,3.89,3.892,3.7791,3.6088,3.3772,3.2946,3.2576,3.2515,3.2474,3.2643,3.3064,3.3437,3.3421,3.2834,3.4146,3.5249,3.5727,3.6264,3.7056,3.8157,3.9236,3.932,3.8281,3.9654,3.9809,3.852,3.8448,3.8448,3.852,3.8205,3.8502,3.9308,3.8928,3.9223,3.9936,3.9007,3.8979,3.9627,3.8937,3.9201,4.0088,4.0302,4.0676,4.1083,4.0898,4.0899,4.0932,3.4038,3.4192,3.4617,3.4521,3.5778,3.6574,3.6015,3.5545,3.5971,3.7937,3.8939,3.9676,4.0254,4.1547,4.2092,4.1398,4.1392,4.0917,3.9674,4.0756,4.1162,4.0628,4.189,4.2571,4.2571,4.0531,3.9034,3.8164,3.5404,3.3149,0.0,0.0,0.0,2.9473,2.9496,3.0445,3.2128,3.3794,3.5292,3.6546,3.645,3.6416,3.6435,3.6514,3.6384,3.6146,3.6077,3.6333,3.6693,3.6554,3.6569,3.6662,3.6554,3.6492,3.6492,3.6492,3.66,3.6693,3.6693,3.6693,3.6754,3.6986,3.7265,3.7554,3.8026,3.8283,3.8723,3.9658,3.9356,3.9299,4.0567,3.8169,3.5243,3.2867,3.2778,3.2796,3.2245,3.2761,3.3157,3.306,3.314,0.0,3.2151,3.3389,3.4234,3.417,3.4374,3.4857,3.5671,3.7507,3.827,3.7642,3.8877,3.9266,3.8654,3.8511,3.8511,3.8626,3.8306,3.8536,3.9234,3.8817,3.898,3.9501,3.8668,3.8654,3.9235,3.8962,3.9282,3.9977,4.0396,4.0746,4.0966,4.0643,4.0232,3.9973,3.4643,3.4723,3.4732,3.4127,3.5224,3.6511,3.756,3.8605,3.9379,3.9676,4.0953,4.1851,4.1963,4.2061,4.1997,4.1569,4.0926,4.043,4.0158,4.0397,4.0706,4.1124,4.1993,4.2445,4.2445,4.0349,3.8827,3.7963,3.5246,3.3074,0.0,3.0917,3.0211,2.9328,2.945,3.0871,3.3252,3.4016,3.5138,3.6435,3.6421,3.6074,3.5751,3.6877,3.6735,3.6046,3.6609,3.6753,3.6693,3.6554,3.6523,3.6523,3.6523,3.6492,3.6492,3.6492,3.66,3.6693,3.6693,3.6631,3.6692,3.7279,3.7238,3.7392,3.8571,3.8531,3.8647,3.9937,3.9884,3.953,3.9172,3.7452,3.5653,3.4306,3.4636,3.5068,3.5075,3.5182,3.5038,3.4446,3.4894,3.4552,3.2688,3.3391,3.3824,3.3502,3.4096,3.5349,3.7271,3.7288,3.7849,3.9255,3.994,4.0194,3.9965,3.9768,3.9708,3.9708,3.9556,3.9451,3.9437,3.936,3.8968,3.8325,3.8293,3.8592,3.9043,3.8979,3.9629,4.0628,4.0718,4.0696,4.0608,4.0539,3.9687,3.8826,3.6511,3.612,3.576,3.6082,3.7056,3.8149,3.9156,4.054,4.1216,4.0399,4.0944,4.1249,4.0786,4.1414,4.1575,4.0974,4.0972,4.0988,4.0988,4.1297,4.1491,4.1473,4.212,4.2299,4.1834,4.082,3.9461,3.7786,3.5849,3.386,0.0,3.0959,3.0312,2.9893,3.0376,3.1445,3.2964,3.4049,3.5086,3.5998,3.5998,3.5558,3.4995,3.5893,3.5893,3.5457,3.6114,3.649,3.6662,3.643,3.6414,3.6492,3.6383,3.6414,3.6492,3.6492,3.6554,3.66,3.6693,3.6785,3.6981,3.7383,3.7785,3.822,3.8857,3.9146,3.9467,4.0174,4.0312,3.9918,3.857,3.7123,3.5828,3.4864,3.4826,3.5047,3.5383,3.5546,3.5474,3.5206,3.5072,3.4569,3.3402,3.3226,3.3132,3.2958,3.3105,3.4129,3.6231,3.6212,3.6832,3.8423,3.9337,3.9785,3.9712,3.9839,3.9923,4.0015,3.9752,3.9407,3.8997,3.922,3.8623,3.7498,3.7888,3.7951,3.7841,3.8491,3.9493,4.0627,4.0627,4.0593,4.0489,4.0436,3.9738,3.8965,3.8153,3.7485,3.7064,3.8072,3.9062,3.9852,4.0266,4.1619,4.2133,4.0885,4.0823,4.0615,3.9798,4.0893,4.1459,4.0849,4.1247,4.1535,4.1596,4.2099,4.2148,4.1628,4.2245,4.225,4.1482,4.1368,4.0201,3.7862,3.649,3.468,3.2532,3.1085,3.0458,3.0609,3.1405,3.2215,3.3035,3.4457,3.5474,3.6172,3.6315,3.5909,3.5215,3.5593,3.5529,3.535,3.5746,3.6337,3.6816,3.6519,3.6566,3.6676,3.6488,3.6658,3.6923,3.6923,3.6876,3.6876,3.6986,3.7149,3.7367,3.7698,3.8306,3.8901,3.9037,3.9545,4.0024,4.0211,4.0382,3.9975,3.8214,3.7124,3.6199,3.5326,3.5012,3.5061,3.554,3.5691,3.5774,3.5756,3.5062,3.4419,3.4034,3.3134,3.2652,3.2745,3.2434,3.3015,3.486,3.516,3.5951,3.7446,3.8521,3.9173,3.9363,3.9908,4.0134,4.0068,3.9803,3.9314,3.8683,3.8968,3.8419,3.7249,3.781,3.7809,3.7405,3.8123,3.9131,4.0255,4.0136,4.0102,4.0102,3.9943,3.9538,3.9074,3.8205,3.821,3.8246,3.8347,3.9509,4.0415,4.048,4.168,4.2311,4.1596,4.1911,4.2008,4.1452,4.177,4.2141,4.2377,4.1734,4.1412,4.1581,4.1661,4.1677,4.1596,4.2245,4.2412,4.2046,4.161,4.0412,3.8412,3.666,3.4973,3.3334,3.1356,3.0664,3.116,3.1905,3.3314,3.5142,3.59,3.6886,3.801,3.8685,3.8451,3.7685,3.7717,3.7235,3.6538,3.66,3.694,3.74,3.7177,3.7256,3.7368,3.7177,3.7671,3.8323,3.8323,3.8177,3.8047,3.8063,3.7843,3.7786,3.8424,3.8527,3.8627,3.9221,3.9113,3.9078,3.9874,3.9807,3.9185,3.7721,3.7511,3.7219,3.6227,3.6463,3.6884,3.7245,3.7125,3.6859,3.6377,3.5823,3.5165,3.4338,3.3268,3.2784,3.3203,3.3033,3.3466,3.4739,3.4908,3.5911,3.8032,3.8528,3.9111,3.9903,4.0944,4.105,4.0258,4.0225,3.9864,3.9235,3.9155,3.8669,3.7935,3.8653,3.9179,3.9418,3.8461,3.8586,3.936,3.9001,3.8862,3.8862,3.8637,3.8417,3.8121,3.9596,3.943,3.9528,4.0215,4.0521,4.0924,4.1646,4.223,4.2344,4.1693,4.2134,4.225,4.1555,4.1686,4.1816,4.1863,4.1651,4.1682,4.218,4.2213,4.1957,4.1428,4.2089,4.2125,4.1358,4.1566,4.0896,3.9294,3.7642,3.6098,3.4722,3.3042,3.238,3.2647,3.3694,3.4632,3.5473,3.6666,3.7162,3.7156,3.744,3.6991,3.6205,3.6955,3.694,3.6677,3.7495,3.7909,3.8075,3.7912,3.7977,3.8043,3.7781,3.7981,3.8328,3.8328,3.818,3.8047,3.818,3.825,3.837,3.8626,3.8847,3.908,3.9349,3.9358,3.94,3.9743,3.9538,3.9066,3.8212,3.7526,3.6956,3.646,3.6363,3.6546,3.7118,3.7135,3.7025,3.6892,3.5941,3.518,3.4936,3.3503,3.2666,3.2815,3.2479,3.2778,3.3958,3.45,3.538,3.6701,3.8277,3.9266,3.9706,4.0762,4.1113,4.0781,4.0781,4.0372,3.9572,3.9133,3.8212,3.697,3.7439,3.7752,3.7885,3.7328,3.753,3.8201,3.803,3.8202,3.8497,3.8271,3.818,3.8083,4.0951,4.074,4.086,4.1876,4.1697,4.1713,4.2596,4.2728,4.2518,4.2091,4.2419,4.2344,4.1463,4.1621,4.1703,4.1594,4.1703,4.1944,4.2428,4.2429,4.2171,4.1578,4.2044,4.1933,4.1135,4.166,4.1342,4.0055,3.8803,3.7612,3.6504,3.5284,3.4605,3.4408,3.553,3.6077,3.6301,3.7413,3.7577,3.7115,3.71,3.6637,3.604,3.6894,3.7171,3.7215,3.8089,3.8565,3.8767,3.8565,3.8754,3.8944,3.8525,3.8586,3.8809,3.8877,3.8674,3.847,3.8674,3.8834,3.8933,3.8933,3.9208,3.9481,3.9409,3.9553,3.9681,3.9681,3.9419,3.9103,3.8778,3.791,3.7172,3.6877,3.6584,3.652,3.6983,3.6953,3.6906,3.6957,3.5902,3.5191,3.5319,3.3964,3.3057,3.2986,3.2879,3.308,3.3704,3.4526,3.5281,3.5967,3.7925,3.9015,3.9125,4.0454,4.094,4.0637,4.0637,4.0163,3.93,3.8789,3.7996,3.705,3.67,3.6857,3.7325,3.6405,3.647,3.7135,3.7207,3.7496,3.7892,3.7929,3.7978,3.8025,4.1933,4.2094,4.2307,4.2965,4.2959,4.2929,4.3082,4.2976,4.2945,4.3066,4.2976,4.2499,4.1414,4.1773,4.2093,4.2093,4.2093,4.2093,4.2109,4.2109,4.2109,4.2093,4.2109,4.2029,4.1898,4.2029,4.1613,4.0593,4.0039,3.9387,3.8656,3.7957,3.72,3.6393,3.7133,3.7722,3.8183,3.8246,3.8466,3.8769,3.877,3.8625,3.8462,3.8477,3.8492,3.8444,3.8279,3.8757,3.9441,3.9097,3.9558,4.0174,3.9501,3.9746,4.0316,4.0439,4.0091,3.9737,3.993,3.9696,3.9373,3.9373,3.9553,3.9646,3.946,3.9553,3.9681,3.9681,3.9419,3.9207,3.9191,3.879,3.8294,3.7776,3.7572,3.742,3.7228,3.6922,3.6628,3.6429,3.5745,3.5303,3.5379,3.4703,3.4238,3.4073,3.4809,3.4984,3.432,3.5106,3.5836,3.639,3.7568,3.8215,3.8215,4.0138,4.0557,3.9539,3.9539,3.9051,3.8193,3.801,3.8363,3.9066,3.6989,3.7184,3.8747,3.6034,3.5452,3.6257,3.6525,3.6614,3.6702,3.7295,3.7665,3.7742,4.2736,4.3286,4.361,4.3192,4.36,4.375,4.3057,4.293,4.2868,4.2774,4.2728,4.2553,4.2091,4.2268,4.2429,4.2429,4.2429,4.2429,4.2429,4.2349,4.2238,4.2109,4.2012,4.1882,4.1703,4.172,4.1657,4.1483,4.0198,3.9279,3.8672,3.7644,3.7411,3.7814,3.7351,3.7246,3.7372,3.7388,3.7732,3.8199,3.7607,3.759,3.799,3.8356,3.8231,3.7967,3.9183,3.9486,3.9333,3.958,3.9864,4.0071,3.9858,3.9813,3.991,3.993,3.9732,3.9553,3.9732,3.9589,3.9388,3.9388,3.946,3.9496,3.9409,3.9553,3.9732,3.9889,3.9919,3.9768,3.9173,3.9152,3.8936,3.8179,3.772,3.751,3.753,3.6987,3.6554,3.6611,3.5987,3.5582,3.5582,3.5345,3.4885,3.4136,3.4716,3.4622,3.3549,3.5177,3.6156,3.6171,3.7779,3.8773,3.9075,3.9606,3.9637,3.9154,3.8711,3.8324,3.8105,3.8933,3.8929,3.813,3.7099,3.7055,3.7629,3.5452,3.5083,3.5854,3.5799,3.5959,3.628,3.6932,3.7382,3.7644,4.4101,4.4589,4.4785,4.4231,4.4574,4.4578,4.367,4.3431,4.3255,4.2837,4.3002,4.3005,4.2635,4.2845,4.283,4.2382,4.2334,4.2334,4.2334,4.219,4.2093,4.2045,4.1882,4.1736,4.1588,4.1522,4.1571,4.1686,4.0606,3.9786,3.9219,3.8451,3.8185,3.8292,3.7653,3.7343,3.725,3.725,3.7468,3.7762,3.7156,3.6985,3.72,3.7732,3.7667,3.7499,3.8827,3.9253,3.9146,3.936,3.9758,4.0222,3.9894,3.9805,3.9869,3.9807,3.9625,3.9424,3.9553,3.9481,3.9388,3.9301,3.9409,3.9517,3.9517,3.9625,3.9732,3.9854,4.0066,4.0015,3.9499,3.9547,3.944,3.8702,3.8129,3.7752,3.7714,3.7001,3.6492,3.6428,3.5994,3.5731,3.5895,3.5739,3.5496,3.5196,3.5477,3.5272,3.4498,3.543,3.6185,3.6611,3.7979,3.8895,3.9321,3.9547,3.9566,3.9378,3.8884,3.8599,3.854,3.9335,3.9174,3.8292,3.7227,3.6901,3.6951,3.5142,3.4714,3.5239,3.5532,3.5775,3.6115,3.6897,3.7334,3.7457,4.5715,4.5798,4.5831,4.5732,4.5689,4.5413,4.4591,4.4335,4.3932,4.3164,4.3563,4.3681,4.3015,4.3329,4.317,4.2058,4.1963,4.1931,4.1898,4.1736,4.1703,4.1898,4.1703,4.1588,4.1588,4.139,4.1258,4.1227,4.1057,4.0663,4.0025,3.993,3.9213,3.7982,3.7935,3.7794,3.7606,3.7606,3.7573,3.746,3.7316,3.6853,3.6425,3.6951,3.7114,3.7127,3.7654,3.8307,3.8895,3.8592,3.9382,4.0437,3.97,3.9682,3.9943,3.9949,3.9676,3.9337,3.9292,3.9313,3.9277,3.9066,3.9364,3.9681,3.9681,3.9681,3.9681,3.9681,3.9854,3.9996,3.996,3.996,3.9803,3.9261,3.8608,3.8067,3.7728,3.7001,3.6369,3.602,3.5852,3.5898,3.618,3.5957,3.6116,3.686,3.6753,3.6677,3.6646,3.5833,3.5994,3.743,3.8108,3.8634,3.8975,3.9745,4.0034,3.9824,3.9677,3.9514,3.9313,3.9199,3.9228,3.9313,3.7464,3.6799,3.6856,3.5166,3.4501,3.4661,3.5624,3.5993,3.6143,3.7205,3.7457,3.7264,4.4953,4.5864,4.6278,4.5152,4.5866,4.6085,4.4501,4.4225,4.3838,4.284,4.2842,4.3022,4.3251,4.2928,4.2687,4.2663,4.2445,4.2238,4.2061,4.1915,4.1866,4.1898,4.1703,4.1522,4.139,4.1323,4.1006,4.0372,4.0042,3.9701,3.934,3.8345,3.7881,3.7825,3.7141,3.6816,3.6785,3.6785,3.7062,3.7507,3.746,3.7643,3.7995,3.8488,3.836,3.8037,3.8897,3.8933,3.8617,3.9005,3.9184,3.935,3.981,3.9224,3.8529,3.916,3.9141,3.884,3.8381,3.8341,3.8398,3.8398,3.8964,3.9517,3.9646,3.9681,3.9681,3.9681,3.9854,3.9905,3.9604,3.9783,3.9733,3.8946,3.8454,3.8002,3.7393,3.6923,3.6631,3.6522,3.6628,3.6628,3.6445,3.6688,3.6622,3.604,3.6293,3.6366,3.6113,3.5874,3.6301,3.7446,3.7742,3.8177,3.8771,3.8611,3.836,3.8037,3.8652,3.8823,3.8646,3.9098,3.9337,3.9343,3.813,3.776,3.7923,3.5961,3.5534,3.605,3.5849,3.5974,3.639,3.7096,3.7226,3.7031,4.6227,4.6841,4.7156,4.6344,4.6874,4.6927,4.5533,4.4978,4.4345,4.3391,4.3443,4.3541,4.3427,4.3395,4.3377,4.3411,4.2635,4.2141,4.2012,4.185,4.1752,4.1752,4.167,4.1456,4.1205,4.1221,4.0743,3.984,3.93,3.8912,3.8671,3.809,3.7705,3.7493,3.7029,3.6643,3.6367,3.6626,3.6762,3.6869,3.7384,3.7641,3.773,3.8201,3.8345,3.8311,3.8577,3.8732,3.8865,3.8838,3.906,3.9402,3.9476,3.9114,3.8583,3.8443,3.8406,3.8369,3.8201,3.8147,3.8124,3.8266,3.8773,3.9337,3.9517,3.9696,3.9768,3.9589,3.9783,3.9889,3.9445,3.9568,3.9521,3.8927,3.8144,3.7567,3.7459,3.6739,3.6367,3.6646,3.68,3.68,3.66,3.6754,3.6691,3.6197,3.6332,3.6362,3.6196,3.646,3.6986,3.7778,3.7533,3.8012,3.9294,3.9031,3.8663,3.814,3.8837,3.8998,3.8713,3.9101,3.9228,3.906,3.8148,3.7853,3.7893,3.6326,3.5925,3.6309,3.6112,3.6182,3.6453,3.6947,3.7109,3.6993,4.7868,4.7918,4.8,4.7852,4.7934,4.7704,4.6814,4.5994,4.5129,4.4283,4.4561,4.4479,4.3669,4.4022,4.4226,4.4031,4.2676,4.1928,4.2102,4.1953,4.1871,4.1838,4.1743,4.1529,4.119,4.1062,4.0489,3.949,3.8839,3.8435,3.8213,3.8328,3.7988,3.7292,3.7292,3.6972,3.6484,3.6843,3.6734,3.6368,3.7355,3.7436,3.7056,3.7567,3.8048,3.8446,3.8018,3.8516,3.9288,3.8614,3.9091,3.9831,3.9106,3.9046,3.8975,3.8084,3.7835,3.7863,3.8106,3.812,3.8074,3.8202,3.8573,3.9022,3.9322,3.96,3.9697,3.943,3.9676,3.9818,3.946,3.9388,3.9247,3.8739,3.7743,3.7136,3.7341,3.6491,3.6073,3.6677,3.6754,3.6723,3.6662,3.6585,3.6554,3.6631,3.6677,3.6677,3.6645,3.7324,3.7921,3.8369,3.7623,3.8089,3.9864,3.995,3.9722,3.9176,3.9531,3.9502,3.9177,3.9104,3.8943,3.8752,3.8055,3.7689,3.7521,3.6555,3.6144,3.6093,3.6244,3.6363,3.6467,3.6796,3.6915,3.6915,4.7105,4.7651,4.7948,4.7205,4.7587,4.7704,4.6814,4.6438,4.593,4.5033,4.4854,4.4673,4.4345,4.3762,4.3564,4.3949,4.256,4.2061,4.3107,4.3151,4.3031,4.2856,4.231,4.1928,4.1701,4.0867,4.0113,3.949,3.8941,3.8523,3.8213,3.7928,3.7815,3.7795,3.7795,3.7734,3.7613,3.7188,3.7215,3.764,3.7883,3.8145,3.8461,3.9088,3.9191,3.9073,3.9695,3.9721,3.9509,3.9728,3.9585,3.9366,3.9402,3.8587,3.7804,3.8676,3.8219,3.7274,3.6772,3.7142,3.7649,3.7456,3.7833,3.8472,3.9218,3.9011,3.8792,3.9305,3.946,3.9445,3.9424,3.9388,3.8876,3.7315,3.7449,3.7316,3.603,3.6245,3.6646,3.6923,3.6938,3.6847,3.6554,3.66,3.6554,3.6305,3.7062,3.7465,3.7338,3.8129,3.8809,3.9272,3.8642,3.8604,3.9341,3.9762,3.995,3.9844,3.9758,3.9661,3.9574,3.909,3.8819,3.8782,3.8473,3.8047,3.747,3.7019,3.6718,3.6473,3.6051,3.6186,3.6621,3.6508,3.6589,3.6707,4.752,4.7834,4.7982,4.7554,4.7769,4.7852,4.7456,4.6832,4.6241,4.5701,4.5387,4.5119,4.4797,4.4407,4.44,4.4922,4.3845,4.3462,4.4319,4.3525,4.2827,4.2427,4.265,4.2509,4.1821,4.0808,4.0143,3.9872,3.9284,3.8994,3.8985,3.8603,3.8387,3.8337,3.8219,3.7974,3.7594,3.7105,3.7033,3.7331,3.7739,3.8033,3.829,3.8945,3.9312,3.9476,3.9528,3.9823,4.0141,3.9864,3.9595,3.9381,3.9343,3.8626,3.7839,3.8101,3.7999,3.7578,3.6684,3.7172,3.7879,3.7594,3.8011,3.861,3.9118,3.9155,3.9058,3.8871,3.9227,3.9517,3.9409,3.9388,3.9026,3.7959,3.7537,3.7162,3.666,3.6631,3.6832,3.7219,3.7591,3.7712,3.7425,3.7457,3.7442,3.7281,3.7701,3.7885,3.7737,3.8476,3.8962,3.9067,3.9333,3.9164,3.8549,3.9395,3.9672,3.9309,3.9337,3.9394,3.9358,3.876,3.8538,3.8612,3.8217,3.7893,3.7692,3.7191,3.694,3.6773,3.6314,3.6274,3.6524,3.6445,3.6484,3.6524,4.8,4.8033,4.8033,4.7919,4.7935,4.7935,4.7869,4.7161,4.6535,4.6386,4.5903,4.5466,4.5173,4.4925,4.4976,4.5491,4.4712,4.4351,4.4812,4.3666,4.2801,4.2412,4.2983,4.2738,4.1465,4.0913,4.0553,4.04,3.9747,3.9587,3.9902,3.9259,3.8908,3.8787,3.8581,3.8191,3.7714,3.7216,3.7125,3.7302,3.7605,3.784,3.7995,3.8495,3.8972,3.9331,3.9076,3.9553,4.0285,3.9817,3.956,3.9405,3.9189,3.8687,3.8115,3.7651,3.7839,3.7993,3.7033,3.7368,3.7943,3.7848,3.8207,3.8723,3.9268,3.9514,3.9484,3.8931,3.9247,3.9589,3.9373,3.9373,3.9191,3.8577,3.7873,3.739,3.7425,3.72,3.7233,3.7677,3.8152,3.8394,3.8279,3.8279,3.8262,3.8162,3.8333,3.8342,3.8088,3.8823,3.9167,3.9013,3.9757,3.9599,3.8493,3.934,3.9476,3.8928,3.9083,3.9104,3.9017,3.8464,3.824,3.8254,3.7801,3.7663,3.7739,3.7264,3.7017,3.69,3.6549,3.6365,3.6325,3.6272,3.6272,3.6325,4.7901,4.8115,4.8098,4.777,4.7704,4.7688,4.7571,4.732,4.7135,4.7135,4.6227,4.5584,4.555,4.4667,4.4246,4.4733,4.3973,4.3544,4.3713,4.3716,4.3843,4.4098,4.3442,4.2199,4.0454,4.1204,4.1375,4.0921,4.0336,4.0262,4.0586,3.9385,3.8906,3.9066,3.887,3.873,3.8642,3.8001,3.8089,3.859,3.7813,3.7887,3.842,3.83,3.8171,3.8149,3.9104,3.9275,3.9141,3.9818,3.9693,3.9189,3.8914,3.8558,3.8188,3.8144,3.8173,3.8057,3.7404,3.7302,3.7434,3.7811,3.7948,3.8375,3.9942,3.9858,3.9538,3.9891,3.9689,3.9373,3.9141,3.9265,3.9026,3.7959,3.8372,3.8466,3.7369,3.7724,3.819,3.8398,3.8297,3.8279,3.8475,3.8475,3.8343,3.8041,3.8708,3.8975,3.8661,3.945,3.9935,3.9884,3.9809,3.9793,3.9859,3.993,3.9859,3.9606,3.9466,3.9177,3.8819,3.8389,3.8014,3.7649,3.7625,3.7495,3.7341,3.7303,3.707,3.6719,3.647,3.6286,3.6072,3.5844,3.5898,3.6072,4.7803,4.7836,4.7803,4.7621,4.7571,4.7537,4.7335,4.6876,4.6398,4.6074,4.5661,4.5328,4.5069,4.4997,4.4989,4.5184,4.4549,4.4171,4.4209,4.4051,4.3861,4.3708,4.2713,4.1728,4.0756,4.0958,4.0947,4.0618,4.0419,4.0219,4.0122,3.9069,3.8664,3.8701,3.8375,3.8225,3.8211,3.7829,3.7835,3.8037,3.7717,3.7699,3.7915,3.7839,3.7763,3.7768,3.8189,3.8496,3.881,3.9506,3.9344,3.8859,3.9154,3.8581,3.7839,3.7991,3.7915,3.7834,3.7717,3.7757,3.7891,3.8039,3.8494,3.9046,3.9696,3.9735,3.961,3.9505,3.9356,3.9177,3.9104,3.885,3.8624,3.859,3.8237,3.8054,3.8133,3.8447,3.8667,3.8633,3.8914,3.9172,3.9241,3.9241,3.9187,3.9048,3.9344,3.941,3.9142,3.9454,3.964,3.964,3.9445,3.9466,3.9803,3.9711,3.9532,3.9322,3.9126,3.887,3.859,3.8066,3.7877,3.7938,3.7457,3.7341,3.7471,3.7084,3.685,3.6693,3.647,3.6286,3.6086,3.5992,3.5898,3.5858,4.7655,4.7704,4.7654,4.7436,4.7206,4.6992,4.6791,4.6088,4.5466,4.5094,4.4957,4.483,4.4721,4.498,4.5191,4.53,4.4889,4.4549,4.4435,4.3775,4.3212,4.281,4.1949,4.1152,4.0441,4.0634,4.0517,4.0137,4.0055,3.9882,3.958,3.8672,3.8254,3.8277,3.7976,3.7825,3.7787,3.761,3.7495,3.7495,3.738,3.7341,3.738,3.7278,3.7317,3.738,3.7341,3.765,3.8197,3.8769,3.8777,3.8546,3.8974,3.835,3.7534,3.7739,3.7663,3.7577,3.7983,3.8073,3.8052,3.8165,3.8847,3.9578,3.985,3.9994,4.0073,3.9845,3.9373,3.9054,3.9188,3.8773,3.8438,3.869,3.832,3.8157,3.8482,3.8917,3.9173,3.9038,3.941,3.9732,3.9803,3.9803,3.9768,3.9681,3.9681,3.9625,3.9424,3.9337,3.9301,3.9301,3.9104,3.9126,3.9415,3.9286,3.9104,3.8922,3.8723,3.8464,3.8217,3.7725,3.761,3.7787,3.725,3.7148,3.738,3.6968,3.6707,3.6603,3.6524,3.6272,3.5992,3.6072,3.5938,3.571,4.7408,4.7688,4.7571,4.7235,4.6564,4.6025,4.5841,4.5057,4.4522,4.4506,4.4203,4.4185,4.4638,4.4539,4.4533,4.4887,4.4723,4.4419,4.4011,4.2809,4.1942,4.1686,4.1293,4.0471,3.9134,4.0193,4.0356,3.9466,3.9299,3.917,3.9155,3.8088,3.7711,3.7886,3.7687,3.7586,3.7586,3.738,3.7303,3.7264,3.6861,3.6822,3.6954,3.6549,3.6654,3.6978,3.6783,3.6822,3.7077,3.7695,3.8025,3.8184,3.8184,3.7799,3.7341,3.7534,3.7457,3.7469,3.825,3.8043,3.7687,3.8104,3.8847,3.9733,4.0571,4.0811,4.091,4.1305,4.0,3.8966,3.944,3.9127,3.859,3.8022,3.8739,3.9113,3.8314,3.9062,3.9696,3.9696,3.9681,3.9768,3.996,3.9996,3.9925,3.9717,3.9681,3.9625,3.9424,3.9177,3.9104,3.9104,3.8907,3.8782,3.8782,3.8782,3.8686,3.8478,3.8277,3.7976,3.7586,3.738,3.7173,3.6978,3.6978,3.6978,3.6978,3.6978,3.6772,3.6445,3.6642,3.6298,3.5723,3.5992,3.5938,3.571,4.593,4.6241,4.6354,4.565,4.573,4.5857,4.5671,4.5425,4.516,4.4904,4.475,4.4671,4.4508,4.4638,4.4791,4.4896,4.3891,4.2901,4.2013,4.1065,4.0324,3.9935,4.0117,3.9733,3.8716,3.9008,3.8847,3.8165,3.7818,3.7526,3.7225,3.6888,3.6727,3.6665,3.6849,3.6903,3.6747,3.6707,3.6668,3.6654,3.6324,3.623,3.627,3.6005,3.6085,3.627,3.623,3.6363,3.6672,3.7283,3.7599,3.7812,3.7946,3.7859,3.7659,3.7469,3.7264,3.719,3.7568,3.7522,3.7557,3.8231,3.9053,3.9783,4.005,4.056,4.1058,4.1343,4.0617,3.9888,3.973,3.9202,3.8811,3.8743,3.8506,3.8468,3.8792,3.9094,3.9286,3.9286,3.9409,3.9517,3.9568,3.9445,3.9409,3.9481,3.9358,3.9177,3.898,3.8775,3.8723,3.8907,3.8412,3.83,3.859,3.8723,3.8686,3.8478,3.8025,3.7707,3.7558,3.7092,3.693,3.6978,3.6978,3.69,3.6783,3.6772,3.6628,3.6405,3.6484,3.6272,3.5992,3.6072,3.5938,3.5669,4.5244,4.5473,4.5521,4.4901,4.5061,4.5269,4.5184,4.5064,4.4859,4.4532,4.4665,4.4559,4.4091,4.4493,4.4577,4.4074,4.275,4.1611,4.0801,3.9938,3.9252,3.8865,3.8813,3.8571,3.8028,3.8028,3.7763,3.7226,3.6982,3.6594,3.6027,3.6027,3.5875,3.5606,3.5917,3.6038,3.5978,3.5978,3.5978,3.5978,3.5723,3.5642,3.5642,3.5521,3.5602,3.575,3.5669,3.5967,3.6442,3.688,3.74,3.7907,3.8281,3.7975,3.7461,3.7352,3.7032,3.6909,3.7583,3.7659,3.7735,3.845,3.917,3.9696,3.9696,4.036,4.1097,4.1465,4.0673,3.9906,3.9914,3.9191,3.8524,3.8399,3.8325,3.8317,3.8486,3.892,3.9141,3.898,3.9141,3.9265,3.9265,3.9104,3.9135,3.9527,3.9669,3.969,3.9563,3.9352,3.9042,3.8604,3.8179,3.7783,3.744,3.7572,3.7856,3.8352,3.7615,3.7385,3.7558,3.6717,3.657,3.6993,3.6915,3.6811,3.6693,3.6707,3.6524,3.6286,3.6365,3.6192,3.5938,3.6072,3.5858,3.5562,4.4948,4.5016,4.4887,4.4642,4.4541,4.4506,4.4506,4.4283,4.404,4.3861,4.4157,4.4159,4.3648,4.4081,4.3968,4.2787,4.1439,4.047,3.9987,3.9188,3.856,3.8181,3.7537,3.7173,3.7148,3.7173,3.7017,3.6626,3.657,3.6147,3.5375,3.5413,3.5153,3.4708,3.4986,3.5168,3.5318,3.5318,3.5318,3.5277,3.5072,3.499,3.499,3.499,3.5113,3.529,3.5139,3.5595,3.6298,3.6603,3.7385,3.8338,3.889,3.8157,3.7113,3.7235,3.6902,3.6749,3.8032,3.8125,3.802,3.8707,3.9132,3.9427,3.9424,4.0072,4.0826,4.1414,4.0282,3.9397,3.9969,3.9073,3.8086,3.7528,3.8172,3.8517,3.7762,3.8639,3.9192,3.8833,3.8943,3.9068,3.9068,3.8951,3.9165,3.9791,4.0356,4.068,4.0641,4.0412,3.9702,3.8414,3.8028,3.725,3.6012,3.5904,3.6566,3.7991,3.7055,3.6925,3.7448,3.636,3.6238,3.6954,3.6786,3.6682,3.6642,3.6682,3.6445,3.6126,3.6286,3.6098,3.5723,3.5938,3.5791,3.5399,4.3311,4.3621,4.3799,4.3201,4.3864,4.4506,4.4506,4.4667,4.4878,4.5059,4.4559,4.4163,4.4105,4.3526,4.2954,4.2481,4.0678,3.9146,3.8208,3.7857,3.7462,3.7071,3.6721,3.6362,3.6031,3.6362,3.6322,3.5911,3.5447,3.4936,3.4406,3.4631,3.4472,3.4033,3.4794,3.4911,3.4647,3.4758,3.4771,3.4605,3.441,3.4327,3.4285,3.4063,3.4147,3.4421,3.4793,3.5296,3.5929,3.7263,3.8011,3.8419,3.8714,3.8706,3.842,3.7305,3.7029,3.711,3.7222,3.7331,3.7604,3.8379,3.8656,3.8694,3.8578,3.9173,3.986,4.015,3.9808,3.9445,3.959,3.9275,3.8882,3.8509,3.8539,3.8494,3.834,3.8539,3.8664,3.859,3.8723,3.887,3.887,3.9306,3.9692,4.0013,4.0305,4.0393,4.0222,3.96,3.916,3.9,3.7524,3.6958,3.7451,3.665,3.6294,3.63,3.6033,3.618,3.6656,3.6377,3.6354,3.6549,3.6628,3.6524,3.6246,3.6405,3.6325,3.6086,3.6166,3.5978,3.5669,3.5602,3.548,3.5358,4.284,4.291,4.3057,4.2976,4.3683,4.4331,4.4567,4.4957,4.5184,4.5089,4.4344,4.3732,4.3418,4.2628,4.1743,4.0941,3.9209,3.79,3.7356,3.69,3.6547,3.623,3.5897,3.5575,3.5209,3.5237,3.5237,3.5209,3.4793,3.4338,3.3818,3.3952,3.371,3.3181,3.3779,3.3846,3.3598,3.3797,3.3882,3.3894,3.3683,3.3641,3.3738,3.3471,3.3513,3.3858,3.4379,3.5279,3.6459,3.7594,3.8212,3.8536,3.8729,3.8423,3.7896,3.7355,3.6893,3.6592,3.6866,3.7194,3.7547,3.7962,3.8154,3.8276,3.8519,3.9001,3.9389,3.951,3.9267,3.9057,3.9078,3.8736,3.8395,3.826,3.8277,3.8329,3.8231,3.8478,3.8575,3.8366,3.8538,3.8692,3.8798,3.9578,4.0174,4.0419,4.0778,4.0978,4.0856,4.0366,3.9671,3.8806,3.7823,3.7082,3.6627,3.6099,3.5506,3.4921,3.5364,3.5833,3.6255,3.5733,3.5844,3.6405,3.6405,3.6286,3.6126,3.6206,3.6112,3.5898,3.5898,3.5764,3.5521,3.513,3.4861,3.4659,4.2839,4.2668,4.2687,4.3201,4.3655,4.4098,4.4536,4.484,4.4855,4.4387,4.3598,4.2855,4.2269,4.1456,4.0391,3.8967,3.7664,3.6915,3.6797,3.627,3.5831,3.5602,3.5195,3.4867,3.4634,3.4189,3.4118,3.4551,3.4314,3.3942,3.3364,3.3467,3.3136,3.2517,3.2802,3.2789,3.2581,3.2828,3.3,3.3142,3.2971,3.2989,3.3142,3.3014,3.3095,3.3356,3.3953,3.5322,3.6994,3.7554,3.8089,3.8498,3.8697,3.7905,3.6994,3.7257,3.6574,3.59,3.662,3.7112,3.7437,3.7629,3.7735,3.7926,3.8499,3.8704,3.8795,3.8875,3.853,3.8279,3.8396,3.7929,3.7495,3.7586,3.7877,3.8028,3.7853,3.8277,3.8449,3.8127,3.824,3.8507,3.8884,3.9721,4.0437,4.0869,4.1387,4.166,4.166,4.1293,4.0271,3.8558,3.8164,3.7208,3.555,3.54,3.4929,3.4228,3.5091,3.5643,3.5859,3.5187,3.5424,3.6405,3.6206,3.6086,3.6086,3.6086,3.5992,3.5764,3.5764,3.5642,3.5386,3.4808,3.4366,3.4082,4.2574,4.28,4.3068,4.2998,4.34,4.3838,4.4142,4.363,4.3262,4.3236,4.1977,4.1136,4.1284,4.0046,3.8697,3.7395,3.6945,3.6496,3.5911,3.579,3.5562,3.5195,3.4729,3.4481,3.4439,3.3654,3.3441,3.3839,3.3641,3.3275,3.2827,3.3302,3.3102,3.2432,3.3108,3.2896,3.212,3.2382,3.2382,3.2201,3.2422,3.237,3.2257,3.2658,3.2853,3.2971,3.3736,3.5085,3.6539,3.7036,3.7572,3.7998,3.8031,3.7841,3.747,3.6804,3.6308,3.597,3.6092,3.6315,3.6686,3.7647,3.7634,3.7398,3.7481,3.7268,3.7156,3.7494,3.7111,3.6898,3.7599,3.7398,3.7187,3.7534,3.7663,3.7649,3.7649,3.7725,3.7725,3.7687,3.7701,3.8159,3.9279,3.9545,4.0103,4.1223,4.1381,4.1438,4.1438,4.038,3.9624,3.9327,3.7589,3.6764,3.7009,3.6157,3.5673,3.5551,3.5454,3.5298,3.5083,3.6011,3.6397,3.6405,3.6206,3.6086,3.6086,3.6086,3.6086,3.6032,3.6032,3.5898,3.5629,3.5196,3.4884,3.4729,4.3409,4.3097,4.2942,4.3134,4.2893,4.2751,4.304,4.2719,4.2334,4.2115,4.1003,4.0136,4.0068,3.8707,3.7561,3.6889,3.6403,3.6018,3.571,3.5263,3.4895,3.4743,3.4458,3.4101,3.3666,3.3456,3.3065,3.2556,3.2754,3.2785,3.2742,3.2987,3.2942,3.2641,3.2705,3.249,3.2025,3.1737,3.1705,3.1829,3.1786,3.1891,3.2097,3.2317,3.2669,3.3155,3.4117,3.5179,3.6203,3.6593,3.6956,3.7281,3.7585,3.7111,3.6418,3.6275,3.5739,3.5112,3.5237,3.5528,3.5925,3.6525,3.6525,3.6455,3.6563,3.6371,3.6258,3.6693,3.6589,3.6621,3.7298,3.7288,3.7249,3.7408,3.7913,3.817,3.783,3.7969,3.7972,3.7615,3.7495,3.7735,3.855,3.8906,3.9445,4.0294,4.0619,4.0703,4.0505,3.9829,3.9208,3.8609,3.7724,3.7219,3.7148,3.6598,3.6136,3.5788,3.6006,3.5723,3.5027,3.554,3.5902,3.6018,3.5938,3.5898,3.5898,3.5898,3.6102,3.6361,3.6021,3.5439,3.4902,3.5146,3.502,3.4888]}]]